           , 1.998,  2.145,  2.293,  2.441,  2.589,  2.736,  2.884,  3.032,  3.179,  3.327,  3.475,  3.623,  3.770,  3.918,  4.066,  4.213,  4.361,  4.509,  4.657,  4.804,  4.952,  5.100,  5.248,  5.395,  5.543,  5.691,  5.838,  5.986,  6.134,  6.282,  6.429,  6.577,  6.725,  6.872,  7.020,  7.168,  7.316,  7.463,  7.611,  7.759,  7.907,  8.054,  8.202,  8.350,  8.497,  8.645,  8.793,  8.941,  9.088,  9.236,  9.384,  9.531,  9.679,  9.827,  9.975, 10.122, 10.270, 10.418, 10.565, 10.713, 10.861, 11.009, 11.156, 11.304, 11.452, 11.600, 11.747, 11.895, 12.043, 12.190, 12.338, 12.486, 12.634, 12.781, 12.929, 13.077, 13.224, 13.372, 13.520, 13.668, 13.815, 13.963, 14.111, 14.259, 14.406, 14.554, 14.702, 14.849, 14.997, 15.145, 15.293, 15.440, 15.588, 15.736, 15.883, 16.031, 16.179, 16.327, 16.474, 16.622, 16.770, 16.917, 17.065, 17.213, 17.361, 17.508, 17.656, 17.804, 17.952, 18.099, 18.247, 18.395, 18.542, 18.690, 18.838, 18.986, 19.133, 19.281, 19.429, 19.576
1992/05/21 00:05,  999.0,    2.7,    3.5,    4.0,    5.0,    5.7,    5.6,    6.2,    6.8,    5.5,    5.4,    4.1,    3.5,    3.4,    4.3,    5.6,  999.0,    4.0,    3.3,    2.7,    3.9,    4.3,    4.7,    5.0,    5.0,    4.0,    4.1,    5.0,    5.9,    6.7,    6.9,    7.3,    7.8,    8.6,    9.8,   10.3,   10.7,   11.3,   12.1,   12.6,   12.8,   12.7,   15.0,   14.6,   16.0,   13.2,   14.7,   14.6,   14.6,   16.2,   17.2,   16.9,   19.7,   21.8,   24.2,   25.1,   26.8,   29.9,   30.7,   31.6,   30.7,   32.8,   32.2,   33.0,   32.5,   35.5,   37.2,   35.1,   36.3,   37.6,   36.4,   39.1,   38.9,   35.4,   36.0,   35.5,   36.4,   35.1,   37.6,   33.0,   34.9,   35.3,   38.5,   38.0,   38.5,  999.0,   34.3,   38.1,   38.3,   36.9,  999.0,  999.0,   32.5,   30.0,   30.2,   27.6,   24.8,  999.0,   23.7,   27.1,   26.3,   28.2,   30.4,   21.0,   22.2,   22.4,   17.2,   18.0,   19.6,   21.0,   17.9,   18.3,   15.7,   12.6,   10.7,  999.0,  999.0,   13.7,   12.8,   10.8
1992/05/21 00:15,    3.1,    3.8,    4.2,    4.5,    5.6,    6.0,    7.0,    7.7,    6.6,    5.7,    5.4,    3.3,    2.7,    3.2,    4.2,    4.7,    3.8,    3.7,    3.8,    3.4,    3.5,    3.0,    3.8,    3.4,    3.8,    4.2,    4.5,    5.4,    6.6,    7.0,    7.6,    7.9,    9.5,   11.0,   11.7,   11.0,   11.7,   12.0,   12.9,   13.0,   13.1,   13.2,   14.1,   12.2,   14.5,   12.6,   13.5,   14.2,   15.0,   16.4,   17.4,   18.3,   20.4,   23.0,   23.7,   24.8,   27.5,   29.5,   30.0,   31.2,   32.3,   33.3,   31.2,   32.4,   33.8,   36.0,   35.8,   35.1,   36.1,   36.1,   37.0,   37.3,   38.0,   36.6,   35.7,   37.1,   37.1,   37.1,  999.0,  999.0,   33.6,   36.7,   37.8,   37.7,   38.4,  999.0,   39.0,   37.6,  999.0,   36.1,   36.7,   36.3,   33.7,   28.7,   28.7,   26.7,   23.7,   23.7,   24.7,   27.3,   25.6,   27.6,   25.5,   20.4,   22.2,   20.9,   18.3,   17.7,   19.7,   20.7,   18.6,   18.8,   15.9,   11.8,   11.2,  999.0,  999.0,  999.0,   14.7,   10.9
1992/05/21 00:25,    3.5,    4.6,    4.8,    5.5,    6.5,    7.2,    7.2,    8.0,    6.9,    6.1,    5.4,    4.1,    3.6,    3.5,    4.2,    5.4,    5.1,    4.2,    4.2,    2.9,    1.9,    2.1,    2.8,    2.2,    2.3,    2.3,    3.5,    4.2,    5.0,    5.3,    7.3,    9.5,   11.9,   11.7,   10.5,   11.1,   11.8,   11.8,   12.1,   12.5,   13.2,   12.7,   12.9,   11.8,   13.3,   13.2,   12.4,   15.0,   15.1,   16.7,   18.0,   19.3,   20.4,   22.9,   23.0,   24.4,   26.3,   28.9,   28.7,   29.9,   31.1,   34.0,   31.3,   33.3,   31.8,   34.3,   35.6,   36.4,   35.3,   36.5,   37.8,   38.2,   36.8,   39.2,   36.6,   37.5,   35.7,   37.5,   36.2,   31.3,   33.7,   36.3,   35.9,   38.9,   37.0,   40.8,   37.0,   37.1,   38.1,   37.4,   37.2,   33.7,   34.3,   30.4,   24.0,   24.9,   24.2,   23.4,   25.4,   28.3,   27.4,   28.3,   29.7,   21.4,   24.1,   22.6,   20.3,   19.3,   21.0,   22.2,   20.4,   19.2,   16.3,   12.0,   11.0,  999.0,  999.0,  999.0,    9.7,  999.0
1992/05/21 00:35,    4.2,    4.5,    5.2,    5.7,    6.0,    7.0,    7.5,    7.7,    6.7,    6.0,    5.8,    3.9,    3.9,    3.9,    5.3,    5.9,    5.8,    5.7,    5.5,    4.5,    3.5,    3.2,    4.3,    4.4,    3.4,    3.2,    4.4,    4.2,    5.0,    5.4,    8.2,    9.6,   11.4,   11.9,   12.0,   12.3,   12.2,   12.0,   11.8,   12.4,   12.9,   13.1,   11.9,   11.9,   13.2,   12.9,   12.0,   14.2,   14.3,   16.0,   17.7,   18.3,   20.2,   22.3,   22.6,   24.7,   25.4,   28.1,   28.9,   30.3,   31.4,   31.9,   31.9,   33.3,   29.9,   33.5,   36.4,   36.4,   33.1,   36.4,   36.4,   37.4,   36.2,   39.8,   36.5,   35.9,   35.0,   35.9,   35.3,   34.0,   34.0,   35.6,  999.0,   35.6,   36.8,   35.8,   36.8,   35.7,   37.4,   39.7,   34.4,   34.8,   31.1,   31.5,   24.3,   25.2,   23.4,   24.1,   25.4,   27.9,   28.1,   27.8,   29.7,   22.0,   25.1,   24.9,   21.3,   19.5,   22.6,   23.1,   21.3,   19.4,   16.7,   11.3,   11.0,  999.0,  999.0,  999.0,   11.2,   12.4
1992/05/21 00:45,    4.6,    4.5,    4.9,    5.5,    6.6,    7.2,    7.5,    7.2,    5.6,    5.5,    5.1,    2.4,    2.4,    3.5,    4.8,    4.8,    4.0,    4.7,    5.0,    3.2,    2.2,    3.6,    4.8,    4.8,    3.8,    5.1,    6.3,    5.2,    5.4,    6.3,    8.3,    9.8,   11.1,   12.0,   12.6,   12.7,   12.3,   11.5,   12.0,   12.3,   12.6,   13.5,   11.5,   10.4,   11.8,   12.2,   11.7,   13.7,   14.9,   16.4,   17.6,   18.3,   20.1,   21.7,   22.4,   23.5,   24.4,   26.4,   28.0,   29.1,   31.9,   32.3,   31.4,   30.1,   30.5,   33.5,   35.2,   33.2,   34.2,   34.2,   34.8,   35.9,   35.0,   38.4,   35.9,   34.1,   33.6,   34.2,  999.0,   33.5,   32.7,   34.7,   34.9,   33.7,   35.4,   33.7,   36.2,   34.7,   37.1,   41.1,   34.0,   34.3,   33.3,   30.2,   26.9,   26.5,   24.0,   24.2,   26.8,   29.6,   30.4,   29.1,   24.5,   23.8,   25.4,   25.9,   21.1,   21.3,   23.2,   23.4,   23.1,   17.2,   15.8,   12.2,  999.0,  999.0,  999.0,  999.0,   10.2,   11.5
1992/05/21 00:55,    4.6,    5.0,    5.5,    6.2,    7.5,    8.2,    8.1,    7.8,    5.9,    6.0,    5.8,    3.6,    3.0,    3.9,    5.0,    4.6,    4.7,    4.9,    5.2,    3.2,    3.1,    5.1,    5.2,    4.6,    4.2,    6.5,    6.5,    5.5,    6.5,    8.1,    9.3,   10.5,   11.2,   11.5,   11.9,   11.8,   12.0,   11.9,   11.9,   11.1,   11.7,   13.5,   11.1,   10.4,   11.1,   11.1,   11.8,   14.1,   15.1,   16.2,   17.2,   19.6,   20.1,   21.2,   21.8,   23.7,   23.8,   25.2,   26.2,   27.4,   29.2,   32.3,   30.4,   30.2,   29.7,   32.1,   34.8,   35.0,   33.6,   33.6,   34.5,   35.8,   34.7,   37.9,   36.8,   35.2,   33.7,   35.2,   33.3,   33.5,   32.1,   35.2,   39.5,   33.5,  999.0,   34.4,   37.3,   36.2,   37.1,   42.3,   35.9,   35.7,   33.7,   28.6,   25.6,   26.0,   25.3,   25.3,   27.3,   30.3,   32.7,   29.3,   25.6,   24.0,   25.3,   25.8,   23.2,   21.6,   23.7,   23.9,   20.4,   17.0,   15.0,   11.2,   10.6,  999.0,   11.9,   12.3,  999.0,   11.5
1992/05/21 01:05,    4.9,    5.4,    6.1,    7.7,    8.1,    9.0,    8.9,    7.5,    5.8,    6.6,    7.1,    5.4,    3.6,    3.0,    4.3,    4.8,    4.6,    4.9,    5.3,    4.4,    4.4,    5.9,    5.8,    5.4,    6.2,    5.7,    5.6,    6.8,    8.1,    9.3,   10.5,   11.6,   11.5,   11.9,   11.7,   11.1,   11.3,   11.4,   11.1,   10.1,   11.4,   12.7,   10.6,    9.9,    9.9,    9.8,   10.8,   12.8,   14.4,   15.8,   17.9,   19.7,   20.4,   22.1,   22.9,   24.7,   24.1,   26.1,   26.6,   27.4,   30.1,   30.0,   31.5,   30.4,   30.8,   31.5,   34.4,   34.5,   31.8,   33.6,   34.4,   36.4,   35.3,   37.4,   36.0,  999.0,   34.9,   35.1,  999.0,   35.6,   33.9,   34.4,   35.7,   36.5,   32.9,   34.4,   37.4,   34.6,   38.4,   44.0,   35.4,   35.8,   33.9,   34.0,   25.2,   25.1,   25.8,   25.9,   26.4,   29.1,   28.4,   28.6,   27.2,   23.2,   24.8,   25.5,   23.3,   22.4,   23.7,   24.6,   22.3,   17.4,   15.3,   11.9,   11.1,  999.0,  999.0,  999.0,   12.7,   12.4
1992/05/21 01:15,    4.5,    4.7,    5.1,    6.9,    7.2,    8.3,    8.1,    7.9,    5.9,    6.4,    5.7,    4.5,    3.9,    3.0,    3.2,    3.7,    5.1,    5.3,    5.1,    4.2,    5.3,    5.2,    5.9,    6.6,    7.2,    6.5,    6.8,    8.0,    9.0,   10.1,   10.5,   11.4,   12.2,   13.0,   11.3,   11.4,   10.8,   11.3,   10.4,   10.4,   11.3,   11.9,   10.2,    9.5,    9.3,    9.0,    9.8,   11.7,   13.3,   15.2,   17.7,   19.1,   20.4,   20.8,   21.8,   22.8,   20.6,   23.5,   25.6,   24.7,   27.0,   29.2,   29.9,   28.6,   27.4,   28.6,   31.7,   34.5,   31.1,   31.3,   33.0,   34.1,   34.3,   37.5,   36.4,   34.3,   33.3,   33.5,   35.1,   32.1,   32.6,   34.9,  999.0,   35.3,   32.4,   35.7,   37.3,   36.9,   38.6,  999.0,   32.3,   36.6,   31.6,   32.5,   29.5,   26.0,   25.1,   26.0,   26.9,   29.1,   28.7,   29.3,   25.8,   23.5,   24.7,   24.8,   24.5,   22.8,   24.3,   24.1,   20.8,   19.2,   15.7,   10.7,    9.9,  999.0,  999.0,   12.6,   12.7,   12.3
1992/05/21 01:25,    5.7,    5.7,    4.7,    6.6,    7.3,    7.7,    7.7,    7.3,    5.5,    4.8,    5.0,    3.7,    2.9,    2.6,    3.3,    4.2,    5.6,    5.5,    4.0,    5.2,    6.0,    5.6,    6.0,    5.9,    6.4,    6.5,    7.4,    8.2,    9.2,   10.1,   10.7,   12.0,   12.3,   13.2,   12.0,   11.9,   12.3,   11.6,   10.9,   11.6,   12.2,   13.2,   10.7,    9.9,    9.5,    9.3,   10.5,   12.5,   14.1,   16.7,   18.6,   20.5,  999.0,   21.4,   22.7,   23.2,   20.3,   23.1,   25.5,   24.3,   26.0,   28.2,   28.6,   29.3,   28.3,   29.8,   32.5,   33.8,   30.8,   32.7,   33.3,   35.4,   35.1,   37.2,   36.6,   33.5,   33.6,   33.0,   34.3,   34.1,   33.2,   35.0,   34.3,  999.0,   32.7,   36.4,   34.8,   36.1,   37.7,   39.3,   35.4,   35.8,   32.4,   32.5,   28.1,   25.6,   26.0,   26.6,   27.6,   30.7,   29.7,   27.9,   26.9,   22.6,   24.9,   24.2,   23.5,   23.2,   24.0,   25.8,   20.1,   16.9,   13.8,   11.2,    8.9,  999.0,    9.8,   12.0,   10.8,   12.1
1992/05/21 01:35,    5.4,    5.5,    5.0,    6.4,    7.4,    6.9,    6.7,    7.0,    5.6,    4.1,    3.8,    3.1,    2.6,    2.2,    3.1,    3.6,    4.1,    4.4,    3.6,    5.4,    5.9,    5.9,    5.6,    5.6,    6.2,    6.4,    6.5,    7.3,    8.4,    8.9,    9.6,   11.7,   12.0,   11.9,   11.3,   10.9,   11.0,   10.1,    9.8,   10.8,   11.7,   12.2,    9.2,    8.4,    9.8,    8.9,    9.6,   10.9,   12.2,   15.5,   18.0,   20.0,   21.1,   22.3,   23.4,   24.2,   21.4,   22.8,   25.5,   26.0,   28.0,   28.4,   29.7,   29.9,   29.0,   30.1,   34.0,   36.1,   31.7,   32.5,   32.6,   34.8,   35.7,   36.4,   37.5,   34.1,   33.9,   33.5,   32.6,   33.6,   32.3,   33.2,   33.1,   33.1,   34.1,   35.6,   33.3,   36.4,   36.8,  999.0,  999.0,   32.7,   31.3,   29.5,   28.8,   25.3,   25.7,   26.3,   26.9,   30.0,   29.1,   29.1,   23.2,   23.5,   26.5,   24.7,   23.2,   23.5,   24.1,   25.7,   21.5,   18.2,   13.8,   11.3,    9.6,  999.0,  999.0,   11.7,  999.0,   11.2
1992/05/21 01:45,    5.3,    4.8,    5.0,    5.7,    6.9,    7.2,    7.3,    6.8,    5.6,    5.3,    4.7,    4.0,    3.5,    3.3,    3.8,    4.1,    3.9,    2.6,    3.2,    4.6,    5.0,    5.4,    5.7,    6.4,    7.0,    7.0,    6.9,    7.7,    8.8,    9.0,   10.0,   11.7,   12.3,   12.0,   11.6,   10.8,   10.8,    9.3,    9.7,   11.5,   10.7,   10.1,    8.2,    6.4,    8.3,    8.7,    8.5,    9.4,   10.8,   13.5,   16.2,   18.7,   19.5,   20.7,   21.9,   24.6,   19.2,   21.5,   24.9,   25.2,   27.0,   28.3,   28.7,   28.2,   28.1,   30.7,   33.9,   34.3,   30.0,   31.5,   33.1,   33.6,   36.8,   36.4,   38.9,   33.8,   33.6,   35.0,   31.2,   32.7,   32.6,   35.8,   33.3,   34.3,   33.4,   34.5,   33.0,   34.9,   38.0,   36.5,  999.0,   33.9,   31.0,   29.4,   28.0,   25.2,   24.8,   25.7,   25.7,   29.1,   27.1,   27.0,   23.9,   24.2,   25.2,   23.7,   23.5,   23.2,   24.9,   23.7,   21.1,   18.7,   15.3,   11.9,    9.5,  999.0,   13.6,   14.0,  999.0,   13.2
1992/05/21 01:55,    4.7,    4.6,    4.0,    4.4,    5.3,    5.8,    5.9,    5.7,    5.2,    5.7,    4.9,    4.1,    3.7,    4.8,    5.1,    5.1,    4.5,    4.2,    4.4,    5.2,    5.4,    5.3,    6.3,    7.0,    7.5,    7.2,    7.0,    7.2,    8.3,    8.5,    9.3,   10.7,   11.9,   11.7,   11.0,   10.8,   10.2,    8.6,    8.8,    9.3,    9.7,    8.7,    6.4,    5.7,    7.2,    8.8,    8.6,    9.2,   10.8,   14.0,   17.1,   19.4,   19.9,   21.0,   23.0,   24.4,   20.0,   22.4,   25.5,   26.0,   27.7,   27.6,   28.2,   29.0,   29.5,   32.8,   34.4,   32.3,   31.3,   30.9,   34.2,   36.4,   36.8,   38.2,   36.5,   33.6,   33.9,   34.5,   33.5,   33.7,   34.6,   38.2,   34.4,  999.0,   34.7,   36.6,   35.8,   36.8,   39.6,   32.4,   33.1,   34.1,   31.9,   28.7,   26.5,   25.2,   25.9,   25.3,   26.1,   29.2,   26.8,   26.9,   24.2,   24.2,   24.0,   23.3,   23.2,   22.2,   23.2,   23.3,   20.4,   18.3,   14.3,   10.6,    9.1,    8.6,   12.7,   13.3,   12.8,  999.0
1992/05/21 02:05,    4.9,    4.6,    4.4,    4.5,    5.6,    6.0,    6.3,    5.5,    5.5,    5.7,    4.9,    4.6,    5.2,    6.6,    7.9,    8.6,    6.4,    6.0,    7.5,    7.7,    8.1,    7.6,    7.5,    7.7,    7.7,    8.0,    7.5,    6.8,    7.8,    8.1,    9.4,   10.4,   11.5,   11.9,   11.2,   11.4,   10.4,    9.1,    9.8,   10.7,    9.7,    6.6,    6.3,    6.0,    7.9,    9.8,    9.7,    9.1,   10.3,   12.3,   16.0,   18.4,   18.7,   20.6,   21.9,   24.0,   20.0,   22.7,   24.3,   25.7,   27.3,   28.0,   29.2,   28.2,   30.3,   32.9,   33.6,   33.5,   31.9,   32.6,   35.6,   34.7,   37.6,   40.0,   38.6,   33.4,   34.0,   37.1,   35.4,  999.0,   33.8,   36.8,   35.8,  999.0,   35.1,   38.9,   35.1,  999.0,   37.9,   37.1,   35.8,   35.7,   34.9,  999.0,   25.0,   25.1,   26.1,   26.4,   26.8,   28.9,   27.7,   27.6,   24.2,   23.0,   22.7,   22.3,   22.6,   20.0,   22.3,   23.2,   21.7,   19.1,   16.0,   11.1,    9.5,    9.8,  999.0,   10.5,  999.0,  999.0
1992/05/21 02:15,    5.1,    5.0,    4.4,    5.0,    5.9,    6.4,    6.6,    6.5,    6.4,    6.1,    5.9,    5.0,    4.8,    5.7,    7.5,    7.7,    6.0,    8.1,    9.3,    9.6,    7.2,    7.1,    7.5,    7.6,    7.4,    7.6,    8.0,    7.3,    8.2,    9.1,    9.4,   10.3,   10.9,   10.0,   11.2,   11.0,   10.1,    8.3,    9.1,    8.6,    6.8,    5.5,    5.7,    6.2,    7.7,    9.0,    9.2,    9.6,   10.4,   12.6,   15.7,   18.4,   18.3,   20.1,   21.9,   24.5,   19.7,   22.3,   25.2,   26.5,   28.5,   27.9,   29.5,   30.5,   32.7,   34.5,   32.6,   34.2,   33.0,   33.6,   35.3,   35.7,   37.5,   40.3,   35.3,   38.4,  999.0,   36.9,   34.1,   35.1,   35.6,   38.3,   38.1,  999.0,   36.0,   39.6,  999.0,  999.0,   33.8,   38.0,   36.5,   34.5,   34.5,  999.0,   29.0,   24.6,   26.0,   25.7,   26.4,   28.3,   30.1,  999.0,   23.4,   22.9,   24.6,   20.9,   21.3,  999.0,   21.3,   23.7,   22.7,   19.4,   13.9,   11.9,    9.6,    9.0,  999.0,   10.7,  999.0,  999.0
1992/05/21 02:25,    4.8,    4.4,    4.8,    5.5,    6.9,    7.5,    7.1,    7.0,    7.4,    6.5,    6.5,    6.0,    5.6,    5.0,    6.9,    7.3,    5.8,    6.5,    7.7,    7.2,    5.9,    5.1,    5.3,    5.5,    5.9,    6.2,    6.8,    7.1,    8.2,    8.6,    9.1,    9.4,   10.0,   10.4,   10.6,   10.6,    9.1,    7.7,    7.9,    6.3,    5.6,    6.1,    5.9,    6.9,    7.6,    8.7,    9.5,   10.6,   11.5,   12.5,   16.0,   18.3,   17.8,   20.5,   22.1,   24.0,   21.0,   23.4,   25.4,   26.7,   29.4,   28.2,   29.0,   30.5,   32.3,   32.7,   32.4,   34.4,   32.8,   33.1,   34.7,   34.7,   37.4,   38.3,   35.6,   34.9,   32.9,   36.0,   33.6,   32.9,   34.2,   35.3,   37.6,   35.4,   37.4,  999.0,  999.0,  999.0,   40.0,   35.4,   34.5,   33.9,  999.0,  999.0,  999.0,   26.7,   26.1,   27.0,   27.0,   28.6,  999.0,  999.0,   23.4,   24.7,   25.4,   22.5,   21.7,  999.0,   21.7,   24.1,   24.1,   17.9,   13.8,   12.0,   10.9,  999.0,  999.0,   12.4,   11.6,  999.0
1992/05/21 02:35,    4.6,    4.3,    5.1,    6.9,    7.2,    7.5,    8.1,    8.5,    8.1,    7.9,    7.1,    6.2,    5.6,    5.0,    6.2,    6.9,    6.1,    7.1,    8.1,    7.0,    6.1,    6.6,    6.1,    5.9,    6.4,    7.1,    7.8,    8.4,    9.1,    9.4,   10.1,    9.4,   10.3,    9.9,   11.0,   10.6,    9.2,    9.4,    8.0,    7.9,    7.4,    8.3,    7.1,    8.5,   10.3,   11.6,   12.1,   11.4,   12.4,   13.5,   15.7,   18.4,   17.9,   19.6,   22.6,   21.2,   19.8,   22.3,   23.4,   24.6,   26.1,   26.5,   28.4,   28.6,   31.4,   31.9,   31.3,   33.1,   31.3,   31.3,   33.2,   34.5,   36.8,   37.1,   34.7,   34.6,   34.0,   34.3,   33.1,   34.5,   34.3,   35.6,   38.2,   35.9,   39.0,  999.0,   38.7,   37.6,   39.1,   34.9,   34.5,   36.3,   33.2,   29.8,  999.0,   25.3,   26.6,   26.0,   25.8,   28.0,   25.4,   27.2,   22.9,   23.9,   24.9,   23.6,   21.4,   23.2,   23.7,   24.2,   24.3,   18.4,   14.9,   11.7,    9.8,   10.6,   12.0,   11.2,   12.5,  999.0
1992/05/21 02:45,    4.6,    4.6,    5.2,    6.4,    7.1,   10.1,    7.8,    8.4,    8.0,    7.4,    7.1,    5.7,    5.4,    5.5,    7.3,    7.5,    7.0,    6.4,    7.5,    6.0,    5.9,    5.5,    5.0,    4.9,    6.5,    7.9,    8.0,    8.0,    9.0,    9.5,    9.7,    8.7,    8.9,    8.3,    8.7,    8.6,    8.8,    8.6,    7.2,    7.8,    7.8,    8.5,    7.4,    8.4,   10.7,   12.0,   11.7,   11.3,   12.4,   13.2,   14.5,   17.3,   18.9,   17.8,   20.0,   22.2,   21.0,   22.6,   24.2,   25.3,   25.3,   27.9,   29.1,   29.8,   32.0,   32.2,   30.3,   34.1,   30.0,   31.6,   33.2,   35.1,   37.5,   36.7,   36.1,   36.6,   32.0,   32.6,   33.0,   34.9,   34.7,   35.0,   36.1,   35.6,   37.2,   32.4,   35.5,   33.2,  999.0,   31.6,   32.7,   31.6,  999.0,   30.8,  999.0,   23.2,   25.3,   25.6,   26.5,   28.2,  999.0,   30.0,   24.6,   24.5,   24.3,   23.1,   22.1,   21.9,  999.0,   23.2,   24.3,   22.0,   13.5,   11.9,   10.3,    9.6,  999.0,    9.5,   11.1,  999.0
1992/05/21 02:55,    4.7,    4.7,    5.3,    6.8,    7.3,    9.0,    8.5,    7.7,    7.3,    7.1,    6.3,    5.4,    5.1,    5.5,    7.4,    8.2,    8.0,    8.7,    9.1,    7.7,    7.7,    6.9,    5.9,    5.5,    6.7,    7.9,    8.1,    8.9,    9.4,    9.4,    8.9,    8.7,    7.4,    7.0,    8.2,    8.5,    8.9,    8.2,    8.0,    7.7,    7.8,    8.4,    7.3,    9.4,   11.7,   13.3,   11.3,   12.2,   12.8,   13.7,   14.7,   16.8,   19.5,   17.6,   20.2,   22.7,   23.3,   23.3,   24.4,   24.6,   25.9,   28.9,   31.1,   30.2,   32.2,   30.4,   32.1,   34.0,   30.8,   30.1,   32.3,   33.3,   34.2,   35.0,   35.4,  999.0,   31.5,   32.2,   32.1,   33.9,   33.6,   35.3,   35.6,   35.8,   36.4,   36.3,   36.4,   34.2,   36.5,   33.9,   35.2,   34.1,  999.0,  999.0,  999.0,   25.7,  999.0,   27.2,   26.1,   29.2,   28.1,   31.4,   28.7,   26.0,   28.0,   25.8,   23.2,   24.7,   21.7,   24.0,   22.1,   20.0,   12.9,   11.7,   10.2,   11.6,  999.0,  999.0,   10.8,  999.0
1992/05/21 03:05,    4.6,    4.7,    6.1,    7.6,    7.7,    7.9,    7.1,    6.8,    6.5,    6.1,    5.7,    4.5,    5.5,    6.9,    8.8,    8.8,    8.1,    8.3,    7.5,    7.8,    7.5,    7.5,    6.0,    6.7,    8.6,    8.5,    8.5,    8.3,    8.9,    7.9,    8.1,    6.8,    5.1,    5.7,    6.7,    8.5,    7.5,    7.2,    6.9,    6.8,    6.4,    6.9,    6.7,    7.8,    8.8,   11.0,   11.9,   11.4,   11.4,   12.7,   14.4,   16.6,   19.0,   17.1,   19.8,   22.8,   21.9,   23.5,   24.5,   24.8,   26.1,   27.7,   30.0,   29.1,   31.2,   32.0,   30.6,   33.7,   31.0,   28.6,   30.8,   32.0,   34.8,   34.9,   36.1,  999.0,   33.2,   33.9,   33.0,   35.5,   32.4,   34.9,  999.0,  999.0,   35.7,   35.5,   36.9,   36.6,   37.0,   31.9,   36.1,  999.0,  999.0,   30.9,  999.0,   23.8,   23.7,   25.0,   25.8,   28.4,   25.9,   28.3,  999.0,   24.4,   27.0,   27.7,   24.8,   22.4,  999.0,   23.5,   22.2,   18.6,   11.4,   10.5,   10.8,   12.6,  999.0,  999.0,    9.0,  999.0
1992/05/21 03:15,    5.4,    5.9,    7.4,    8.4,    9.6,    8.3,    7.0,    6.6,    6.2,    5.6,    5.3,    6.0,    7.7,    7.9,    8.7,    9.0,    9.1,    8.5,    8.5,    7.3,    8.0,    7.3,    7.3,    7.7,    8.0,    8.0,    8.5,    7.9,    7.7,    7.4,    7.6,    5.3,    5.0,    5.7,    6.0,    5.9,    6.2,    6.7,    7.1,    7.1,    6.5,    6.8,    7.1,    7.8,    8.7,   11.0,   12.4,   12.0,   11.2,   12.1,   14.4,   16.3,   18.2,   16.3,   19.4,   20.2,   20.6,   21.0,   22.9,   22.7,   25.9,   26.8,   29.5,   28.1,   29.3,   29.8,   29.7,   30.6,   30.8,   27.0,   28.2,   31.7,   35.0,   33.0,   34.5,   34.2,   33.2,   33.0,   33.4,   35.4,   34.8,   35.5,   37.5,   37.7,   35.0,   33.1,   35.5,   35.4,   37.5,  999.0,   32.9,   31.3,   28.2,  999.0,   23.4,   23.6,   25.0,   24.3,   26.4,   25.3,   24.7,   26.2,   26.0,   23.3,   26.4,   28.7,   25.5,   23.5,   23.5,   23.2,   21.9,   18.8,   12.4,   10.8,   10.2,  999.0,   15.7,   13.1,  999.0,   16.3
1992/05/21 03:25,    5.8,    6.7,    8.0,    8.8,    8.4,    8.2,    6.1,    5.9,    5.5,    4.7,    5.1,    6.4,    7.2,    7.8,    8.8,    8.5,    8.6,    7.2,    7.7,    5.5,    5.3,    5.7,    6.2,    6.8,    7.0,    7.2,    7.8,    5.5,    6.0,    7.9,    5.2,    4.2,    4.6,    5.5,    5.2,    4.8,    6.4,    6.8,    7.5,    7.5,    7.6,    8.3,    8.3,    7.6,    8.6,   11.1,   12.5,   13.0,   11.9,   13.1,   15.2,   17.1,   18.3,   16.6,   18.7,   20.8,   20.1,   22.0,   23.8,   23.4,   25.9,   29.1,   31.8,   30.5,   31.4,   30.0,   30.7,   32.6,   30.4,   29.4,   29.8,   31.5,   34.4,   34.4,   34.0,   35.1,   33.9,   32.2,   33.6,   35.3,   35.1,   37.0,   38.1,   36.7,   36.8,   33.5,   36.3,   36.6,   34.9,   32.4,   33.4,   32.9,   27.6,   29.3,   24.5,   24.4,   23.8,   25.3,   24.7,   24.5,   24.7,   25.8,   22.9,   23.5,   26.6,   29.3,   24.4,   22.2,   16.6,  999.0,   22.9,   21.0,   15.1,   10.8,  999.0,  999.0,  999.0,   11.7,  999.0,  999.0
1992/05/21 03:35,    6.9,    8.2,    8.4,    9.0,    8.5,    8.1,    6.2,    6.3,    6.1,    5.2,    6.0,    7.3,    8.6,    8.6,    9.2,    9.8,    9.0,    8.6,    8.8,    6.9,    6.4,    6.5,    6.5,    6.0,    6.1,    6.5,    6.3,    5.4,    5.7,    5.5,    3.3,    3.2,    4.9,    5.0,    4.9,    5.1,    5.8,    6.8,    7.6,    7.5,    8.1,    8.4,    7.4,    7.4,    8.1,   10.2,   11.5,   11.7,   12.1,   13.2,   15.4,   17.1,   16.8,   17.2,   18.5,   20.8,   21.2,   23.0,   23.4,   24.3,   26.8,   29.4,   32.5,   30.2,   31.4,   30.7,   31.1,   31.6,   27.6,   30.5,   31.4,   30.9,   34.9,   36.0,   36.8,   34.3,   35.0,   33.1,   33.8,   34.7,   35.6,   36.0,   35.6,   37.1,   37.2,   34.7,   35.7,   37.4,   37.0,   32.7,   33.5,   33.1,   31.0,   29.5,   25.3,   24.1,   25.5,   25.0,   26.1,   24.9,   24.8,   24.4,  999.0,   25.3,   28.2,   30.3,   23.0,   21.2,  999.0,   21.1,   22.3,   21.2,   15.9,   10.1,   10.2,   14.0,  999.0,   12.0,   11.2,   13.4
1992/05/21 03:45,    7.1,    8.0,    8.1,    8.4,    7.6,    7.3,    5.9,    6.5,    6.4,    5.9,    6.2,    7.3,    7.5,    8.4,    8.7,    8.5,    7.5,    7.7,    6.6,    6.5,    5.8,    6.1,    6.4,    6.4,    6.6,    6.4,    6.3,    5.7,    6.9,    3.5,    3.5,    4.1,    4.8,    4.9,    4.6,    5.5,    6.5,    7.3,    8.5,    9.0,    8.5,    8.2,    7.4,    7.8,    9.7,   10.9,   11.6,   10.9,   11.5,   13.4,   15.3,   17.9,   17.4,   17.6,   17.7,   20.7,   21.7,   23.1,   23.0,   23.3,   26.0,   29.6,   33.6,   31.0,   31.4,   32.1,   31.4,   31.9,   27.7,   30.6,   29.4,   31.7,   33.6,   34.0,   33.4,   34.7,   35.7,   32.3,   34.1,   34.3,   33.7,   34.8,   37.7,   34.2,   36.8,   35.6,   35.0,   39.1,   34.5,   32.6,   33.5,   32.2,   32.2,   27.5,   26.2,   23.8,   26.3,   20.9,   23.8,   23.5,   23.7,   26.9,  999.0,   23.9,   27.7,   30.3,   24.1,   20.9,   21.6,   22.3,   22.9,   21.3,   15.7,   10.9,   10.4,   11.8,   13.4,   11.4,   10.1,  999.0
1992/05/21 03:55,    7.5,    7.7,    7.7,    7.2,    7.3,    7.6,    5.8,    6.7,    6.3,    7.0,    8.1,    8.0,    8.4,    9.3,   10.0,    9.2,    8.7,    8.9,    8.2,    8.1,    6.7,    7.1,    6.8,    7.1,    4.7,    6.3,    6.8,    7.1,    5.4,    3.4,    3.9,    4.6,    5.1,    5.1,    5.4,    6.7,    7.5,    8.3,    9.0,    8.5,    8.9,    8.3,    7.5,    7.4,    8.5,   11.0,   11.1,   11.7,   11.6,   12.9,   15.3,   18.4,   19.0,   18.7,   19.6,   22.4,   22.9,   23.7,   22.3,   22.9,   25.3,   29.1,   32.5,   30.3,   31.4,   32.0,   32.1,   31.2,   29.6,   31.1,   29.8,   32.4,   32.2,   34.3,   31.8,   33.4,   33.0,   31.7,   33.5,   34.7,   35.7,   31.9,   33.9,   34.2,   36.9,   34.1,   33.5,   36.4,   34.2,   32.4,   33.8,   33.5,   31.8,   28.9,   29.4,   24.5,   25.7,   22.8,   23.5,   22.4,   24.1,   26.2,   25.9,   25.0,   28.5,   29.0,   23.7,   24.0,   18.8,   22.9,   22.0,   21.2,   16.7,   11.0,   10.6,   12.7,   16.2,   11.4,    9.3,   10.5
1992/05/21 04:05,    7.0,    7.3,    7.0,    7.3,    8.2,    8.6,    6.5,    7.3,    7.1,    7.2,    7.9,    8.1,    8.6,    8.9,   10.0,    9.6,    9.1,    8.5,    7.7,    7.9,    6.6,    6.9,    7.0,    7.5,    5.1,    5.7,    5.5,    5.8,    3.5,    3.3,    3.6,    4.3,    4.5,    4.6,    5.2,    7.3,    8.0,    7.8,    7.6,    7.9,    8.1,    8.1,    7.0,    8.1,    9.5,   11.4,   12.4,   11.3,   12.2,   12.4,   14.4,   17.6,   18.9,   19.0,   20.5,   23.1,   24.5,   23.4,   22.5,   22.9,   23.8,   27.8,   31.7,   28.6,   30.3,   30.8,   33.8,   29.9,   31.3,   33.5,   29.3,   32.0,   32.4,   33.3,   32.8,   35.1,   33.4,   35.0,   36.8,   38.8,   36.0,   34.2,   37.4,   36.3,   39.4,   39.5,   35.0,   37.4,   34.1,   36.1,   33.6,   34.1,   30.7,   27.1,   30.9,   24.7,   25.6,   25.3,  999.0,   20.8,   24.2,   24.8,   24.5,   25.9,   26.7,   29.1,   23.1,   23.5,   21.4,   22.6,   22.6,   19.3,   16.9,   10.3,    9.6,   12.4,  999.0,   12.1,    9.1,   10.7
1992/05/21 04:15,    7.2,    7.1,    7.7,    8.2,    8.8,    6.9,    7.1,    8.5,    6.5,    6.9,    7.1,    7.6,    8.6,   10.1,    9.7,    9.8,    7.9,    8.5,    8.1,    8.5,    7.2,  999.0,    7.4,    5.4,    5.5,    5.5,    6.0,    4.6,    3.2,    3.6,    4.1,    5.1,    5.3,    5.6,    6.0,    7.1,    8.2,    7.2,    7.3,    8.2,    8.3,    7.0,    7.1,    8.4,   10.0,   12.4,   11.8,   12.2,   11.7,   12.9,   13.5,   16.5,   18.2,   19.4,   21.3,   22.9,   24.8,   23.9,   23.0,   24.4,   25.7,   28.5,   32.5,   29.4,   31.3,   32.0,   33.3,   30.7,   32.0,   33.0,   31.8,   32.0,   33.7,   35.5,   32.6,   33.9,   34.8,   34.1,   38.0,   39.2,   39.0,   39.8,   37.5,   36.3,   38.0,   40.2,   34.9,   35.3,   37.2,   35.1,  999.0,   33.9,   32.9,   29.2,   30.1,   24.8,   25.4,   25.5,   26.3,   21.5,   23.8,   27.0,   28.8,   24.9,  999.0,   28.4,   25.4,   23.7,   22.6,  999.0,   21.7,   21.7,   17.8,   11.0,    9.6,   12.4,  999.0,   12.4,    9.0,   10.0
1992/05/21 04:25,    6.9,    6.1,    6.8,    7.7,    8.4,    7.8,    7.9,    8.0,    5.9,    6.7,    7.0,    7.1,    8.3,    9.6,    9.0,    8.5,    8.4,    7.7,    7.3,    7.6,    6.1,    5.0,    4.9,    2.7,    4.5,    5.0,    4.9,    3.6,    2.4,    3.8,    4.6,    5.2,    5.8,    6.9,    7.4,    7.8,    7.5,    6.8,    7.3,    9.1,    8.7,    7.3,    7.6,    9.2,   11.0,   12.3,   13.2,   13.8,   11.8,   12.3,   14.1,   16.4,   17.9,   20.0,   19.6,   22.0,   24.0,   22.8,   23.0,   24.3,   26.0,   28.9,   31.7,   29.5,   30.1,   30.2,   30.1,   30.6,   30.3,   31.6,   31.0,   32.7,   32.8,   34.5,   32.9,   32.8,   33.1,   34.3,   35.1,   37.5,   36.8,   35.0,   35.9,   35.4,   37.9,   37.2,   35.2,   33.1,   35.6,   33.1,   30.4,   31.1,   28.2,   31.2,   31.3,   23.7,   24.4,   24.4,   25.5,   22.2,   24.0,   27.1,   24.9,   26.0,   27.4,   28.8,   23.7,   23.5,   22.3,  999.0,  999.0,   21.9,   17.0,   10.9,    9.4,   11.8,   15.1,   10.6,    9.1,    9.1
1992/05/21 04:35,    6.4,    5.8,    6.5,    8.0,    8.5,    8.0,    8.7,    8.4,    7.5,    6.8,    8.2,    7.0,    7.7,    8.9,    7.7,    8.2,    8.9,    8.2,    8.7,    7.8,    6.9,    6.7,    3.2,    2.7,    5.0,    5.0,    4.0,    2.8,    2.5,    3.3,    4.1,    4.4,    5.9,    6.5,    6.8,    6.3,    5.2,    5.5,    6.8,    9.0,    8.2,    7.4,    7.0,    9.0,   10.2,   12.6,   13.3,   13.6,   12.9,   12.2,   13.4,   16.6,   19.2,   20.4,   19.4,   21.1,   24.2,   22.0,   22.8,   23.9,   26.6,   28.7,   30.2,   30.6,   30.0,   29.7,   29.0,   30.6,   30.0,   33.5,   30.3,   31.9,   32.6,   35.5,   30.4,   32.2,   33.6,   35.5,   34.7,   35.9,   36.3,   38.1,   36.0,   38.5,   38.9,   41.3,   35.5,   36.3,   37.0,   35.1,   35.3,   30.5,   32.1,   32.6,   30.9,   25.9,   26.2,   26.2,   27.1,   23.7,   24.8,   28.3,   25.0,   26.9,   27.5,   32.0,   25.0,   24.1,   22.4,  999.0,   20.1,   21.0,   18.2,   10.1,    9.1,  999.0,  999.0,   10.8,    9.6,    9.3
1992/05/21 04:45,    6.1,    6.8,    6.9,    8.0,    8.3,    8.1,    8.1,    8.2,    8.2,    8.6,    8.5,    7.1,    7.6,    9.0,    7.7,    8.2,    8.7,    9.1,    9.1,    8.1,    8.0,    7.2,    5.0,    4.4,    5.0,    4.5,    3.1,    2.7,    3.2,    4.3,    3.7,    4.7,    5.8,    6.2,    5.4,    4.9,    4.9,    5.2,    7.1,    8.3,    8.3,    7.5,    7.8,    9.8,   11.2,   13.0,   12.8,   13.6,   12.5,   11.9,   13.4,   16.5,   19.2,   20.6,   20.8,   22.1,   24.6,   23.6,   22.7,   25.0,   28.3,   30.4,   31.8,   31.7,   31.6,   33.1,   30.7,   31.2,   32.5,   34.4,   32.7,   32.8,   33.9,   35.9,   30.9,   31.7,   33.5,   33.6,   35.0,   37.5,   36.1,   37.8,   36.7,   38.1,   38.2,   40.9,   33.0,   36.7,   36.6,   35.4,   36.2,   33.8,   32.1,   33.2,  999.0,   25.3,   25.6,   24.8,   26.6,   23.4,   24.9,   27.1,   24.9,   27.0,   28.4,   27.0,   25.4,   21.3,   21.6,  999.0,   19.0,   20.8,   18.8,   11.0,    8.9,   11.4,   13.9,   10.6,   10.4,    9.3
1992/05/21 04:55,    6.2,    6.5,    6.7,    7.6,    8.8,    8.1,    9.1,    8.9,    8.2,    9.1,    8.9,    7.9,    7.6,    8.1,    8.9,    8.9,    9.7,    9.7,    8.7,    7.6,    7.2,    7.4,    5.8,    4.8,    4.7,    2.9,    2.7,    3.7,    3.2,    3.3,    3.2,    4.5,    5.4,    5.3,    4.6,    3.8,    4.7,    5.3,    7.4,    8.6,    5.6,    6.2,    7.3,    9.6,   10.5,   13.2,   13.4,   14.6,   12.1,   11.6,   12.1,   14.8,   17.9,   20.7,   21.0,   22.3,   24.1,   23.5,   22.7,   25.2,   28.5,   31.4,   30.9,   31.9,   32.7,   33.1,   31.7,   31.2,   32.7,   32.0,   34.0,   33.5,   33.8,   33.6,   32.4,   32.0,   33.2,   32.8,   35.0,   37.3,   36.9,   35.7,   37.5,   37.4,   36.8,   38.0,   37.4,   34.5,   34.8,   33.1,   36.3,   33.8,   32.4,   30.4,   32.8,   24.1,   24.6,   23.8,   24.7,   21.9,   23.8,   26.1,   24.6,   26.6,   27.6,   28.0,   24.4,   22.8,   19.7,   19.4,   18.1,   19.0,   19.6,   11.9,    9.4,   11.9,   13.4,   10.9,    9.4,    8.8
1992/05/21 05:05,    5.7,    6.4,    6.5,    7.6,    7.8,    8.0,    7.4,    8.8,    9.2,    9.3,    8.6,    8.0,    7.9,    8.9,    9.2,    8.5,   10.4,   10.1,    8.7,    8.1,    6.6,    4.3,    4.5,    5.5,    4.5,    1.6,    2.5,    2.7,    2.5,    2.4,    2.2,    3.9,    3.9,  999.0,    1.6,    4.0,    4.8,    4.4,    6.6,    8.0,    6.6,    6.7,    8.4,   10.5,   11.9,   13.7,   15.1,   15.0,   12.5,   11.8,   12.0,   13.5,   16.5,   17.8,   19.0,   22.1,   24.5,   23.2,   22.7,   24.7,   27.3,   30.7,   30.4,   32.3,   32.1,   31.6,   30.8,   31.0,   31.1,   32.2,   33.4,   33.6,   35.0,   32.7,   32.0,   30.8,   33.2,   32.4,   34.0,   35.5,   37.0,   36.5,   38.3,   38.0,   36.3,   38.8,   35.2,   35.3,   35.3,   34.5,   37.8,   35.8,   32.7,   32.3,   33.4,   27.8,   24.0,   24.1,   24.4,   22.9,   25.2,   26.7,   25.9,   27.7,  999.0,   29.7,   27.6,   22.4,   17.5,  999.0,   17.0,   18.6,   19.8,   11.8,    8.9,   11.7,   13.8,   11.5,    9.9,   11.4
1992/05/21 05:15,    5.4,    6.4,    7.3,    7.5,    7.9,    8.5,    9.0,    8.9,    9.0,    9.3,    8.5,    8.6,    8.6,   10.2,    9.5,    9.8,   12.0,   10.8,    9.3,    9.2,    7.3,    4.2,    4.2,    4.8,    4.8,    2.6,    2.4,    2.2,    2.9,    2.0,    2.6,    2.4,    2.3,    2.2,    4.7,    5.3,    5.1,    5.8,    6.3,    4.5,    6.3,    6.1,    8.6,   11.7,   13.5,   13.8,   14.5,   13.1,   11.4,   11.5,   12.6,   12.6,   15.1,   16.4,   18.3,   21.0,   23.0,   24.3,   21.6,   24.1,   27.9,   28.6,   30.0,   32.9,   32.4,   32.8,   30.5,   31.4,   32.9,   32.0,   34.5,   33.7,   34.0,   32.7,   33.4,   32.6,   35.7,   32.6,  999.0,   35.9,   35.3,   36.9,  999.0,   36.2,   36.4,   38.5,   37.8,   36.6,   34.8,   35.9,   35.8,   35.1,   33.8,   32.8,   34.8,   26.0,   25.1,   23.9,   26.7,   23.7,   26.6,   30.1,   30.0,   28.6,   28.3,  999.0,   26.3,   18.7,   16.7,   19.3,   16.4,   16.3,   20.2,   10.3,    7.8,   11.2,   11.6,    9.1,    9.0,   11.2
1992/05/21 05:25,    6.2,    7.1,    7.3,    7.3,    7.4,    8.4,    9.5,    9.1,    9.3,    8.5,    8.3,    8.1,    8.1,    8.4,    9.0,   10.1,   11.7,    9.5,    9.3,    8.5,    6.6,    3.7,    4.0,    4.8,    4.0,    2.9,    3.0,    3.0,    2.4,    2.1,    1.8,    0.8,    2.5,    2.7,    3.6,    5.1,    4.8,    3.6,    7.3,    7.2,    5.8,    7.3,    9.5,   12.0,   10.8,   11.7,   12.8,   11.9,   10.8,   10.7,   11.9,   12.6,   13.8,   15.7,   18.3,   20.8,   23.1,   24.1,   22.4,   24.8,   27.8,   29.2,   30.3,   33.8,   30.5,   31.8,   31.1,   32.8,   34.9,   31.6,   32.1,   34.3,   33.0,   32.6,   34.0,   32.8,   33.3,   34.6,   34.9,   37.0,   35.8,   38.9,  999.0,   37.6,   36.7,   39.0,   38.6,   36.4,   36.1,   35.6,   37.5,  999.0,   31.3,   32.7,   29.9,  999.0,   25.1,   25.0,   26.6,   23.7,   26.7,   29.3,   31.9,   30.3,   30.4,   31.2,   22.4,   20.5,   18.8,   18.6,  999.0,   16.8,   18.4,   12.8,    8.6,   10.6,   12.5,    8.3,    9.3,  999.0
1992/05/21 05:35,    7.3,    7.9,    7.4,    6.8,    7.2,    8.4,    8.8,    9.5,    9.9,    8.6,    8.3,    8.3,    7.4,    9.1,    9.6,   11.9,   12.9,   10.3,    9.9,    7.9,    6.1,    2.9,    4.9,    5.1,    3.9,    3.5,    3.9,    2.9,    2.4,    2.0,    2.0,    0.7,    2.4,    3.7,    5.2,    4.7,    5.3,    5.0,    7.3,    6.1,    6.9,    8.6,   10.1,   11.1,   10.3,   10.4,   10.6,   10.4,   10.5,   10.4,   11.2,   12.1,   12.8,   14.9,   18.2,   19.2,   21.7,   22.6,   21.9,   24.4,   26.9,   27.7,   28.9,   33.2,   30.2,   32.2,   31.5,   32.2,   33.4,   33.8,   31.6,   33.4,   33.1,   34.2,   32.2,   31.9,   34.2,   33.2,   34.1,   36.2,   34.3,   36.8,   35.2,   33.8,   36.5,   37.5,   37.2,   36.1,   35.2,   33.2,   35.4,  999.0,  999.0,   32.7,   28.8,   25.4,   25.6,   23.5,   25.0,   23.4,   26.2,   29.1,   31.4,   27.4,   29.4,   30.1,  999.0,   23.8,   18.4,   16.7,   17.4,   15.4,   16.9,   12.5,    7.9,   11.5,   10.9,    8.1,    9.2,   10.5
1992/05/21 05:45,    7.1,    7.2,    7.0,    6.8,    7.2,    7.2,    7.3,    8.3,    9.3,    9.4,    8.7,    7.3,    7.8,    8.5,   10.3,   11.5,   14.2,   10.6,    9.8,    8.3,    5.2,    1.5,    5.0,    4.1,    4.1,    3.7,    3.2,    2.3,    3.0,    1.9,    2.4,    2.6,    3.4,    4.0,    4.2,    2.4,    4.8,    5.4,    6.9,    6.3,    7.5,    8.8,   10.4,   11.5,    9.8,    8.3,    8.3,    8.4,    9.4,   10.2,   10.0,   10.9,   12.7,   15.2,   19.1,   20.2,   22.0,   23.3,   23.4,   25.9,   27.5,   28.3,   30.8,   33.6,   29.7,   31.5,   31.2,   33.0,   33.9,   34.1,   31.0,   33.9,   33.3,   32.6,   32.1,   32.1,   35.4,   35.0,   37.1,   36.3,   36.8,   36.6,   36.1,   34.4,   36.9,   38.7,   37.5,   38.6,   34.6,   35.2,   37.1,   36.7,  999.0,   32.7,   31.5,   27.4,   27.1,   24.4,   24.5,   23.7,   25.7,   28.7,   31.2,   30.5,   27.2,  999.0,  999.0,  999.0,   17.0,   17.4,   18.7,   16.4,   17.6,   13.0,    8.1,   10.9,   10.8,    8.7,   10.0,   10.7
1992/05/21 05:55,    5.6,    6.2,    6.6,    6.5,    7.9,    6.0,    6.9,    7.7,    9.1,    9.4,    9.0,    8.1,    8.5,   10.5,   11.8,   13.6,   14.7,   10.2,    8.9,    7.9,    5.4,    1.2,    4.4,    4.5,    4.6,    4.1,    3.9,    3.3,    3.6,    1.8,    2.4,    2.9,    3.4,    4.4,    4.6,    3.8,    5.2,    5.9,    7.1,    6.3,    5.9,    8.1,    9.8,   10.7,    9.0,    7.3,    8.3,    7.9,    9.1,    9.9,   10.3,   11.5,   13.4,   16.6,   19.9,   20.6,   22.8,   24.2,   25.5,   25.7,   27.3,   28.8,   31.0,   34.2,   29.7,   31.8,   30.4,   33.0,   33.5,   31.9,   33.1,   33.5,   36.1,   34.5,   33.5,   32.7,   36.1,   33.8,   35.7,   37.7,  999.0,  999.0,   36.4,   36.6,   36.2,   40.0,   36.1,   36.9,   35.3,   34.2,   36.4,   36.1,  999.0,   32.9,   32.2,   28.1,   27.1,   25.3,   24.7,   25.0,   26.3,   29.0,   32.3,   32.5,  999.0,  999.0,   21.5,   22.5,  999.0,   16.9,   18.4,   17.6,   17.4,   14.3,    9.5,    9.3,   11.1,   10.0,    8.9,    9.6
1992/05/21 06:05,    6.1,    7.1,    7.3,    7.4,    6.5,    7.1,    7.1,    8.3,    9.5,   10.0,   10.3,    9.6,    8.5,   10.3,   11.8,   12.6,   13.9,   10.7,    9.3,    9.6,    6.3,    0.0,    4.8,    4.8,    4.5,    3.9,    2.5,    2.6,    3.5,    1.2,    2.0,    3.1,    3.4,    4.1,    4.6,    3.8,    4.5,    4.9,    5.4,    5.2,    6.8,    6.1,    8.5,    7.8,    5.3,    5.4,    6.5,    7.1,    7.9,    9.5,   10.4,   11.7,   12.9,   15.8,   19.0,   20.3,   22.9,   24.9,   26.4,   26.8,   27.1,   29.8,   33.0,   34.7,   31.2,   32.4,   31.4,   35.0,   34.3,   30.8,   30.5,   34.7,   34.8,  999.0,   31.9,   32.5,   34.6,   34.6,   36.7,  999.0,  999.0,  999.0,  999.0,  999.0,   38.1,   33.8,   35.6,   36.6,   30.5,   33.2,   34.7,   36.5,  999.0,   32.3,   29.6,   25.7,   26.4,   25.9,   23.2,   24.5,   26.2,   30.8,   32.0,   29.4,   28.2,  999.0,   22.8,   19.1,   15.9,   16.4,   17.8,   17.9,   17.5,   13.1,    7.5,    9.3,   12.1,    8.8,    9.3,   10.4
1992/05/21 06:15,    6.9,    6.7,    6.3,    7.1,    7.2,    6.8,    7.1,    6.9,    6.8,    9.7,   10.9,    9.9,    8.9,    9.7,   11.0,   12.7,   12.4,   10.5,    8.2,    8.1,    4.1,    3.9,    6.0,    5.8,    4.8,    4.1,    3.6,    2.4,    3.4,    3.5,    0.7,    2.3,    4.6,    5.2,    5.0,    3.7,    3.5,    2.9,    3.8,    4.6,    5.9,    6.7,    4.2,    5.1,    4.4,    5.2,    6.4,    6.3,    7.2,    9.8,   10.8,   11.5,   13.0,   15.9,   19.1,   22.1,   23.4,   25.8,   26.5,   26.0,   28.1,   31.5,   33.3,   33.5,   32.1,   35.3,   33.1,   35.1,   36.8,   31.9,   32.3,   35.0,   35.3,  999.0,   32.1,   31.1,   33.1,   34.9,   33.6,   36.6,  999.0,  999.0,   36.2,   35.3,   34.0,   36.0,   36.2,   37.1,   30.1,   33.7,   35.5,  999.0,  999.0,   30.5,   29.4,   26.2,   24.6,   25.4,   25.6,   23.7,   27.5,   29.8,   32.5,   30.4,   32.0,  999.0,  999.0,   20.5,   17.2,   16.0,   15.6,   15.4,   16.0,   12.6,    8.1,    7.4,   10.7,    8.2,    9.0,   10.3
1992/05/21 06:25,    7.2,    6.5,    6.3,    6.3,    7.0,    6.9,    6.8,    7.7,    8.5,   10.0,   10.7,    9.8,    8.5,   10.5,   12.9,   14.0,   11.1,    8.7,    8.4,    7.2,    0.6,    4.9,    6.2,    6.3,    5.2,    4.8,    3.5,    3.5,    3.5,    3.1,    1.5,    2.1,    4.1,    4.4,    5.0,    3.7,    3.4,    3.7,    4.3,    4.2,    6.3,    4.1,    1.6,    4.8,    5.6,    6.1,    7.2,    6.7,    8.2,    9.6,   10.6,   11.5,   12.5,   15.0,   18.3,   20.9,   22.7,   25.3,   26.7,   26.7,   28.8,   30.8,   32.2,   33.9,   31.5,   35.4,   33.0,   34.9,   36.2,   32.1,   33.2,   36.1,   35.3,   37.0,   33.6,   32.1,   34.2,   35.6,   35.1,   37.3,  999.0,   34.0,   32.9,   33.3,   35.1,   37.4,   34.5,   36.7,   30.5,   32.9,   35.3,   33.8,   30.7,   31.5,   27.3,   27.0,   24.9,   24.6,   23.7,   24.1,   27.6,   31.4,   34.6,   31.4,   33.0,   28.6,   23.9,   19.5,   17.1,   16.3,   17.0,   15.2,   15.5,   11.6,    7.8,    7.8,   10.8,   10.2,    8.8,   10.0
1992/05/21 06:35,    7.5,    6.9,    6.3,    6.3,    7.0,    6.8,    6.8,    7.2,    8.4,    8.9,    9.9,    9.2,    7.4,   10.5,   12.8,   14.1,  999.0,    7.6,    7.6,    5.6,    3.3,    4.4,    6.4,    6.3,    5.3,    4.4,    4.1,    3.7,    4.2,    3.6,    1.2,    2.5,    4.6,    5.1,    4.8,    4.5,    4.4,    4.4,    5.3,    4.1,    4.2,    2.8,    3.7,    5.3,    5.8,    7.2,    6.8,    6.4,    7.9,   10.1,   10.5,   10.9,   12.0,   15.1,   18.3,   19.9,   21.7,   24.6,   25.7,   25.8,   28.7,   30.8,   32.2,   31.9,   33.3,   33.6,   34.1,   36.0,   34.5,   31.4,   32.7,   36.3,   35.3,   36.9,   33.4,   30.3,   32.0,   35.1,   35.9,   35.3,  999.0,  999.0,   32.2,   35.0,   35.2,   36.8,   35.8,   35.4,   30.2,   32.5,   33.2,   35.6,   31.7,   31.8,   27.7,   27.6,   25.6,   24.4,   23.2,   26.3,  999.0,   32.1,  999.0,   29.6,   32.4,  999.0,   24.7,   17.7,   17.1,   16.9,   18.0,   16.1,   14.9,   10.9,    8.6,    9.3,   11.5,    9.5,    8.3,    9.7
1992/05/21 06:45,    7.3,    6.9,    6.2,    6.7,    7.4,    7.2,    7.8,    8.7,    8.7,    9.6,    9.6,    9.1,    7.7,    8.9,   11.1,   11.6,    9.5,    7.4,    7.4,    7.1,    4.5,    5.7,    6.8,    5.9,    5.2,    4.3,    2.9,    2.6,    3.0,    3.9,    2.9,    3.4,    4.1,    4.5,    3.3,    4.0,    4.7,    4.3,    3.7,    3.0,    2.6,    2.1,    4.7,    5.6,    6.8,    7.8,    7.2,    7.0,    7.5,    9.6,   10.6,   11.2,   12.5,   14.4,   17.2,   19.4,   22.3,   25.6,   24.8,   26.7,   26.1,   29.1,   33.0,   30.7,   33.2,   34.0,   34.6,   36.5,   32.5,   34.3,   34.2,   37.5,   35.6,   35.1,   34.0,   32.0,   32.9,   34.8,   34.7,   34.3,   36.2,  999.0,   33.1,   35.0,   34.8,   35.9,   31.7,   34.4,   30.4,   32.5,   31.6,   34.4,   32.6,   31.7,   30.1,   25.7,   25.7,   24.4,   26.2,   23.6,   25.6,   29.2,   33.4,   29.7,   32.4,  999.0,   21.5,   18.1,   16.9,   17.2,   18.8,   16.4,   14.9,    8.7,    7.4,    8.5,   12.0,   12.3,    9.5,    9.6
1992/05/21 06:55,    7.3,    7.2,    7.0,    8.1,    7.7,    7.1,    7.3,    8.1,    8.6,    9.1,   10.5,    9.1,    6.8,    7.0,    7.6,    7.8,    8.7,    6.8,    7.2,    6.0,    4.8,    6.4,    6.5,    5.7,    5.6,    5.1,    4.9,    4.2,    4.4,    4.9,    4.8,    4.3,    4.8,    4.3,    4.5,    4.6,    4.9,    4.0,    3.5,    3.4,    2.3,    2.1,    3.9,    5.8,    5.6,    6.7,    4.8,    6.3,    7.7,    9.8,   10.7,   11.7,   13.2,   15.5,   16.9,   19.2,   21.7,   25.5,   24.2,   26.4,   25.6,   28.7,   31.2,   30.6,   32.5,   32.1,   34.7,   36.8,   32.2,   31.2,   34.2,   36.9,   37.2,   35.2,   35.6,   32.1,   35.0,   36.3,  999.0,  999.0,  999.0,  999.0,   31.8,   35.5,   36.2,   37.2,   38.5,   35.2,  999.0,   30.1,   34.9,   34.6,   36.0,   31.4,   30.7,  999.0,   25.7,   24.2,   23.5,   24.0,  999.0,   29.2,   29.7,   28.4,   31.1,   25.6,   16.1,   17.8,   16.6,   17.2,   17.6,   16.2,   15.2,   10.6,    6.8,    8.7,   11.9,   11.2,  999.0,    9.3
1992/05/21 07:05,    7.8,    7.4,    8.0,    8.1,    7.8,    7.5,    7.6,    7.2,    8.6,    8.7,    9.0,    9.2,    7.7,    6.6,    6.9,    7.9,    6.9,    6.6,    7.5,    6.6,    5.8,    7.1,    6.1,    5.8,    5.9,    5.5,    5.7,    5.0,    6.0,    5.6,    4.6,    4.9,    5.3,    5.3,    4.2,    4.4,    5.3,    3.8,    4.0,    3.5,    2.0,    3.3,    4.8,    5.8,    5.5,    6.2,    6.2,    6.3,    7.8,   10.3,   11.7,   11.5,   13.7,   15.9,   17.6,   20.2,   23.3,   26.3,   26.5,   26.7,   27.4,   30.0,   32.7,   31.1,   33.9,   32.8,   35.7,   36.4,   32.1,   32.5,   35.4,   37.4,   37.6,   37.4,   35.7,   33.4,   34.7,   36.7,   35.3,   37.6,   36.4,   34.9,   36.6,   33.2,   36.9,   38.6,   32.6,   34.9,   30.2,   31.2,   34.6,   37.2,   34.9,   32.0,   30.0,   28.8,   24.8,   22.3,   23.1,   24.5,   25.9,   30.3,  999.0,   32.3,   32.6,   26.4,   17.3,   18.7,   17.4,   17.4,   15.1,   15.3,   13.2,    8.9,  999.0,    9.3,   12.3,   11.3,    8.6,    9.1
1992/05/21 07:15,    6.9,    7.0,    7.7,    8.1,    8.5,    8.4,    8.7,    8.7,    8.8,    8.9,    9.3,    9.0,    7.9,    4.9,    5.5,    6.8,    7.0,    6.6,    7.6,    6.6,    5.6,    6.7,    5.9,    5.3,    6.0,    5.5,    6.3,  999.0,    6.4,    5.9,    5.5,    6.0,    5.9,    4.6,    4.8,    5.6,    5.0,    4.4,    4.0,    3.4,    2.6,    2.8,    4.9,    4.6,    5.2,    5.7,    5.6,    6.5,    7.4,    9.6,   12.9,   11.5,   12.8,   15.6,   18.0,   19.8,   22.1,   26.2,   26.8,   26.8,   28.2,   29.2,   32.7,   29.4,   33.0,   32.6,   36.3,   37.2,   34.3,   32.7,   36.5,   36.7,   39.8,   36.5,   35.7,   33.8,   37.0,   36.9,   36.7,   37.8,   36.1,   34.8,   36.6,   35.7,   36.7,   38.5,   33.1,   34.8,   31.4,   31.4,   32.6,   33.6,   33.1,   32.1,   30.0,   25.5,   25.7,   27.6,   23.5,   25.3,   29.6,   31.3,  999.0,   34.0,   31.2,   27.0,   19.6,   19.2,   18.1,   18.1,   15.3,   14.9,   13.7,    9.9,    7.5,    7.1,   11.5,  999.0,  999.0,    9.1
1992/05/21 07:25,    7.7,    7.9,    8.7,    8.4,    8.5,    8.3,    9.0,    9.0,    9.3,    8.7,    9.6,    9.4,    7.8,  999.0,    3.8,    5.3,    6.5,    6.8,    8.7,    5.0,    6.8,    6.3,    5.2,    5.1,    5.4,    6.2,    6.3,    6.3,    5.7,    6.4,    6.2,    5.5,    6.0,    5.5,    6.0,    6.5,    5.8,    4.5,    2.7,    3.5,    3.6,    5.2,    5.3,    5.7,    3.7,    5.5,    7.3,    8.4,    8.4,   10.6,   11.3,   11.6,   13.2,   15.7,   18.6,   20.1,   23.3,   26.4,   26.8,   26.3,   29.2,   30.0,   34.2,   32.6,   34.4,   33.8,   35.6,  999.0,   34.0,   34.1,   37.8,   39.2,   40.5,   37.8,   34.9,   34.4,   38.8,  999.0,   36.1,   36.8,   37.4,   37.1,   38.0,   37.2,   41.0,   38.6,   35.6,   36.1,   35.7,   33.9,  999.0,  999.0,   31.9,   36.2,  999.0,   26.8,   27.0,   26.3,   24.4,   -5.4,   28.7,  999.0,  999.0,   33.7,   32.2,   24.9,   24.2,   18.0,   19.3,  999.0,   15.4,   12.7,   12.2,  999.0,    7.3,    6.9,   11.8,    5.8,    6.7,  999.0
1992/05/21 07:35,    7.9,    8.0,    8.2,    8.4,    8.3,    8.2,    8.3,    8.5,    9.4,    9.0,    8.6,    8.5,    8.4,    4.1,    4.6,    5.9,    6.7,    8.5,    9.3,    7.5,    7.6,    5.9,    5.1,    5.5,    6.2,    6.1,    6.1,    5.2,    5.0,    4.4,    5.7,    5.7,    5.6,    5.6,    6.1,    6.5,    4.8,    4.6,    4.2,    3.6,    4.6,    4.5,    3.5,    3.7,    4.6,    5.8,    7.2,    7.0,    8.3,   10.1,   11.8,   11.5,   12.7,   15.3,   17.7,   20.2,   23.2,   26.6,   27.7,   27.7,   28.2,   29.5,   33.0,   31.8,   32.7,   34.0,   36.6,   37.0,   33.9,   35.1,   39.2,   39.7,   40.7,   36.6,   34.2,   36.5,   40.0,  999.0,   38.0,   37.8,   36.8,  999.0,   36.2,   39.7,   39.3,   40.6,   34.8,   35.7,   34.8,   33.3,  999.0,   35.4,   31.2,  999.0,   28.8,   27.6,   27.5,   24.5,   23.6,   25.4,   26.7,   29.3,   33.8,   32.2,  999.0,   23.0,   23.8,   17.2,   18.3,   18.6,   13.7,   11.7,   11.0,   10.3,    5.6,    8.0,   12.0,   13.0,    8.1,  999.0
1992/05/21 07:45,    7.4,    8.0,    7.6,    7.5,    7.6,    8.6,    9.0,    9.0,    9.3,    9.3,    9.9,    9.9,    8.1,    7.4,    6.3,    7.5,    7.1,    7.9,    8.5,    7.2,    6.8,    6.0,    6.8,    6.2,    6.3,    6.4,    5.2,    6.9,    5.2,    6.6,    6.7,    6.9,    6.5,    5.3,    5.7,    6.9,    4.7,    5.1,    3.9,    3.8,    3.7,    4.0,    1.8,    4.0,    4.1,    5.2,    7.3,    7.6,    7.7,   10.5,   10.9,    9.8,   12.0,   14.9,   17.9,   21.0,   22.9,   25.4,   27.1,   28.9,   26.5,   29.5,   32.0,   33.2,   33.0,   35.1,   35.1,   35.9,   35.4,   36.0,   37.7,   39.5,   41.0,   38.4,   34.8,   39.3,  999.0,   37.7,  999.0,   37.0,   39.4,  999.0,   37.3,   38.1,   38.2,   40.1,   32.4,   34.9,   34.9,   31.4,  999.0,  999.0,   32.0,   32.2,   28.8,   29.7,   26.1,   24.6,  999.0,   25.9,   26.3,   27.3,   33.7,  999.0,  999.0,  999.0,   23.4,   16.2,   18.3,   18.1,  999.0,   12.1,   12.2,  999.0,    5.9,    8.6,  999.0,  999.0,    7.9,  999.0
1992/05/21 07:55,    7.8,    7.2,    7.1,    6.8,    7.0,    8.3,    8.7,    8.2,    7.8,    8.9,   10.1,   10.4,   10.2,    7.0,    5.6,    7.3,    6.6,    5.4,    6.0,    5.2,    5.9,    5.5,    5.5,    6.0,    6.1,    5.0,    3.7,    6.1,    4.4,    6.1,    6.2,    6.3,    6.6,    5.7,    5.9,    6.3,    6.2,    4.9,    3.6,    3.1,    3.7,    1.9,    2.3,    3.3,    4.6,    4.7,    6.9,    7.9,    9.1,   10.3,   11.4,    8.2,   11.8,   14.1,   18.4,   21.2,   22.0,   24.0,   28.0,   28.6,   28.3,   28.9,   33.1,   31.0,   34.3,   36.1,   35.0,   35.8,   35.1,   36.3,   40.6,   39.7,   39.3,   37.6,   36.7,   40.4,   38.9,   37.4,   42.6,   38.4,   42.5,  999.0,   38.2,   39.3,   42.3,   43.1,  999.0,   34.1,   34.3,   32.4,   35.6,  999.0,   34.6,   34.0,   28.4,   29.5,   28.6,   24.9,   21.7,   24.7,   27.7,   26.5,   31.8,  999.0,   31.6,  999.0,   22.7,   17.3,   17.9,   17.8,   14.6,   11.7,   12.2,  999.0,    4.6,    7.4,   10.6,   12.5,    7.6,    8.5
1992/05/21 08:05,    7.5,    6.9,    6.6,    6.1,    7.6,    8.4,    8.4,    8.6,    7.8,    9.0,    9.7,   11.6,   10.6,    9.9,   10.1,    8.3,    6.9,    6.6,    6.1,    5.7,    5.8,    5.5,    5.4,    5.4,    5.1,    3.9,    5.2,    5.2,    5.2,    5.9,    6.0,    6.2,    6.2,    5.9,    6.2,    6.3,    6.2,    5.4,    4.0,    3.1,    2.3,    3.6,    3.1,    3.1,    4.9,    5.4,    6.9,    7.8,    8.4,    9.5,    9.9,    8.1,   10.7,   15.5,   18.5,   20.5,   22.1,   25.5,   27.9,   28.6,   31.5,   28.4,   33.2,   34.0,   32.4,   36.4,   35.9,   34.2,   34.5,   37.3,   39.3,   41.6,   37.5,   39.3,   36.1,   38.0,   39.6,   36.7,   38.8,   39.5,   40.3,   33.7,   37.6,   40.6,   39.5,   41.8,   37.6,  999.0,  999.0,  999.0,  999.0,   34.0,   33.4,   31.2,   34.0,   29.1,   27.7,   26.8,   26.7,   25.4,   27.3,  999.0,   32.3,  999.0,  999.0,  999.0,   23.0,   18.1,  999.0,   17.1,   12.6,   10.4,   10.7,  999.0,    2.4,    7.8,   11.8,   14.2,    8.9,  999.0
1992/05/21 08:15,    7.4,    6.7,    5.8,    6.3,    7.0,    8.1,    8.8,    8.8,    8.8,    8.6,    9.3,   11.4,   10.8,   10.3,   10.5,   10.0,    7.7,    7.2,    6.1,    5.6,    5.3,    4.9,    5.7,    5.7,    4.9,    6.2,    7.0,    3.9,    4.9,    6.5,    7.2,    7.3,    6.4,    6.4,    6.1,    6.5,    6.3,    5.2,    4.2,    3.7,    0.5,    2.2,    1.9,    3.2,    5.1,    6.3,    7.2,    7.5,    7.9,    9.0,    9.5,    9.6,   12.7,   14.8,   18.5,   20.0,   21.5,   23.9,   25.3,   28.6,   29.9,   29.0,   33.5,   32.2,   34.3,   35.6,   35.5,   34.1,   34.3,   38.1,   38.7,   39.4,   37.4,   37.3,   35.9,   37.5,   39.5,   39.0,   38.1,   39.9,  999.0,   35.0,   37.9,   40.0,   39.4,  999.0,   35.6,   37.1,   34.6,  999.0,   31.4,   33.6,   33.1,   30.3,   30.8,   29.0,   28.4,   20.7,   23.0,   22.2,   24.5,  999.0,  999.0,   27.8,  999.0,  999.0,  999.0,   16.5,   17.4,   17.0,   15.1,   13.0,   10.9,   13.9,  999.0,    8.2,   12.0,   13.0,  999.0,  999.0
1992/05/21 08:25,    7.2,    7.1,    6.7,    5.7,    5.8,    7.2,    8.0,    8.2,    8.6,    7.8,    8.8,   10.7,   10.7,   10.7,   10.4,   10.0,    7.0,    6.8,    5.8,    5.4,    5.2,    5.5,    6.3,    4.6,    2.7,    6.7,    7.3,    3.6,    6.5,    4.9,    7.1,    6.5,    3.3,    6.2,    5.8,    6.2,    6.8,    6.3,    5.7,    5.0,    2.2,    3.4,    3.7,    4.1,    6.0,    7.5,    8.5,    8.3,   10.3,   10.6,    9.7,   10.4,   13.6,   17.0,   20.9,   22.6,   22.2,   25.6,   28.6,   30.7,   29.8,   32.2,   35.4,   33.5,   36.3,   35.1,   36.8,   36.3,   37.2,   39.2,   39.6,   39.8,   34.7,   37.5,   35.9,   37.9,   38.2,   39.5,   36.3,   36.0,   35.8,   36.4,   38.9,   38.9,   39.4,   40.1,  999.0,  999.0,  999.0,  999.0,   33.5,  999.0,  999.0,   29.1,   29.5,   29.9,   27.6,   23.3,   25.4,   24.4,   24.5,   27.7,   30.9,   27.9,   28.3,  999.0,  999.0,   16.0,   16.9,   17.7,   16.2,   13.5,   11.8,  999.0,    5.2,    7.9,   11.4,   14.5,    9.5,  999.0
1992/05/21 08:35,    6.8,    7.0,    6.7,    5.6,    6.7,    7.6,    7.9,    8.6,    8.2,    8.4,    9.0,   10.1,   10.3,    9.3,    9.8,   10.4,    6.9,    6.8,    6.5,    6.0,    5.6,    5.0,    6.6,    5.1,    3.9,    2.3,    7.5,    7.1,    4.4,    3.3,    7.1,    6.6,    5.2,    6.9,    6.4,    5.9,    5.8,    5.7,    5.4,    4.9,    3.5,    3.0,    4.8,    6.1,    6.0,    8.8,    9.6,    9.5,   11.2,   11.3,   10.4,   12.5,   15.3,   19.0,   21.8,   22.0,   22.0,   26.2,   29.7,   31.4,   30.2,   32.5,   34.5,   32.8,   35.6,   37.3,   35.7,   35.6,   39.7,   40.6,   41.4,   39.2,   39.0,   36.5,   36.7,   37.1,   39.5,   38.5,   40.6,   36.4,   35.5,   38.7,   37.9,   39.2,   39.9,   41.1,   36.8,   35.1,   32.4,  999.0,   33.5,   31.1,   28.6,   28.7,   30.8,   28.6,   25.2,   27.8,   24.9,   23.9,   25.9,   27.1,   29.5,  999.0,   26.4,   28.8,  999.0,   17.8,   17.9,   18.2,   14.6,   12.9,   13.1,   11.2,  999.0,    7.6,   10.1,   13.9,   14.0,    9.8
1992/05/21 08:45,    6.9,    6.1,    5.7,    6.5,    8.0,    8.7,    9.3,    8.9,    7.8,    8.6,    8.4,    8.5,    8.2,    7.9,    7.8,    7.6,    6.2,    6.2,    6.4,    4.9,    5.2,    5.9,    6.4,    6.8,    3.7,    2.6,    6.1,    7.6,    6.1,    7.5,    6.1,    7.1,    7.2,    6.4,    7.2,    6.2,    5.7,    6.1,    6.1,    4.8,    3.7,    4.2,    5.3,    6.9,    6.9,    8.5,    8.3,    9.1,   10.2,   10.1,    8.6,   11.0,   14.1,   18.0,   20.5,   22.6,   20.9,   24.7,   27.7,   30.4,   30.3,   31.2,   33.6,   32.8,   36.1,   36.7,   35.2,   34.4,   37.7,   41.5,   41.8,   42.2,   38.7,   35.3,   36.4,   39.3,   41.1,  999.0,   41.1,   36.9,   37.5,   39.8,   40.5,   40.2,   42.2,   41.8,  999.0,   35.8,   39.8,   38.2,  999.0,   30.0,   31.2,   30.3,   31.1,   30.9,   28.9,  999.0,   25.0,   24.1,   25.7,   27.6,   29.0,  999.0,   26.8,   27.9,   26.3,   17.0,   18.0,   17.8,   18.1,   11.6,   11.5,    9.4,  999.0,    8.3,   10.4,   14.5,  999.0,  999.0
1992/05/21 08:55,    6.5,    6.6,    6.1,    5.9,    6.8,    8.2,    9.6,    9.7,    7.2,    7.6,    8.3,    8.9,    9.1,    8.8,    9.2,    7.7,    7.0,    6.5,    7.3,    5.9,    5.7,    6.2,    6.2,    7.4,    7.1,    2.7,    3.4,    7.7,    6.3,    8.1,    7.6,    8.0,    7.9,    6.9,    7.8,    7.2,    6.3,    6.6,    5.8,    4.8,    2.4,    3.5,    5.3,    6.5,    8.1,    8.4,    8.9,    9.6,   10.7,   10.4,  999.0,   11.3,   13.9,   17.3,   19.9,   21.4,   21.8,   25.4,   28.7,   30.5,   29.7,   34.0,   35.4,   33.6,   34.7,   35.6,   37.7,   34.1,   38.4,   39.4,   40.9,   40.3,   38.5,   37.3,   36.1,   38.3,   40.4,   38.0,   38.2,   38.5,   38.1,   36.8,   37.3,   40.1,   40.3,   40.2,  999.0,   34.4,   34.8,   36.8,   33.8,   31.8,   31.2,   29.6,   31.2,   32.0,  999.0,   31.0,   28.4,   26.4,   26.5,   29.0,  999.0,  999.0,  999.0,   28.8,  999.0,   18.2,   18.7,   15.8,   17.7,   10.7,   10.3,    9.0,  999.0,  999.0,   10.3,  999.0,  999.0,  999.0
1992/05/21 09:05,    7.4,    7.1,    6.7,    6.7,    7.0,    8.1,    9.2,   10.4,    7.8,    8.0,    8.6,    9.2,    8.8,    8.4,    8.8,    7.7,    6.2,    6.1,    6.5,    5.4,    5.5,    5.1,    4.6,    5.7,    6.3,    4.1,    5.1,    0.4,    8.1,    7.3,    8.1,    8.1,    7.6,    7.5,    6.9,    6.7,    6.2,    6.8,    5.4,    4.2,    0.9,    3.0,    4.5,    6.2,    7.6,    8.1,    8.8,    9.2,   11.1,   11.9,   11.6,   11.8,   14.6,   17.1,   20.2,   21.7,   20.7,   25.8,   30.0,   31.0,   31.0,   34.1,   34.8,   34.8,   36.2,   36.3,   37.9,   34.1,   38.4,   39.6,   39.8,   40.3,   39.5,   36.3,   35.5,   36.5,  999.0,   39.2,   36.2,  999.0,   36.1,   42.0,   38.2,   38.5,   40.6,   41.4,   40.6,   32.8,   36.3,  999.0,   34.6,   30.8,   32.8,   29.2,   31.2,   30.2,   29.0,   30.4,  999.0,  999.0,  999.0,  999.0,  999.0,  999.0,   28.6,   29.1,  999.0,   17.1,   18.7,   17.3,   12.6,   10.5,   10.0,    7.9,  999.0,    6.5,   11.0,   14.9,   15.6,   11.9
1992/05/21 09:15,    7.5,    7.5,    7.5,    6.9,    7.7,    9.0,    9.9,    9.1,    8.4,    9.1,    9.5,    9.5,    8.6,    7.9,    8.2,    6.0,    6.1,    5.9,    6.5,    5.7,    5.0,    3.2,    2.3,    4.4,    6.0,    2.9,    1.2,    7.8,    8.5,    6.7,    7.7,    8.4,    7.8,    7.9,    7.2,    7.4,    7.1,    7.0,    5.7,    5.0,    3.0,    4.5,    6.7,    8.0,    8.7,    9.2,    9.9,   11.1,   12.3,   12.3,    7.0,   14.0,   16.9,   18.7,   20.7,   22.6,   20.4,   25.3,   29.1,   30.4,   31.1,   34.0,   34.6,   33.7,   33.8,   34.8,   36.4,   35.8,   39.1,   39.2,   38.5,   39.2,   36.8,   37.6,   34.0,   33.6,   40.4,   38.9,   37.9,   37.3,   35.3,   36.1,  999.0,   38.1,   40.5,   39.3,   40.5,   34.5,  999.0,   34.1,   34.3,   29.9,   30.9,   30.0,   31.4,   28.8,  999.0,   29.9,   26.5,   27.0,   27.3,   27.2,   31.0,  999.0,   27.4,   27.1,   24.7,   16.6,   17.4,   17.6,   16.6,    9.9,    9.3,    8.2,    6.9,  999.0,   10.3,   13.9,   14.1,    9.9
1992/05/21 09:25,    7.5,    7.5,    7.0,    6.5,    8.0,    8.7,    9.7,    8.6,    8.1,    8.5,    9.6,    9.6,    8.9,    7.7,    8.4,  999.0,    5.6,    5.8,    6.8,    6.0,    6.4,    4.2,    3.2,    5.2,    7.1,    4.4,    4.7,    7.5,    9.0,    6.3,    8.6,    9.2,    8.1,    8.5,    8.4,    8.1,    7.7,    7.0,    5.8,    4.1,    5.2,    6.2,    7.9,    8.9,    9.0,    9.5,   10.3,   11.8,   12.9,   13.5,    6.0,  999.0,   16.3,   17.8,   20.2,   21.2,   19.6,   25.2,   28.0,   29.8,   31.5,   32.7,   34.8,   33.3,   33.1,   35.6,   37.3,   34.9,   38.4,   38.9,   38.5,   39.8,   37.7,   33.6,   33.2,   38.0,   41.7,   40.7,   40.4,   38.7,   37.7,   35.6,   38.6,   39.2,   40.8,   40.2,   40.8,   35.3,   37.5,   36.6,   34.5,   29.5,  999.0,   28.9,   32.4,   31.9,   33.0,   29.7,   25.4,   27.4,   26.4,   26.1,   27.4,   28.7,   28.7,   27.0,  999.0,  999.0,   17.0,   17.9,   19.3,   13.0,    9.0,    8.1,  999.0,    6.7,   11.1,   12.9,   13.3,   13.6
1992/05/21 09:35,    7.4,    7.2,    7.0,    7.2,    7.8,    8.9,    9.8,    9.1,    8.6,    9.5,    9.9,   10.2,    9.8,    7.7,    8.7,    6.8,    5.9,    6.0,    6.7,    5.8,    5.9,    5.5,    6.9,    6.4,    7.9,    0.6,    5.1,    4.6,    9.5,    9.8,    9.2,    9.7,    9.0,    9.8,    9.5,    9.4,    8.2,    7.0,    6.2,    5.4,    7.1,    9.0,    9.8,    9.6,    9.2,   10.4,   10.7,   12.5,   13.4,   13.3,   14.4,   14.6,   16.6,   18.1,   21.0,   18.5,   20.2,   25.3,   27.6,   30.3,   31.4,   33.1,   32.5,   33.7,   32.3,   34.7,   37.4,   36.6,   36.8,   38.5,   40.0,   41.2,   38.4,   36.8,   34.2,   35.7,   38.8,   38.4,   37.6,   37.2,   35.6,   35.1,   35.4,   40.0,   36.8,   39.5,   37.8,   36.8,   35.8,   36.1,   37.6,  999.0,   29.5,   28.4,   31.8,   32.5,   35.0,   31.6,   25.5,   27.3,   27.2,   25.9,  999.0,   30.1,   30.2,   27.5,   24.3,   17.9,   17.9,   18.7,   18.4,   11.4,   11.8,    7.9,    7.6,  999.0,   11.3,  999.0,  999.0,   10.9
1992/05/21 09:45,    7.2,    7.1,    6.8,    7.3,    8.2,    9.2,    9.7,    9.6,    9.6,   10.2,   10.5,   11.1,    9.6,    8.3,    8.6,    5.5,    5.6,    6.4,    5.7,    5.9,    5.9,    6.4,    6.8,    6.9,    8.2,    1.2,    5.2,    7.8,    9.8,    9.9,    9.1,    9.6,    9.6,   10.0,    9.5,    8.6,    6.9,    5.6,    4.8,    5.7,    7.3,    8.7,    9.3,    7.5,    9.6,   10.0,   11.2,   12.6,   14.2,   15.1,   14.8,   15.9,   17.3,   18.0,   20.9,   19.0,   20.4,   25.4,   28.5,   31.0,   32.8,   34.1,   34.0,   34.9,   33.5,   34.5,   38.1,   35.6,   38.0,   39.9,   40.5,   40.9,   40.1,   35.9,   35.0,  999.0,   39.2,  999.0,   40.0,   35.0,   34.3,  999.0,  999.0,  999.0,   35.5,   40.8,  999.0,  999.0,   37.0,   30.8,  999.0,  999.0,  999.0,   28.1,   31.3,   30.7,   34.1,  999.0,  999.0,   26.3,   26.8,   24.0,   27.0,  999.0,   28.4,  999.0,   21.3,   17.4,   18.6,   18.7,   18.9,   13.4,   11.4,    9.3,  999.0,    8.3,   19.9,  999.0,   14.8,   12.2
1992/05/21 09:55,    7.9,    7.4,    6.8,    7.4,    8.5,    9.3,   10.3,   10.9,   10.9,   11.3,   11.8,   11.2,    9.9,    8.3,    8.3,    6.2,    6.5,    7.1,    6.2,    5.3,    7.3,    3.9,    6.8,    6.3,    6.2,    1.9,    6.3,    7.0,    8.8,    9.3,    9.7,   10.0,    9.9,    9.8,    9.9,    9.3,    6.4,    2.5,    5.2,    5.6,    7.2,    7.9,    8.9,    8.7,    7.9,    9.5,   10.1,   11.8,   14.2,   15.2,   15.8,   16.7,   16.7,   18.3,   21.1,   19.1,   22.4,   26.2,   29.2,   31.3,   33.5,   34.6,   32.5,   34.7,   33.1,   34.7,   35.9,   35.2,   40.6,   39.8,   41.6,   40.6,   37.9,   33.6,   34.5,   33.5,   37.1,   38.7,   40.3,  999.0,   34.5,  999.0,   34.2,  999.0,   36.8,   37.8,   36.7,   35.6,   37.0,   33.3,   34.3,   32.2,   28.3,   28.6,   31.3,   30.9,   33.5,  999.0,  999.0,   25.5,   26.0,   22.8,   24.1,  999.0,   27.1,   27.4,   23.2,  999.0,   17.9,   19.9,   19.3,   13.6,   10.4,  999.0,  999.0,  999.0,  999.0,  999.0,   16.0,  999.0
1992/05/21 10:05,    7.2,    6.2,    5.9,    6.5,    7.1,    8.3,    9.3,    9.7,   10.2,   10.7,   11.2,   10.9,   10.8,    9.5,    9.0,    6.3,    6.9,    6.8,    6.5,    4.0,    7.2,    3.8,    5.9,    6.5,    3.5,    5.8,    6.9,    5.1,    7.5,    8.6,    8.1,    8.6,    8.2,    8.3,    7.8,    7.5,    6.7,    5.8,    5.9,    6.7,    8.8,    9.4,    8.8,    8.6,    8.8,   10.6,   11.4,   13.5,   15.5,   16.2,   16.3,   17.5,   16.9,   18.9,   21.1,   20.3,   22.8,   26.4,   30.5,   31.8,   34.6,   34.5,   34.1,   34.6,   32.6,   33.7,   36.3,   35.4,   38.8,   39.5,   41.5,   41.3,   38.5,   38.2,   32.8,   33.4,   37.0,   39.2,   39.2,   38.1,  999.0,  999.0,   36.3,   37.0,  999.0,   37.5,  999.0,  999.0,  999.0,   37.6,   34.8,  999.0,   30.7,   29.9,   32.0,   33.1,   33.3,   30.8,   27.5,   27.7,   29.1,   22.3,  999.0,  999.0,  999.0,  999.0,   22.0,   20.8,  999.0,   20.0,   20.6,   17.8,  999.0,  999.0,  999.0,  999.0,  999.0,   13.8,  999.0,  999.0
1992/05/21 10:15,    7.1,    6.7,    6.0,    6.2,    7.4,    8.1,    8.8,    9.9,   10.6,   10.8,   11.7,   12.9,   12.9,   11.4,    9.2,    6.9,    7.5,    7.2,    6.7,    6.1,    6.7,    2.5,    6.2,    5.1,    5.2,    4.9,    7.1,    8.4,    8.9,    9.4,    8.7,    9.7,    9.3,    9.1,    8.5,    8.7,    7.4,    6.4,    6.0,    6.7,    8.1,    8.3,    7.4,    7.3,    8.9,   10.2,   11.3,   13.3,   14.2,   16.1,   15.9,   15.8,   16.5,   18.9,   20.7,   20.1,   22.8,   26.5,   30.0,   31.4,   34.4,   35.4,   34.2,   33.6,   32.9,   34.1,   33.9,   36.1,   37.2,   39.6,   41.8,   43.7,  999.0,   36.1,   32.1,   36.2,   38.4,   39.3,  999.0,  999.0,  999.0,   34.0,   38.8,  999.0,   39.0,   38.7,   38.3,   37.5,   35.2,   36.3,  999.0,  999.0,  999.0,   28.0,   31.2,   33.2,   33.3,  999.0,  999.0,   26.9,   28.6,  999.0,  999.0,  999.0,   25.9,   23.8,   23.0,   19.0,  999.0,   18.8,   17.3,   14.6,   12.8,  999.0,  999.0,  999.0,   11.5,  999.0,  999.0,   14.0
1992/05/21 10:25,    7.3,    6.4,    6.3,    7.2,    7.9,    8.8,  999.0,    9.9,   10.7,   10.9,   11.9,   13.1,   13.5,   12.0,   11.2,    7.2,    7.5,    7.9,    8.1,    7.2,    7.5,    3.5,    4.8,    7.6,    7.7,    6.6,    8.3,    9.4,    8.8,    8.6,    9.6,    9.8,    8.5,    9.5,    9.0,    8.9,    7.2,    6.4,    6.6,    6.7,    7.4,    7.4,    6.2,    6.7,    7.7,    9.9,   11.3,   13.0,   15.1,   15.0,   15.2,   14.8,   15.9,   17.1,   19.8,   18.9,   20.9,   24.6,   28.4,   30.7,   33.2,   32.6,   34.7,   33.0,   31.3,   35.0,   35.7,   36.0,   37.7,   38.5,   40.7,   44.2,   35.3,   34.5,   36.2,   39.0,   37.2,   41.3,   37.8,   37.7,   39.1,   37.1,   39.2,   39.4,   38.8,   38.6,   38.7,   36.9,   38.1,   38.4,   35.9,   33.0,   28.4,   30.1,   32.0,   33.9,   36.9,  999.0,  999.0,   28.4,  999.0,  999.0,   27.6,  999.0,   27.1,   21.6,   23.2,  999.0,  999.0,   19.2,   18.7,   12.6,    9.2,    7.9,  999.0,  999.0,  999.0,   14.8,   14.9,  999.0
1992/05/21 10:35,    8.0,    8.1,    7.0,    7.5,    8.4,    9.5,    9.4,   10.0,   10.3,   11.0,   12.0,   11.9,   12.6,   10.7,   10.6,    7.4,    7.2,    7.6,    7.1,    8.2,    7.2,    5.1,    6.5,    6.5,    6.4,    7.9,    8.3,    9.6,    4.1,    8.9,    9.1,    8.7,    8.2,    7.6,    8.0,    8.1,    7.4,    6.1,    6.0,    6.7,    7.3,    7.4,    7.0,    7.6,    9.3,   11.4,   12.4,   14.3,   15.5,   16.0,   16.7,   17.2,   16.2,   18.1,   19.6,   19.7,   22.0,   25.6,   29.9,   32.4,   35.4,   35.6,   36.3,   33.6,   33.6,   35.0,   36.8,   37.5,   38.9,   39.9,   41.8,   42.9,   40.1,   33.7,   38.3,   39.2,   40.6,   40.1,   35.9,   38.9,   41.0,   42.4,   36.6,   40.1,   39.4,   37.2,   38.5,   37.5,   39.2,   38.9,   34.3,   34.8,  999.0,   28.7,   31.4,   27.6,   30.9,  999.0,   30.0,   32.0,  999.0,   25.8,  999.0,  999.0,  999.0,  999.0,   23.9,   20.8,  999.0,   17.5,   19.2,   12.8,   10.3,    7.4,  999.0,  999.0,  999.0,  999.0,  999.0,  999.0
1992/05/21 10:45,    7.7,    8.2,    7.7,    8.1,    8.9,    8.4,   10.2,   10.6,   10.9,   11.7,   12.6,   13.2,   13.4,   10.0,    9.1,    8.0,    8.0,    7.3,    7.2,    8.1,    9.2,    8.5,    7.3,    7.9,    8.2,    8.4,    9.3,    9.7,    5.8,    9.6,   10.4,    8.3,   10.0,   10.9,   10.5,   10.8,   10.3,    9.4,    7.6,    8.4,    8.7,    8.8,    7.0,    8.6,   10.2,   11.6,   13.1,   14.3,   15.7,   15.4,   16.7,   16.1,   15.1,   16.6,   18.1,   19.3,   21.0,   25.0,   29.5,   31.6,   34.3,   37.4,   34.5,   35.1,   34.9,   35.9,   36.1,   38.2,   39.3,   40.2,   41.0,   41.8,   37.8,   36.9,   38.5,   41.0,   39.9,   40.1,   39.6,   38.0,   40.7,   40.6,   40.8,   36.6,   39.9,   39.2,   40.1,   37.6,   39.9,   40.0,   36.4,   35.4,   35.5,  999.0,   31.2,   34.2,   33.9,   36.7,   33.5,   32.8,  999.0,   24.6,   26.0,   27.1,   25.7,   23.8,   22.1,   16.9,   15.6,   17.1,   17.0,  999.0,    9.9,    6.9,    5.5,  999.0,    9.8,  999.0,   13.5,  999.0
1992/05/21 10:55,    8.1,    8.0,    8.2,    8.8,    8.9,    9.9,   10.3,   11.0,   11.0,   11.5,   13.1,   13.7,   13.8,   11.4,    9.1,    8.2,    6.2,    7.3,    7.0,    6.7,    9.2,    7.1,    6.8,    7.1,    7.0,    8.6,    8.9,    9.3,    9.0,    9.7,    9.9,    6.8,    9.0,    9.3,    9.6,   10.0,    8.8,    9.2,    8.2,    8.6,    8.5,    6.4,    6.3,    8.5,    9.5,   10.4,   11.4,   14.1,   15.3,   15.8,   16.0,   16.9,   15.9,   17.9,   19.6,   19.0,   21.2,   25.1,   28.8,   31.0,   34.4,   36.7,   33.8,   35.2,   35.5,   37.3,   36.6,   37.3,   39.5,   39.8,   41.9,   40.3,   37.0,   37.5,   38.3,   38.1,   40.3,   40.4,   40.8,   39.5,   40.2,   40.1,   42.0,   38.3,   40.6,  999.0,   40.6,   37.9,  999.0,  999.0,   36.7,   36.2,   34.4,  999.0,   30.5,   32.7,   33.7,   34.6,   30.9,   32.7,  999.0,   23.8,   24.2,  999.0,  999.0,   21.3,   19.9,   17.5,   16.9,   17.5,   18.6,   14.8,   12.3,    7.0,    6.5,  999.0,   10.9,   14.1,  999.0,   11.0
1992/05/21 11:05,    8.6,    9.0,    8.9,    9.0,    8.9,    9.8,   10.1,   10.6,   10.6,   11.5,   12.0,   12.8,   12.4,   10.9,    8.7,    7.7,    6.3,    7.0,    6.6,    6.6,    8.5,    5.5,    7.1,    5.9,    5.8,    6.6,    7.6,    8.7,    9.1,    9.0,    9.7,    9.5,    9.8,   10.4,   10.0,   11.0,    9.9,   10.1,    9.6,    7.4,    5.5,    6.2,    8.8,   10.0,   11.0,   13.0,   13.8,   15.2,   17.4,   18.0,   16.9,   17.9,   19.2,   20.6,   22.9,   21.5,   23.9,   27.9,   32.2,   35.0,   37.2,   38.9,   36.9,   36.6,   38.6,   39.6,   39.1,   40.6,   42.2,   43.2,   43.3,   40.7,   37.8,   39.1,   39.8,   42.7,   41.8,   39.6,   40.8,   40.2,   40.2,   38.8,   39.1,   38.4,  999.0,   41.6,   35.8,   36.4,   36.6,   40.0,  999.0,   36.5,   33.7,   33.6,   29.9,   32.1,   33.8,   37.0,   28.8,   24.9,  999.0,   21.4,   21.3,   24.6,  999.0,  999.0,   18.2,   17.7,   12.6,   15.8,   17.5,   14.8,   13.7,    9.1,    5.7,  999.0,  999.0,   11.7,   13.4,   11.9
1992/05/21 11:15,    9.0,    9.5,    9.8,    9.6,    9.8,   10.0,   10.9,    9.9,   11.2,   11.7,   12.3,   13.1,   13.0,   10.7,    9.4,    7.8,    6.8,    6.0,    6.1,    6.4,    6.9,    7.2,    6.9,    5.9,    6.3,    7.4,    7.5,    7.8,    8.3,    8.8,    8.1,    8.0,    9.1,    9.2,    9.5,    9.6,    9.4,    9.2,    6.7,  999.0,  999.0,    7.7,    8.4,   10.7,   11.0,   11.6,   12.1,   14.0,   15.9,   16.2,   17.8,   18.0,   19.3,   21.3,   23.3,   23.3,   25.4,   30.0,   35.2,   35.2,   38.9,   39.9,   37.7,   38.8,   39.1,   41.5,   41.1,   42.1,   43.7,   45.7,   44.9,   40.6,   38.2,   42.7,   41.7,   42.8,   43.6,   42.4,   41.3,   44.6,   39.9,   41.4,   40.5,   39.8,   41.3,  999.0,   41.9,   43.6,  999.0,   38.8,   38.2,   38.3,   34.9,   36.7,   29.7,   33.0,   34.7,   37.1,   30.6,  999.0,   26.4,   24.0,   23.0,   22.8,  999.0,   21.1,   19.5,   16.2,   16.0,  999.0,   17.1,   14.8,   12.7,    8.8,    6.4,  999.0,  999.0,  999.0,   13.4,  999.0
1992/05/21 11:25,    8.0,    7.7,    7.9,    8.7,    9.7,    9.4,   10.1,    9.6,   10.1,   10.4,   11.0,   10.9,   10.6,    9.7,    8.5,    8.3,    6.9,    7.1,    6.4,    6.5,    5.8,    7.0,    6.2,    5.4,    5.9,    5.7,    6.6,    6.8,    7.0,    6.5,    6.7,    6.3,    7.3,    7.7,    8.3,    9.2,    8.9,    9.8,    8.1,    9.2,    8.3,    8.9,    9.8,    9.9,   10.1,   11.3,   12.7,   14.5,   16.5,   16.5,   17.8,   18.0,   19.4,   20.5,   22.0,   22.9,   23.8,   28.1,   33.2,   33.7,   36.0,   37.0,   36.8,   36.3,   38.2,   40.2,   39.1,   39.2,   39.7,   41.9,   43.0,   38.4,   37.8,   41.2,   39.4,   41.0,   38.5,   40.1,   37.3,   39.9,   43.6,   38.4,   41.3,   43.3,  999.0,  999.0,   37.0,   38.7,   39.0,   40.0,   37.0,   34.2,   35.6,   34.5,   32.3,  999.0,   35.4,  999.0,   30.5,   28.4,   29.1,   25.8,   24.7,   23.2,   21.7,   22.4,   23.7,   17.2,   16.8,   17.3,   18.5,   16.6,   12.1,    8.8,    6.2,    4.5,  999.0,   12.9,   14.0,  999.0
1992/05/21 11:35,    7.6,    8.1,    7.9,    8.5,    9.7,   10.0,   10.1,    9.9,    9.9,    9.8,   10.7,   10.5,   10.3,    9.4,    8.4,    7.3,    6.3,    6.0,    5.7,    6.5,    5.7,    6.0,    4.9,    5.4,    4.8,    5.6,    6.2,    6.6,    6.8,    7.1,    7.5,    6.8,    8.0,    8.2,    8.7,    9.0,    9.1,    9.3,    6.5,    8.4,    9.1,    9.1,    9.2,    9.2,   10.0,   11.4,   12.6,   13.9,   15.4,   15.1,   17.2,   16.8,   18.3,   19.1,   20.3,   21.3,   23.4,   27.8,   31.8,   32.3,   35.7,   36.3,   35.7,   35.7,   38.4,   37.3,   41.0,   39.5,   37.7,   40.1,   42.7,   36.0,   37.3,   39.3,   37.2,   39.1,   36.9,   37.6,   37.9,   34.9,   39.9,  999.0,   37.5,   39.0,   40.8,   38.9,  999.0,   35.3,   35.2,   39.9,   38.4,   35.8,   38.3,   31.8,  999.0,  999.0,   34.0,   39.1,   30.4,   29.1,   29.9,   25.7,  999.0,  999.0,  999.0,   22.5,   25.3,  999.0,   16.4,  999.0,   17.6,   18.1,   11.8,    8.0,    5.5,  999.0,  999.0,   12.4,   13.6,  999.0
1992/05/21 11:45,    9.1,    8.5,    8.7,    8.4,    9.5,   10.1,   10.1,    9.6,    9.9,    9.9,   10.3,   11.3,   10.5,   10.2,    9.2,    8.4,    7.2,    6.4,    6.3,    7.0,    7.2,    4.9,    6.7,    5.7,    3.9,    6.7,    6.9,    6.9,    7.4,    7.1,    7.7,    8.0,    8.3,    8.4,    9.4,    9.8,    9.8,    8.6,    9.9,    8.5,    8.7,    9.2,   10.1,   10.9,   10.7,   11.3,   13.5,   14.4,   15.0,   16.2,   17.8,   18.3,   20.0,   21.9,   22.2,   21.6,   24.7,   29.1,   33.4,   34.0,   37.4,   37.1,   36.7,   36.5,   35.9,   39.4,   41.1,   38.8,   40.1,   38.6,   45.5,   39.1,   37.3,   37.9,   37.5,   37.7,   40.1,   37.0,   41.1,   37.5,   39.4,   39.0,   37.1,   38.2,   38.7,  999.0,  999.0,   36.6,   39.0,   33.8,   38.4,   34.4,   37.5,  999.0,   32.2,   30.5,   32.4,   37.3,   29.4,   30.3,   25.4,   24.4,   23.9,  999.0,  999.0,   21.9,   23.4,   16.4,   15.0,   15.9,   16.8,   15.4,   13.8,    8.0,    6.3,    6.3,  999.0,   13.4,   14.3,    7.1
1992/05/21 11:55,    8.9,    8.8,    8.5,    9.0,   10.1,    9.8,   10.1,   10.2,   10.3,   10.0,   10.7,   11.9,   11.3,   10.6,    9.9,    8.8,    8.0,    7.6,    7.8,    8.5,    6.5,    1.3,    6.4,    5.0,    5.6,    6.5,    6.9,    7.3,    6.9,    6.5,    7.4,    7.6,    8.1,    8.4,    9.2,    8.9,    8.9,    8.8,    9.1,    8.6,    8.7,    9.2,    9.7,   10.1,   10.2,   11.2,   12.7,   13.9,   15.0,   15.4,   16.9,   17.9,   19.3,   20.6,   20.0,   21.2,   23.5,   28.2,   32.3,   32.5,   36.9,   37.1,   33.7,   36.2,   36.2,   37.2,   39.3,   42.9,   40.7,   37.1,   40.3,  999.0,   36.2,   37.7,   39.7,   36.3,   36.0,   37.2,   40.4,   36.7,   40.3,   40.2,   36.2,   40.2,   36.8,   39.8,   39.3,   37.5,   41.0,   39.5,   38.8,  999.0,  999.0,  999.0,   33.8,  999.0,   35.6,  999.0,   30.0,   32.3,  999.0,   23.7,   24.7,   27.5,  999.0,   23.6,   25.4,  999.0,   15.6,   15.7,   16.6,   17.2,   11.6,    7.6,  999.0,    6.3,  999.0,   12.1,   10.6,  999.0
1992/05/21 12:05,    8.9,    9.1,    9.4,    9.9,   10.0,    9.6,    9.2,    9.0,    9.1,    9.4,    9.7,   10.2,   10.7,    9.5,    9.1,    7.9,    7.4,    6.9,    7.3,    7.8,    7.1,    2.8,    6.5,    7.4,    7.2,    6.7,    7.5,    8.0,    7.8,    7.9,    8.6,    8.6,    9.1,    9.6,   10.6,    9.4,    9.8,    9.6,    9.5,    8.8,    8.9,    9.1,    9.9,   10.5,   10.9,   11.9,   13.0,   14.4,   14.7,  999.0,   16.0,   17.0,   18.7,   19.9,   18.9,   19.1,   21.5,   25.9,   29.9,   31.2,   33.4,   34.2,   33.5,   35.3,   35.1,   37.2,   37.2,   39.3,   41.1,   35.9,   39.8,   39.6,   34.0,   38.3,   40.3,  999.0,  999.0,   37.6,   39.7,   37.9,   40.6,  999.0,   35.5,   39.3,   35.8,   38.6,   39.5,   38.1,   38.8,   40.0,   39.0,   36.4,   36.5,   35.8,   32.8,   34.0,   36.3,  999.0,  999.0,   25.9,  999.0,   24.3,   24.9,   24.6,   20.9,   23.7,   26.8,  999.0,   13.8,   16.1,   14.8,   17.0,   12.8,    8.3,    5.1,  999.0,   10.8,   12.4,   12.6,    8.7
1992/05/21 12:15,    8.8,    8.1,    8.3,    8.7,    8.7,    7.9,    8.3,    8.0,    8.6,    8.6,    8.7,    9.7,   10.0,    8.7,    8.4,    6.9,    7.3,    7.0,    6.4,    7.1,    7.5,    6.1,    7.0,    7.2,    7.3,    7.7,    8.6,    8.8,    9.0,    9.1,   10.4,   11.0,   11.0,   11.8,   11.5,   11.7,   10.6,   10.7,    9.7,   10.0,    9.6,    9.9,    9.9,   10.6,   11.3,   11.4,   12.5,   13.6,   13.9,   14.8,   16.4,   17.8,   19.3,   20.6,   19.3,   19.2,   22.0,   26.9,   29.9,   32.0,   32.2,   34.6,   34.1,   36.0,   36.7,   36.8,   39.0,   39.4,   40.4,   38.7,   40.1,   39.7,   35.8,   38.0,   40.7,  999.0,   34.2,   38.8,   40.0,   40.1,   39.6,  999.0,   37.4,   41.8,  999.0,  999.0,  999.0,   39.5,  999.0,  999.0,   40.5,   42.1,  999.0,  999.0,  999.0,   35.8,   38.4,   31.2,  999.0,  999.0,  999.0,   25.0,   25.9,  999.0,   22.4,   23.0,   25.9,   20.7,   12.8,   14.3,  999.0,   14.1,   11.7,    8.4,  999.0,  999.0,   11.7,  999.0,   11.9,    9.6
1992/05/21 12:25,    5.6,    7.3,    7.1,    7.4,    7.9,    7.2,    7.5,    7.9,    8.4,    8.7,    8.7,    9.3,    9.3,    9.5,    8.3,    7.2,    7.2,    7.6,    7.2,    7.2,    7.6,    7.7,    8.1,    8.1,    8.1,    8.4,    9.2,    9.5,    9.2,   10.2,   10.2,   11.0,   11.2,   12.0,   12.1,   12.6,   11.7,   12.3,   10.9,   11.1,   10.7,   11.4,   12.1,   12.2,   12.2,   13.8,   14.0,  999.0,   14.7,   15.7,   17.4,   19.7,   22.5,   21.0,   20.3,   19.2,   22.4,   27.0,   29.7,   33.1,   33.9,   35.5,   37.0,   35.1,   37.3,   40.6,   40.5,   40.8,   43.0,  999.0,   40.3,  999.0,   37.2,  999.0,   39.8,  999.0,  999.0,  999.0,   40.4,  999.0,  999.0,  999.0,  999.0,  999.0,  999.0,  999.0,  999.0,  999.0,  999.0,  999.0,  999.0,  999.0,   36.4,   38.6,   35.4,   35.0,   38.6,   33.8,  999.0,  999.0,  999.0,  999.0,  999.0,  999.0,  999.0,  999.0,   25.5,  999.0,  999.0,   13.2,  999.0,   16.6,   10.7,    7.6,    3.2,  999.0,  999.0,  999.0,  999.0,  999.0
1992/05/21 12:35,    8.6,    8.7,    9.1,    8.9,   10.0,    9.3,    9.1,    9.0,    9.2,    8.4,    8.7,    9.2,    9.4,    9.3,    8.9,    6.5,    6.8,    7.2,    6.8,    6.9,    7.0,    5.4,    7.3,    6.7,    7.0,    7.8,    8.7,    9.1,    8.9,    9.5,   10.2,   10.4,   11.1,   12.2,   12.2,   12.0,   11.3,   11.9,   10.8,    8.6,   10.6,   11.3,   12.0,   12.2,   12.2,   13.6,   13.7,   13.8,   14.5,   14.9,   18.9,   21.1,   23.4,   20.2,   22.4,   21.4,   25.0,   28.6,   30.7,   34.1,   33.8,   35.9,   36.0,   36.1,   37.1,   38.2,   39.8,   41.5,   42.0,   36.9,   39.7,   42.9,   40.7,   38.8,   38.1,   38.9,   35.3,   39.3,   39.2,   41.6,   38.1,   39.1,   38.1,   39.6,  999.0,   36.6,   37.9,  999.0,  999.0,  999.0,  999.0,   37.6,   41.1,   37.2,   36.0,   33.2,   35.8,   30.5,   31.7,  999.0,   25.2,   26.4,   25.9,  999.0,  999.0,   18.4,   25.2,   26.4,   14.7,   13.7,  999.0,   16.5,   13.1,  999.0,  999.0,    8.9,  999.0,   13.2,   11.3,  999.0
1992/05/21 12:45,    6.2,    6.7,    7.0,    7.0,    7.6,    7.6,    7.9,    8.5,    9.3,    9.0,    8.8,    8.7,   10.4,   10.1,    9.3,    7.7,    7.3,    7.7,    7.3,    7.7,    6.8,    6.4,    7.7,    6.6,    7.2,    7.5,    8.1,    8.7,    8.2,    9.4,    9.3,   10.1,   10.7,   11.4,   11.3,   11.0,   10.1,   10.2,    9.7,    9.4,    9.5,    9.7,   10.1,   10.6,   10.9,   12.2,   12.4,   12.7,   12.9,   14.6,   16.4,   19.7,   23.0,   20.0,   20.3,   19.2,   22.8,   27.0,   29.5,   32.2,   32.1,   33.9,   32.5,   34.0,   36.5,   37.1,   37.5,   39.0,   39.0,   36.5,   37.0,   38.3,   38.9,   37.8,   36.7,   36.4,   32.2,   37.1,   37.9,   41.8,   36.7,   38.8,   38.8,   37.4,  999.0,   38.6,  999.0,  999.0,  999.0,  999.0,  999.0,   35.9,   41.8,   35.2,   38.8,   35.0,   34.2,   30.8,   31.1,   25.5,   24.5,   24.7,   24.8,  999.0,   24.2,   21.1,   24.4,   23.4,   19.0,   12.7,   14.6,   16.0,   13.8,    8.5,  999.0,   10.6,  999.0,   13.7,   10.7,    9.7
1992/05/21 12:55,  999.0,  999.0,  999.0,    8.4,    9.3,    8.7,    8.8,    9.6,    9.1,    9.2,    8.5,    8.7,   10.6,   10.2,    9.0,    7.3,    7.1,    7.4,    7.0,    6.9,    7.6,    6.9,    7.0,    7.1,    6.8,    8.4,    8.3,    8.8,    8.6,    9.3,   10.6,    9.9,   10.8,   11.5,   11.8,   11.2,   11.8,   11.1,   10.5,   10.0,   10.1,   10.4,    8.9,   10.2,   10.5,   12.8,   12.6,   12.6,   13.3,   15.1,   17.0,   18.3,   21.9,   20.1,   19.3,   19.9,   23.2,   26.3,   26.9,   31.6,   32.5,   33.2,   33.5,   34.6,   37.7,   36.7,   38.2,   39.7,   37.9,   36.5,   39.1,   39.9,   39.4,   37.4,   34.3,  999.0,   34.5,   36.9,   33.3,   39.5,   36.1,  999.0,  999.0,   35.7,  999.0,   36.9,   39.5,  999.0,  999.0,  999.0,   42.0,   38.7,   42.5,   34.8,   33.0,   33.4,   32.1,   26.6,   29.2,   26.4,   23.4,   23.8,   23.3,   24.7,   26.3,   22.4,   24.7,   23.5,   15.6,   12.9,   15.0,   15.7,   12.5,    8.7,    8.5,  999.0,  999.0,   13.1,   10.3,  999.0
1992/05/21 13:05,    4.6,    6.1,    7.6,    7.5,    7.9,    8.1,    8.5,    9.5,    9.9,   10.0,    9.0,    9.3,   11.0,   10.9,    9.5,    7.9,    5.4,    7.4,    7.6,    7.0,    7.4,    7.2,    6.8,    7.3,    7.2,    6.7,    8.1,    8.6,    8.5,    8.8,    9.8,    9.3,   10.9,   11.5,   11.8,   11.2,   11.1,   10.6,   10.8,   10.6,   10.7,   10.8,    9.9,    5.2,   12.4,   13.6,   12.0,   14.2,  999.0,   14.0,   17.8,   20.1,   23.3,   19.5,   20.2,   21.9,   25.1,   28.3,   27.7,   31.6,   35.9,   34.9,   34.6,   37.0,   39.5,   40.2,   41.1,   42.6,   40.0,   35.8,   39.1,   41.8,   40.8,   37.1,   39.4,   40.0,   38.3,   40.2,   37.8,   40.1,  999.0,  999.0,   40.1,   37.9,   41.6,  999.0,  999.0,  999.0,  999.0,   37.0,   39.3,   41.2,   39.0,   38.5,   33.6,   35.9,   37.1,  999.0,   26.5,  999.0,  999.0,  999.0,  999.0,   23.5,   26.9,   24.4,   24.5,   23.8,  999.0,   15.3,  999.0,   14.9,  999.0,    8.8,    5.4,  999.0,   11.1,  999.0,  999.0,    8.6
1992/05/21 13:15,  999.0,    0.4,    6.1,    7.5,    7.9,    7.4,    8.5,    8.8,    8.8,    8.7,    8.2,    8.3,    9.3,    9.2,    7.8,    6.6,    4.6,    5.6,    6.3,    5.6,    6.3,    5.8,    5.9,    6.4,    6.6,    6.2,    7.5,    8.0,    7.9,    9.1,    8.6,    8.1,   11.0,   11.4,   11.7,   11.6,   11.8,   11.5,   12.0,   11.1,   11.4,   10.6,   12.0,  999.0,    9.8,   11.9,   12.2,   13.3,  999.0,   13.3,   16.1,   19.2,   22.7,   20.4,   19.7,   22.7,   25.6,   27.2,   27.8,   31.2,   34.4,   34.8,   35.2,   36.4,   38.5,   41.8,  999.0,   40.2,  999.0,   37.2,   38.8,   41.7,   42.5,  999.0,   38.0,  999.0,  999.0,  999.0,  999.0,   40.4,  999.0,  999.0,  999.0,  999.0,   39.0,  999.0,  999.0,   37.0,   26.8,   36.6,  999.0,  999.0,   40.7,   39.8,   35.7,   36.0,  999.0,  999.0,   29.2,  999.0,  999.0,  999.0,  999.0,  999.0,  999.0,  999.0,   23.8,   23.5,  999.0,  999.0,   13.9,   14.9,   13.8,  999.0,  999.0,  999.0,    8.9,  999.0,   12.1,  999.0
1992/05/21 13:25,    6.3,    6.7,    7.1,    7.5,    7.7,    7.9,    8.2,    9.0,    8.9,  999.0,    8.5,    8.1,    9.3,    9.4,    7.7,    7.2,    6.5,    5.1,    5.5,    5.7,    5.2,    5.7,    5.6,    5.1,    5.8,    6.3,    6.8,    7.1,    6.9,    7.4,    7.4,    7.5,    9.2,    9.4,   10.1,   10.5,   10.4,   10.6,   10.8,    9.5,   10.3,    9.9,   10.5,    8.4,  999.0,   11.8,   12.1,   12.5,  999.0,   14.3,   15.1,   19.1,   21.3,   21.0,   19.3,   21.9,   24.0,   26.7,   28.0,   30.6,   32.5,   35.7,   35.9,   38.1,   38.7,   38.3,   39.5,   40.7,   36.0,   36.6,   39.2,   37.7,   40.4,   38.8,   34.9,   38.6,   37.8,  999.0,   37.6,   39.6,  999.0,   38.1,   38.8,  999.0,   38.0,  999.0,  999.0,  999.0,  999.0,   41.5,  999.0,   42.3,   40.6,   37.3,   35.8,  999.0,  999.0,  999.0,   27.6,   31.1,  999.0,   22.2,   27.5,  999.0,   24.8,  999.0,  999.0,  999.0,  999.0,  999.0,   14.2,   14.6,   12.8,  999.0,  999.0,   10.4,  999.0,  999.0,  999.0,  999.0
1992/05/21 13:35,    6.1,  999.0,    6.6,    7.1,    7.4,    7.4,    7.4,    8.0,    7.1,    6.7,    7.3,    6.7,    6.8,    7.0,    6.9,    6.4,    5.0,    4.8,    4.0,    4.5,    4.9,    4.9,    5.5,    4.6,    5.7,    6.5,    7.1,    6.9,    7.1,    7.8,    7.0,    8.1,    9.0,    9.5,    9.6,    9.7,   10.1,    9.4,    9.7,    9.5,    9.6,    9.1,    9.7,    4.2,    9.8,   10.1,   11.2,   10.5,  999.0,   12.8,   15.3,   17.5,   19.2,   18.8,   18.6,   20.8,   22.4,   25.5,   25.5,   28.8,   30.8,   32.1,   31.6,   34.4,   36.4,   37.6,   37.5,   37.4,   34.3,   36.6,   36.9,   37.6,   38.0,   36.7,   34.0,   37.8,  999.0,   35.3,   38.0,   39.4,  999.0,  999.0,  999.0,  999.0,  999.0,  999.0,  999.0,  999.0,   39.1,   41.5,   38.1,   39.4,  999.0,  999.0,   36.0,   39.0,  999.0,   34.3,  999.0,  999.0,  999.0,  999.0,   25.3,   27.5,   23.8,  999.0,  999.0,  999.0,  999.0,  999.0,  999.0,   12.6,    1.5,    7.2,    5.3,    9.7,   13.5,  999.0,  999.0,  999.0
1992/05/21 13:45,    4.6,    3.0,    5.7,    6.2,    7.1,    7.6,    7.5,    7.2,    6.5,    7.0,    7.3,    6.9,    8.0,    8.4,    8.0,    7.2,    6.7,    5.8,    5.8,    6.3,    6.3,    6.0,    5.6,    6.1,    6.8,    7.1,    7.5,    7.9,    8.4,    8.8,    8.5,    9.3,    9.7,   10.5,   10.9,   11.0,   10.8,   10.2,   10.7,   10.2,   10.1,    9.5,    9.2,    6.0,   10.4,   11.2,   12.4,   12.3,   12.4,   12.7,   14.4,   17.4,   19.8,   19.5,   18.0,   20.9,   24.4,   24.4,   25.1,   27.8,   30.5,   31.1,   32.0,   33.4,   35.7,   36.4,   38.5,   37.0,   33.2,   35.7,   37.2,   36.2,   36.8,   36.7,   36.1,   36.4,   32.9,   35.1,  999.0,   38.6,   41.5,  999.0,  999.0,   36.4,   39.3,  999.0,  999.0,   39.1,   38.6,   40.5,   40.1,   44.1,  999.0,  999.0,   36.4,   38.7,   32.6,   33.6,  999.0,   24.4,  999.0,   22.6,   25.6,   26.2,   24.4,  999.0,   23.3,   22.9,   15.4,   14.5,   12.7,   13.4,   13.6,   12.3,    6.6,    9.5,   12.5,   12.0,   10.6,    8.9
1992/05/21 13:55,    7.0,    7.5,    6.9,    7.4,    8.3,    8.7,    7.6,    7.4,    7.3,    8.9,    9.4,    9.5,    9.5,    8.7,    7.9,    7.7,    6.3,    6.0,  999.0,    7.0,    6.8,    6.8,    6.2,    7.3,    7.7,    7.9,    8.6,    8.2,    8.4,    7.1,    7.7,   10.4,   10.2,   10.1,   10.7,   10.8,   10.4,   11.2,   11.0,   10.5,   10.5,   10.4,   10.3,    8.7,   10.6,   11.8,   12.2,   10.5,   12.3,   13.3,   14.7,   17.3,   20.2,   18.5,   18.6,   22.7,   24.9,   23.8,   25.0,   28.5,   31.4,   31.1,   32.3,   33.1,   35.2,   35.7,   35.7,   37.4,   32.8,   34.1,   37.2,   36.3,   36.7,   35.8,   34.8,   39.0,  999.0,  999.0,  999.0,  999.0,   38.0,   41.1,  999.0,   36.5,  999.0,  999.0,  999.0,  999.0,  999.0,  999.0,  999.0,  999.0,  999.0,  999.0,  999.0,  999.0,   31.8,   33.5,  999.0,   26.0,  999.0,  999.0,  999.0,   25.0,   26.2,  999.0,   21.8,  999.0,   15.7,   13.5,   13.5,   14.2,   13.4,   13.2,    7.3,    9.3,   13.9,   13.3,  999.0,    7.7
1992/05/21 14:05,    6.0,    7.5,    6.0,    6.5,    7.3,    8.0,    8.6,    8.1,    7.5,    8.9,    9.9,   10.3,   10.4,   10.8,    9.3,    8.7,    8.4,    4.4,    8.5,    8.0,    8.3,    7.1,    6.5,    8.3,    8.4,    8.2,    8.5,    8.4,    8.6,    7.0,    8.4,    9.9,    6.7,    9.5,    9.9,    9.3,    9.7,   10.2,   10.8,   11.1,   10.4,   10.4,   10.0,   10.7,   11.2,   12.0,   12.3,   13.3,  999.0,   14.1,   15.0,   17.6,   20.3,   18.7,   19.4,   23.3,   25.2,   24.4,   26.1,   29.5,   31.2,   32.6,   34.8,   35.8,   35.7,   38.3,   36.9,   39.0,  999.0,   34.9,   40.3,   39.7,   37.4,   36.6,   38.1,   36.2,   39.0,  999.0,  999.0,  999.0,  999.0,   42.7,  999.0,   38.2,  999.0,  999.0,  999.0,   40.3,  999.0,  999.0,   42.5,  999.0,   37.6,   41.4,  999.0,   30.7,   31.4,   34.1,  999.0,   26.4,   25.0,  999.0,   24.1,   26.0,  999.0,  999.0,   18.1,   18.1,  999.0,   12.5,   12.8,   12.9,   12.0,   11.6,    8.4,    8.8,   13.5,  999.0,   13.0,  999.0
1992/05/21 14:15,    6.4,    8.4,    8.3,    8.9,    8.6,    7.5,    7.5,    7.5,    8.4,    9.9,   10.5,   10.9,   11.7,   11.6,   11.2,    9.9,    9.8,    9.7,   10.2,    9.5,    9.8,    3.5,    8.8,    9.3,    9.6,    8.6,    8.8,    9.5,    8.4,    7.3,    9.0,    9.5,    2.4,    9.4,    9.7,   10.0,    9.3,   10.0,   10.1,   10.6,   10.2,    9.7,    8.5,    1.3,   11.2,   11.7,  999.0,   13.0,  999.0,   14.9,   14.9,   16.9,   19.1,   17.1,   19.6,   23.0,   24.0,   24.1,   26.8,   28.7,   32.0,   32.4,   36.5,   33.6,   37.2,   37.0,   36.6,   38.6,   37.7,   36.4,   39.7,   36.9,   39.4,   37.8,  999.0,   34.9,   39.5,   38.8,   40.1,   38.0,  999.0,   43.8,   37.0,   39.2,   36.7,   37.9,  999.0,   37.1,   40.7,  999.0,   15.8,  999.0,  999.0,   39.3,   36.8,  999.0,  999.0,   33.7,  999.0,   26.5,   24.1,  999.0,  999.0,   26.0,  999.0,  999.0,  999.0,   24.1,  999.0,   12.7,  999.0,  999.0,  -27.0,   10.3,    6.9,    7.7,    8.5,  999.0,  999.0,  999.0
1992/05/21 14:25,    9.2,    9.5,    8.5,    7.8,    7.0,    6.8,    6.4,    7.7,    8.7,   10.2,   10.8,   11.1,   11.7,   12.4,   12.4,   10.8,   10.8,    4.3,    9.0,    9.5,    9.2,    5.7,    9.4,    9.0,    9.1,    8.8,    9.5,    9.5,    9.2,    9.2,    8.8,    8.1,  999.0,    9.7,   10.1,    9.5,    9.9,    9.3,    9.6,   10.0,   10.1,   10.0,    6.2,   10.1,   11.1,   12.6,    6.0,   10.0,   12.9,   13.7,   14.6,   16.4,   19.1,   17.8,   19.3,   22.0,   23.6,   24.0,   27.2,   30.5,   31.4,   31.9,   34.5,   35.2,   36.5,   36.7,   36.1,   39.2,   38.8,  999.0,   40.1,   37.6,   39.2,   36.1,   37.3,   37.0,   37.6,   40.9,  999.0,   40.8,   41.1,   44.5,   35.2,   39.5,   37.6,   39.4,   41.6,   37.7,   40.8,   39.9,   42.9,  999.0,  999.0,  999.0,  999.0,  999.0,  999.0,  999.0,  999.0,   26.7,   23.7,   23.5,  999.0,   26.4,   27.3,  999.0,  999.0,   21.5,  999.0,  999.0,   13.6,   12.3,   11.5,   12.0,    7.4,  999.0,  999.0,    9.6,  999.0,  999.0
1992/05/21 14:35,    7.5,    7.7,    6.6,    5.5,    5.4,    5.0,    5.1,    5.4,    6.2,    7.6,    8.5,    9.1,    9.6,   10.6,   11.3,   10.6,    8.6,  999.0,   10.1,   10.3,   10.2,    9.2,    9.5,   10.5,   10.4,   10.1,   10.2,    9.9,   10.7,   11.4,   14.2,  999.0,    0.3,    8.9,   10.6,    9.8,    9.9,    9.3,    8.9,   10.2,   10.1,   10.2,  999.0,    9.2,   11.6,  -15.5,   -8.4,  999.0,    9.6,   15.7,   14.6,   16.2,   18.3,   17.2,   19.3,   21.1,   21.2,   23.2,   26.9,   29.3,   28.0,   33.4,   31.3,   34.6,   36.4,  999.0,   34.3,   35.2,   41.5,   22.0,  999.0,  999.0,  999.0,   29.2,   34.7,   36.9,   24.0,   21.9,  999.0,  999.0,  999.0,  999.0,   21.6,   21.9,  999.0,   21.2,  999.0,  999.0,  999.0,  999.0,   21.9,  999.0,   20.9,   21.8,   22.0,  999.0,  999.0,  999.0,  999.0,   21.8,   22.6,   22.9,   22.4,   12.5,   22.2,   21.6,   21.8,   10.5,   21.4,  999.0,  999.0,   -1.1,   -2.1,   -0.1,  -26.3,  999.0,   -4.0,    9.8,   22.6,    1.6
1992/05/21 14:45,    7.3,    6.7,    5.7,    4.8,    4.4,    3.7,    3.6,    4.1,    3.6,    4.1,    5.3,    7.1,    8.1,    8.9,    9.4,    8.5,    8.5,    8.2,    8.5,    8.9,    8.7,  999.0,    4.0,    8.2,    4.5,    7.2,    7.6,  999.0,    9.0,  999.0,  999.0,   -0.5,  999.0,   10.4,   11.1,   10.6,   10.6,    8.4,  999.0,   12.1,   12.0,   15.8,  999.0,  999.0,  999.0,   -2.4,  999.0,  999.0,   -3.9,   19.2,   20.4,  999.0,  999.0,   20.6,   23.5,  999.0,  999.0,   26.7,   29.2,  999.0,  999.0,  999.0,  999.0,   32.8,   34.7,   22.8,  999.0,   32.9,  999.0,   24.6,  -10.7,  999.0,  999.0,  999.0,  999.0,  999.0,  999.0,   25.1,  999.0,   24.0,  999.0,  999.0,   22.5,   26.5,  999.0,  999.0,   23.2,  999.0,   22.8,  999.0,  999.0,  999.0,   22.8,  999.0,  999.0,   19.9,    3.0,  999.0,   22.0,  999.0,   23.1,   22.9,   23.2,  999.0,  999.0,   24.4,   23.6,  999.0,  999.0,  999.0,    5.6,  999.0,  999.0,  999.0,   -9.3,  999.0,  999.0,  999.0,  999.0,  999.0
1992/05/21 14:55,    6.3,    6.2,    5.0,    4.6,    4.0,    3.3,    3.5,    3.7,    3.4,    4.0,    5.6,    6.2,    6.0,    8.3,    9.0,    9.0,    8.5,    8.4,    9.1,    9.6,    9.1,    6.2,    9.5,    8.4,  999.0,    6.7,  999.0,  999.0,   12.2,  999.0,    0.4,    1.4,   12.0,   12.1,   12.2,   10.3,   11.6,   11.3,   11.4,   11.9,   11.6,   11.1,   -8.0,  999.0,    3.6,   -3.4,    0.3,  999.0,    0.3,  999.0,  999.0,  999.0,   18.1,  999.0,  999.0,  999.0,   21.8,   26.1,   30.5,  999.0,  999.0,  999.0,  999.0,  999.0,  999.0,  999.0,  999.0,  999.0,  999.0,  999.0,  999.0,  999.0,  999.0,  999.0,  999.0,  999.0,  -12.8,    4.3,  999.0,  999.0,  999.0,  999.0,  999.0,  999.0,    7.4,  999.0,  999.0,  999.0,  999.0,   -6.4,   -5.8,  999.0,  999.0,  999.0,  999.0,  999.0,  999.0,  999.0,  999.0,  999.0,  999.0,  999.0,   -1.6,  999.0,   -0.3,  999.0,  999.0,  999.0,  999.0,    2.8,  999.0,   -2.1,  999.0,  999.0,    0.4,   -2.0,   -1.2,  999.0,  999.0,  999.0
1992/05/21 15:05,    5.4,    5.8,    4.4,    4.2,    4.1,  999.0,    4.5,    3.6,    3.2,    3.4,    4.9,    5.2,    6.2,  999.0,    8.0,    8.5,    7.6,    8.4,    3.6,    9.4,    4.6,   -0.3,    2.9,    4.5,    3.5,    1.3,   -0.8,    4.0,    6.5,    3.5,    1.1,    0.9,    5.6,    8.8,   10.9,   10.4,    7.7,  999.0,   11.3,    7.2,    5.9,   -0.2,  999.0,   -2.1,   -0.4,    0.3,    0.4,    0.1,   -1.4,   -1.7,   -1.4,   -0.6,   -1.2,    0.2,   23.3,  999.0,   21.4,   25.0,   30.6,   31.3,  999.0,  999.0,  999.0,  999.0,  999.0,  999.0,  999.0,  999.0,  999.0,  999.0,    0.1,   -1.3,    0.4,  999.0,    0.4,   -0.2,    0.8,    0.5,    3.0,   -0.1,   -1.3,    0.5,   -4.7,   -0.1,   -0.4,   -4.8,   -0.1,    0.3,   -2.1,   -1.2,    0.2,    0.3,    0.7,   -0.0,    0.6,  999.0,  999.0,   -0.0,   -2.5,   -0.9,  999.0,    1.1,    0.9,    0.7,    2.6,  999.0,    0.6,    1.3,  999.0,   -1.9,    0.2,    3.0,    2.7,  999.0,   -0.9,  999.0,   -0.4,  999.0,   -1.4,   -0.9
1992/05/21 15:15,    6.1,    6.2,    6.1,    5.1,    4.5,    4.6,    4.6,    3.5,    3.0,    3.5,    4.0,    5.0,    6.4,    7.6,    7.7,    7.9,    8.4,   -0.2,    7.8,    9.2,    5.2,    5.2,    3.1,    4.2,   -0.4,    1.5,    1.2,    3.2,    2.6,    1.6,   -1.5,   -1.9,    2.2,    7.2,   11.6,    5.5,    2.8,   -0.6,    4.1,    3.3,    2.6,    0.7,   -0.2,    0.8,    0.8,    0.8,    1.6,    2.4,    0.7,    1.1,    2.1,    1.9,    1.4,  999.0,  999.0,  999.0,    7.5,  999.0,  999.0,    4.7,  999.0,  999.0,  999.0,  999.0,  999.0,    1.4,  999.0,  999.0,    0.8,  999.0,    0.9,    0.6,    5.7,  999.0,  999.0,    0.9,    0.1,    4.5,    8.1,    0.8,   -2.0,    4.9,    2.9,   -2.9,    6.3,    6.9,   -0.8,  999.0,    1.7,    6.0,    5.8,    3.2,    0.8,    3.6,    3.8,    5.3,  999.0,    6.2,    2.2,    6.2,    2.7,    5.9,    4.5,   -0.6,    6.4,    3.7,    5.4,    5.1,    3.9,   -7.6,   -2.5,    6.5,    5.7,    4.7,    2.6,  999.0,  999.0,   -2.5,    2.6,   -1.9
1992/05/21 15:25,    5.7,    5.2,    4.9,    4.4,    4.5,    4.1,    4.4,    3.6,    3.6,    4.3,    4.2,    5.8,    7.3,    8.4,   10.1,    9.6,    8.6,    8.9,    2.8,    9.5,   10.2,    8.5,    8.2,  999.0,    0.4,   -0.2,   -0.2,   -0.1,   -1.2,   -1.1,   -1.7,   -0.2,   -0.5,   10.2,   10.5,   11.2,   11.9,  999.0,   -0.5,    4.6,   -2.7,    1.0,   -0.1,   -0.6,   -1.5,    1.7,   -1.5,    1.5,   -1.5,   -0.0,    0.5,    1.6,    0.4,    3.2,  999.0,   15.4,   22.8,  999.0,   29.4,  999.0,  999.0,  999.0,    4.9,  999.0,  999.0,   -0.1,  999.0,    2.3,    2.6,    1.0,    2.8,    2.7,    2.0,    0.3,    1.9,  999.0,    1.4,    2.1,    3.3,    1.8,    3.8,   -0.2,  999.0,    3.5,   -0.7,   -0.1,    3.2,    1.7,    3.1,    1.3,    0.8,    0.1,    0.3,  999.0,    1.1,    0.3,   -1.6,    1.2,    0.4,    3.9,    2.0,    1.0,    3.7,    3.4,    3.2,    3.7,    1.5,    3.2,    0.5,   -2.5,    1.1,    2.2,    5.4,   -1.0,    0.9,    2.3,   -1.6,    1.1,    3.3,    2.4
1992/05/21 15:35,    5.3,    5.1,    5.3,    4.8,    3.3,    3.0,    3.7,    3.6,    3.8,    4.4,    5.8,    6.4,    6.9,    8.1,    9.7,    9.9,    8.4,    7.8,    6.6,    8.8,    9.0,    9.0,   10.3,    8.3,    2.5,   -1.0,    1.5,    0.3,    4.5,    0.9,    0.6,    2.7,   11.0,   12.6,   11.4,   12.3,   12.8,   12.5,   11.3,   12.3,   10.0,    1.6,    0.5,    0.5,    2.0,    1.0,    0.5,    1.5,    0.8,    0.3,    2.0,    0.1,    1.7,   15.7,   23.0,   22.9,   23.6,   26.7,   30.1,   -1.0,  999.0,  999.0,    0.9,    0.4,   -0.3,   -0.0,  999.0,    1.3,    5.2,    1.1,    3.8,    1.2,    2.1,    0.5,    3.5,   -0.7,    2.5,   -0.5,    2.2,   -0.4,    1.6,    2.8,   -0.2,    3.8,    1.0,    5.2,   -0.7,    1.3,    1.0,    1.4,    0.7,    0.9,    1.3,    2.9,    0.2,    3.0,    0.7,    1.2,   -0.4,    0.5,    2.1,    2.1,    2.4,    0.7,   -0.9,   -1.0,    2.7,    1.4,  999.0,   -0.2,    0.5,    0.6,    0.8,    1.4,    0.7,    0.8,    1.0,   -0.2,    0.8,  999.0
1992/05/21 15:45,    5.4,    5.0,    5.0,    5.1,    4.0,    4.4,    4.5,    4.6,    3.3,    3.5,    5.1,    5.8,    5.7,    6.6,    7.5,    8.7,    8.4,    8.0,    8.1,    7.6,    8.0,    9.3,    9.6,    9.4,    5.4,   10.3,    8.0,   10.5,    8.4,    7.8,  999.0,    6.8,   11.1,   11.4,   11.2,   11.0,   11.2,   11.8,   10.4,   11.7,   10.9,   10.2,    6.2,   13.2,   12.3,    7.5,  999.0,  999.0,    2.1,    2.2,   12.1,    7.4,   -4.0,   20.5,   23.5,   22.0,   22.8,   27.4,   30.1,   29.9,   32.1,   34.9,   30.9,  999.0,  999.0,  999.0,  999.0,    2.7,   -1.8,  999.0,    5.6,   -3.7,   -6.3,   -1.6,  999.0,   -4.9,   -1.5,   -3.2,    0.5,   -0.1,   18.2,    1.2,   -3.4,  999.0,    1.5,    0.3,   -3.1,   -2.5,   -3.2,   -2.9,  999.0,   -1.3,   -1.3,   -1.4,   -1.6,   -0.9,  999.0,   -3.5,   -1.7,   11.5,   -1.4,   -2.4,   -4.2,  999.0,  999.0,  999.0,    1.7,  999.0,   -0.6,    1.7,  999.0,  999.0,   13.3,  999.0,  999.0,    1.3,    0.0,   -0.9,  999.0,  999.0
1992/05/21 15:55,    5.6,    5.9,    5.7,    5.5,    1.6,    3.1,    5.1,    4.7,    4.8,    5.9,    7.6,    8.3,    7.9,    8.5,    9.5,   10.3,   11.2,   10.0,   10.1,   10.1,   10.4,   11.0,   11.2,   11.8,   10.8,    7.7,    7.8,   11.0,    9.5,   10.6,    2.6,    9.3,   11.7,   12.2,   11.5,   12.1,   12.1,   12.7,   12.5,   12.8,   13.5,   12.1,   12.9,   13.5,   15.9,   17.4,   16.7,   17.3,   16.4,   17.5,   17.7,   19.4,   18.7,   20.9,   23.4,   23.6,   25.6,   29.6,   32.6,   33.0,   38.1,   36.9,   38.4,  999.0,  999.0,  999.0,  999.0,  999.0,  999.0,  999.0,  999.0,  999.0,   -0.7,  999.0,  999.0,  999.0,  999.0,  999.0,  999.0,  999.0,  999.0,  999.0,  999.0,  999.0,  999.0,  999.0,    0.2,   -1.9,  999.0,  999.0,  999.0,  999.0,  999.0,  999.0,   -3.6,   -2.2,  999.0,    1.1,  999.0,  999.0,  999.0,  999.0,  999.0,  999.0,  999.0,   23.7,  999.0,   18.3,  999.0,  999.0,  999.0,    7.0,   12.0,    8.8,    7.6,  999.0,   13.1,   -3.5,  999.0,  999.0
1992/05/21 16:05,    6.0,    5.9,    6.0,    6.1,    6.1,    5.4,    5.6,    5.5,    6.4,    7.8,    9.0,    8.6,    8.9,    8.8,    9.5,    9.2,    9.9,    9.0,    9.1,    8.6,    9.6,    8.8,    9.8,    9.5,    9.3,    8.8,    8.0,    8.3,    9.3,    8.9,    8.7,   10.0,   11.0,   11.3,   11.0,   11.0,   11.6,   11.9,   12.3,   12.3,   12.7,   12.5,   13.2,   14.9,   16.1,   16.6,   16.7,   16.6,   16.5,   15.9,   16.3,   16.8,   16.0,   19.4,   21.2,   20.9,   23.6,   27.9,   28.4,   30.6,   32.3,   33.6,   33.8,   33.1,   36.3,   36.7,   37.0,   34.3,   38.1,  999.0,  999.0,   35.3,   39.8,  999.0,  999.0,  999.0,  999.0,   41.4,   39.7,   40.2,   38.6,   39.5,   33.2,   36.0,   37.9,   38.1,   40.0,  999.0,   37.5,  999.0,  999.0,  999.0,   38.3,   39.3,   35.8,  999.0,   33.3,   33.9,  999.0,   24.5,   25.3,   23.4,   24.7,   27.3,  999.0,   22.2,   17.1,   17.8,   14.0,   10.1,  999.0,   11.9,   12.0,   10.4,    9.5,   12.4,   12.6,  999.0,  999.0,  999.0
1992/05/21 16:15,    6.0,    6.2,    6.1,    6.1,    5.6,    5.5,    5.0,    4.7,    5.5,    7.2,    8.2,    8.9,    9.1,    8.6,    9.2,    9.8,    9.8,   10.1,    9.5,    8.7,    9.6,   10.0,   10.4,   10.3,    9.8,    8.0,    8.7,    8.3,    7.7,    8.8,    8.5,   10.3,   11.1,   11.6,   11.3,   11.8,   12.7,   12.8,   13.2,   13.9,   14.8,   14.5,   13.7,   15.2,   16.9,   16.4,   16.4,   16.1,   15.8,   15.7,   16.2,   16.9,   15.3,   17.8,   20.1,   19.5,   22.9,   26.0,   27.8,   28.8,   30.8,   32.2,   32.6,   33.9,   36.5,   37.7,   34.9,   36.9,   36.8,  999.0,  999.0,   38.1,   35.1,   36.9,  999.0,   38.2,   33.8,   39.0,   40.9,   37.7,   37.7,   38.2,   34.9,   36.9,   36.6,   34.1,  999.0,   35.5,  999.0,   35.3,   40.2,  999.0,   35.8,   35.7,   36.2,  999.0,   33.1,   33.9,   33.4,   24.3,   23.9,   24.7,   26.0,   27.2,   21.5,   22.9,   16.0,   17.2,   15.7,   11.1,    9.7,   10.8,   12.9,   10.3,    9.0,   10.9,   12.8,    8.5,    7.2,   32.5
1992/05/21 16:25,    5.2,    5.3,    5.2,    5.2,    4.9,    4.5,    4.6,    4.8,    4.8,    5.4,    6.5,    7.1,    5.7,  999.0,    7.6,    8.5,    9.4,    8.8,    8.9,    7.6,    8.2,    9.3,    9.0,    9.2,    9.1,    7.7,    8.4,    9.4,    9.7,   10.5,   11.0,   12.2,   12.4,   12.0,   12.7,   14.0,   14.4,   14.6,   15.0,   15.0,   15.2,   15.0,   15.1,   16.1,   15.9,   14.7,   16.4,   16.2,   13.8,   14.4,   15.6,   11.0,   18.4,   20.2,   20.4,   19.9,   22.7,   26.3,   25.8,   29.2,   32.1,   32.8,   31.7,   32.4,   35.8,   34.4,  999.0,   35.5,   34.8,   35.6,   35.9,   37.4,   34.7,   36.6,  999.0,   33.6,   36.1,   38.7,   42.0,   36.5,   34.8,   37.4,   33.2,   34.8,  999.0,   34.2,   37.4,   34.1,   36.6,   33.6,   38.2,  999.0,   37.5,  999.0,  999.0,   28.8,   31.7,   31.9,  999.0,   26.7,   19.2,  999.0,  999.0,   28.0,  999.0,   22.4,  999.0,   18.6,   14.7,   12.2,   12.2,   13.4,   18.4,   17.5,    8.7,   11.5,  999.0,   10.1,    7.1,  999.0
1992/05/21 16:35,    6.0,    6.1,    6.2,    5.7,    5.8,    5.4,    5.6,    4.9,    5.3,    5.0,    6.1,    7.1,    6.4,    6.4,    6.1,    7.1,    7.5,    6.6,    6.5,    7.1,    7.5,    8.1,    8.5,    8.5,    9.0,    8.8,    7.4,    8.2,   10.3,   10.2,    9.9,   11.6,   11.3,   11.2,   12.4,   14.2,   14.8,   14.4,   14.8,   14.8,   15.6,   14.2,   15.1,   15.8,   16.2,   15.7,   16.1,   15.8,   14.6,   15.1,   15.2,   15.5,   17.8,   20.1,   21.3,   20.1,   22.8,   27.3,   27.9,   29.7,   31.6,   34.5,   32.0,   32.8,   34.7,   34.2,   34.9,   34.7,   35.7,   34.4,   36.7,   39.3,   33.9,   37.4,   35.3,   35.3,   37.0,   37.5,   40.5,   36.3,   38.1,   34.7,   33.0,   33.1,   39.6,   34.5,   39.4,   33.6,   36.0,   35.1,   36.2,   35.2,   32.5,   34.9,   32.1,   28.7,   26.5,   27.7,   30.0,   23.6,   13.4,   21.6,   21.3,   23.4,   21.2,   21.5,   18.3,   18.7,   11.6,  999.0,   15.1,   16.4,   17.1,   18.7,   14.4,   11.9,  999.0,   15.8,   10.4,    9.8
1992/05/21 16:45,    6.1,    6.2,    6.2,    6.1,    6.0,    5.3,    4.9,    4.4,    4.1,    3.6,    4.7,    5.7,    7.4,    6.3,    6.5,    7.8,  999.0,  999.0,    8.2,    8.1,  999.0,    9.4,    9.5,    9.5,    9.2,    8.1,    7.9,    4.3,    9.8,    9.7,   10.9,   12.0,   12.6,   12.6,   12.0,   12.9,   14.8,   14.8,   15.7,   15.7,   15.1,   14.8,   15.7,   16.6,   15.2,   16.0,   16.5,   15.7,   14.5,   15.0,   15.4,   16.2,   18.0,   19.4,   20.9,   20.1,   22.1,   26.8,   27.7,   30.1,   32.7,   34.4,   33.1,   33.6,   37.6,   36.6,   38.9,   35.9,   40.8,   37.4,   38.1,   41.4,   36.0,   39.2,   40.1,   37.8,   41.7,   49.5,   43.0,   40.3,  999.0,  999.0,   34.6,  999.0,   38.5,  999.0,   38.5,  999.0,  999.0,  999.0,  999.0,   38.1,  999.0,   36.9,   37.5,   30.3,   32.0,   32.6,   32.6,   23.3,   21.0,   22.3,   21.7,   22.0,   24.8,   18.8,   16.3,   13.3,  999.0,   10.6,   11.4,   11.5,   14.6,   16.0,   13.6,   15.0,  999.0,   15.9,   13.1,  999.0
1992/05/21 16:55,    5.9,    5.8,    5.6,    5.8,    5.8,    5.6,    5.5,    5.4,    4.6,    5.1,    6.1,    6.6,    7.6,    7.3,    7.9,    8.6,    8.4,    9.8,    9.5,    9.4,   10.0,    9.6,    9.9,    9.8,    8.6,    4.2,    6.4,    7.2,    8.5,    7.3,    9.7,   10.4,   11.3,    9.9,   10.3,   11.6,   12.9,   13.8,   14.3,   16.0,   14.5,   14.1,   14.9,   15.6,   14.5,   14.4,   14.1,    8.7,   14.1,   12.9,   12.8,   14.2,   16.0,   17.3,   18.6,   18.4,   21.9,   24.4,   26.3,   28.3,   30.8,   31.5,   32.0,   31.5,   34.1,   35.1,   35.2,   34.9,   35.3,   35.5,   35.2,   38.2,   37.1,   38.7,   38.4,   38.6,   41.4,  999.0,   39.9,   39.4,  999.0,  999.0,  999.0,   34.7,   36.6,   32.8,   36.8,   38.4,   37.1,   35.3,   39.6,  999.0,   36.8,   34.7,   39.7,   31.9,   31.6,   32.1,   34.3,   25.6,   22.2,   22.1,   22.8,   22.6,   24.3,   19.9,   12.7,   17.9,    9.3,    7.7,    8.2,    8.5,   10.7,   10.0,    8.3,  999.0,  999.0,  999.0,  999.0,  999.0
1992/05/21 17:05,    6.2,    6.9,    6.8,    6.5,    6.6,    6.1,    5.7,    5.7,    5.5,    5.4,    6.3,    6.7,    8.9,   10.0,   10.5,   11.0,   11.2,   11.9,   10.0,   10.7,   11.1,   14.0,   11.9,   11.8,    9.2,    7.1,    6.3,    7.4,    9.0,    9.5,   11.1,   11.8,   12.4,   11.3,   12.1,   13.0,   15.5,   15.2,   15.5,   16.1,   14.9,   15.4,   15.7,   16.2,   14.9,   14.5,   13.4,   14.9,   12.9,   15.2,   16.4,   18.5,   19.7,   21.1,   21.4,   21.5,   25.2,   27.5,   29.3,   31.0,   33.8,   35.7,   33.9,   34.8,   35.2,   35.3,   35.5,   35.4,   37.3,   38.0,   35.6,   37.8,   35.6,   38.3,   38.1,   37.6,   39.1,   40.9,   41.9,   37.0,   39.0,  999.0,   34.9,   35.1,   40.4,  999.0,   37.1,  999.0,   34.9,   35.3,   38.2,  999.0,  999.0,   35.2,   39.5,  999.0,   33.8,   33.4,   30.5,   25.3,   21.2,   22.4,   19.4,   21.5,   23.0,   16.2,  999.0,   17.2,   12.2,   11.0,   11.3,   13.6,   15.4,  999.0,  999.0,  999.0,  999.0,  999.0,   13.9,   10.8
1992/05/21 17:15,    6.2,    7.2,    7.0,    7.1,    6.9,    6.5,    6.4,    5.9,    5.7,    5.1,    5.2,    6.4,    6.3,    7.9,    8.7,    9.7,    8.7,    9.4,    9.7,   10.6,   11.1,   11.7,    9.6,    8.1,    6.6,    4.2,    6.1,    6.6,    8.7,    9.6,   10.4,   11.6,   11.7,   10.8,   11.2,   12.4,   13.7,   13.3,   13.7,   14.7,   14.3,   13.9,   15.9,   14.3,   13.0,   13.2,   14.1,   12.9,   13.4,   15.4,   17.8,   18.7,   18.9,   20.3,   20.8,   21.3,   22.8,   26.6,   29.0,   31.9,   34.3,   34.3,   35.7,   34.6,   36.8,   36.9,   37.0,   36.6,   38.9,   38.5,   36.1,   38.5,   36.6,   38.1,   38.1,  999.0,   40.1,   42.5,  999.0,   37.5,   39.0,   34.8,   31.8,   35.1,  999.0,   33.5,   38.3,   36.1,   37.6,  999.0,  999.0,   33.6,   38.1,   33.0,   35.4,   26.4,   29.3,   30.8,   31.5,   27.7,   24.9,   25.6,   25.7,   27.0,   26.0,   20.6,   19.5,   18.6,   14.5,   11.5,   13.6,   15.6,   16.2,   14.7,   10.0,   11.1,   11.9,   12.7,   11.7,   10.7
1992/05/21 17:25,    5.8,    6.4,    6.6,    6.9,    7.1,    6.4,    5.9,    5.9,    5.5,    5.0,    5.8,    6.3,    6.5,    8.9,    9.8,    9.7,   10.2,    9.0,    9.9,   10.0,   10.4,   11.1,    9.9,    8.8,    8.0,    7.3,    6.5,    7.3,    9.4,    6.6,    9.4,   10.9,   10.1,   10.0,   10.6,   11.7,   12.3,   13.1,   13.3,   14.0,   13.9,   13.7,  999.0,  999.0,   16.0,   15.1,   15.0,   14.5,   15.5,   17.7,   20.2,   20.9,  999.0,   21.4,   20.6,   21.9,   22.8,   26.9,   30.0,   33.5,   34.4,   34.1,   34.7,   35.9,   37.7,   37.4,   38.6,   37.2,   38.8,   39.8,   40.4,   36.5,  999.0,  999.0,   41.2,  999.0,  999.0,   43.6,   44.4,   36.8,   35.0,  999.0,  999.0,  999.0,  999.0,  999.0,  999.0,  999.0,  999.0,  999.0,  999.0,   29.4,   32.5,   35.2,   30.3,  999.0,   26.7,   29.7,   32.1,   26.4,   22.3,   20.4,   21.9,   21.2,   20.9,   17.8,   18.6,   17.5,  999.0,    9.6,  999.0,  999.0,   14.6,  999.0,  999.0,    7.9,   15.4,  999.0,  999.0,  999.0
1992/05/21 17:35,    5.5,    5.4,    6.0,    6.6,    7.7,    6.8,    5.8,    5.9,    6.2,    5.5,    5.8,    6.6,    8.8,   10.7,   11.9,   12.0,   11.2,   10.3,   10.2,   11.6,   11.7,   12.1,   12.1,   10.6,    8.2,    8.0,   10.2,   10.0,   10.7,   10.7,   10.2,   10.6,   11.5,   10.6,   11.1,   12.9,   13.0,   13.7,   15.2,   14.1,   14.9,   14.1,  999.0,   15.0,   16.3,   12.5,   13.2,   13.3,   14.1,   17.3,   19.0,  999.0,  999.0,   20.1,   19.8,   19.8,   20.9,   25.4,   30.2,   32.3,   34.5,   33.5,   34.5,   36.7,   36.9,   38.8,   38.4,   37.2,   39.4,   37.7,   38.3,   38.6,  999.0,  999.0,  999.0,  999.0,  999.0,  999.0,  999.0,  999.0,  999.0,  999.0,  999.0,  999.0,  999.0,  999.0,  999.0,  999.0,  999.0,  999.0,  999.0,  999.0,  999.0,  999.0,  999.0,  999.0,   29.1,  999.0,  999.0,   25.7,   22.0,   21.4,   20.7,   22.9,   21.7,   16.6,  999.0,   12.2,   -4.2,    9.4,  999.0,  999.0,   12.2,   11.2,    8.9,  999.0,  999.0,  999.0,   14.4,  999.0
1992/05/21 17:45,    5.6,    6.2,    6.5,    6.7,    7.2,    7.3,    6.4,    5.9,    5.9,    5.8,    5.8,    7.2,    7.0,    9.4,    9.4,   10.7,   10.5,    8.4,    8.9,    9.7,   11.0,   10.6,   10.9,    9.7,    8.8,    7.4,    8.6,    7.9,    8.4,   10.2,   10.5,   11.8,   11.5,   12.0,   11.9,   13.0,   14.1,   15.0,   13.5,   13.9,   15.1,  999.0,  999.0,   12.5,   14.0,   13.2,   14.2,   14.6,   15.8,   17.4,   19.0,   20.4,   21.1,   20.0,   18.3,   20.1,   23.3,   28.4,   31.5,   33.8,   35.9,   34.9,   36.1,   36.9,   38.4,   39.1,   39.3,   37.3,   39.4,   38.7,   40.7,   38.2,   38.6,   39.7,   40.0,   42.3,   43.9,   41.9,   41.8,   36.7,   38.6,  999.0,  999.0,  999.0,   37.1,  999.0,   35.9,   37.4,   36.8,   36.8,  999.0,  999.0,   33.2,   34.7,   38.1,   33.8,   28.0,   29.6,   29.5,   29.3,   22.3,   21.8,   20.5,   19.6,   19.6,   17.3,   15.5,    7.8,   30.5,    9.2,   10.0,  999.0,  999.0,  999.0,   10.7,    9.3,   10.8,   13.0,  999.0,  999.0
1992/05/21 17:55,    5.1,    5.5,    5.7,    5.8,    6.1,    6.9,    7.0,    6.2,    6.1,    5.8,    5.3,    5.8,    6.9,    8.8,   10.2,   10.1,    9.7,    8.0,    8.5,    9.4,   10.6,   10.8,   10.7,    9.5,    8.9,    9.0,    7.7,    7.3,    8.7,    9.7,   11.9,   12.5,   11.6,   12.7,   13.9,   15.0,   16.2,   16.9,   15.0,   16.4,   17.6,  999.0,  999.0,   16.8,   15.2,   15.8,   15.1,   17.2,   18.5,   19.1,  999.0,   22.2,   19.7,   20.1,   19.0,   21.5,   25.7,   29.8,   32.8,   33.8,   33.7,   32.5,   34.3,   37.0,   35.1,   38.0,   39.2,   36.4,   39.3,  999.0,   35.1,   37.8,   38.6,   38.7,   39.0,  999.0,  999.0,  999.0,   39.1,   36.3,   38.8,  999.0,  999.0,  999.0,   34.0,  999.0,   35.7,   37.4,   39.3,  999.0,  999.0,  999.0,   35.6,  999.0,   -0.4,   25.7,   29.7,   27.4,   27.6,  999.0,  999.0,  999.0,  999.0,  999.0,  999.0,   20.6,   12.0,   11.3,  999.0,   11.0,   12.5,  999.0,   16.4,   18.3,   15.8,  999.0,  999.0,   18.1,  999.0,   16.0
1992/05/21 18:05,    5.3,    5.9,    6.0,    6.3,    5.8,    5.6,    5.9,    6.2,    6.4,    5.8,    4.8,    5.4,    6.3,    7.8,    8.7,    8.8,    7.8,    6.5,    5.8,    6.2,    7.0,    7.4,    7.1,    7.7,    8.3,    8.8,    5.3,    9.2,    5.3,   11.2,   12.0,   11.6,   12.2,   13.5,   11.7,   13.9,   15.1,   15.5,   14.3,   15.5,   15.6,  999.0,   11.2,   15.1,   15.6,   16.8,   16.0,   17.7,   21.9,   18.9,   21.4,   22.2,   20.2,   18.6,   19.5,   23.0,   27.4,   30.4,   34.9,   34.5,   36.1,   36.8,   37.7,   38.8,  999.0,  999.0,  999.0,  999.0,   41.1,   40.6,   32.8,   38.8,   38.7,   38.5,  999.0,  999.0,  999.0,   37.6,   40.6,   29.8,  999.0,  999.0,  999.0,  999.0,  999.0,  999.0,   34.4,  999.0,  999.0,  999.0,  999.0,  999.0,    4.3,   28.3,  999.0,   27.9,   27.8,   29.5,   29.7,   25.8,  999.0,  999.0,   22.8,   26.2,   18.2,   17.6,   14.7,   13.9,  -11.7,  999.0,  -10.5,  -10.3,    7.0,  999.0,    8.5,  999.0,  999.0,  999.0,  999.0,  999.0
1992/05/21 18:15,    4.2,    5.4,    5.6,    5.6,    5.9,    6.5,    6.3,    6.5,    6.8,    5.6,    5.6,    7.1,    8.3,    8.6,    8.8,    8.1,    7.3,    6.2,    6.2,    6.9,    7.7,    8.3,    8.5,    6.9,    8.0,    8.1,  999.0,    3.6,  999.0,    7.0,    9.5,   11.5,   11.6,   11.9,   12.6,   14.5,   14.9,  999.0,   14.1,  999.0,    1.6,    7.2,   13.2,   14.2,   14.4,   14.5,   14.4,   15.5,  999.0,  999.0,  999.0,  999.0,   14.5,   15.7,   16.6,   19.1,   22.9,   25.4,   28.4,   30.0,   32.7,  999.0,  999.0,   33.4,   33.9,  999.0,  999.0,  999.0,  999.0,  999.0,  999.0,  999.0,   35.0,  999.0,  999.0,  999.0,  999.0,  999.0,  999.0,  999.0,  999.0,  999.0,  999.0,  999.0,  999.0,  999.0,  999.0,  999.0,  999.0,  999.0,  999.0,  999.0,  999.0,  999.0,  999.0,  999.0,  999.0,  999.0,  999.0,  999.0,  999.0,  999.0,  999.0,  999.0,  999.0,  999.0,   17.1,  999.0,   -6.2,  999.0,  999.0,    6.3,    1.1,  999.0,    4.2,  999.0,  999.0,  999.0,   -2.0,  999.0
1992/05/21 18:25,    4.6,    4.9,    5.2,    6.1,    6.4,    6.1,    6.5,    6.7,    5.9,    6.1,    7.5,    8.6,    9.6,    8.9,    8.5,    9.1,    9.3,    9.3,    8.9,   10.5,   11.6,   11.4,    9.6,    6.2,    7.2,    1.6,   -0.9,    3.8,    3.2,   10.1,    8.7,    7.9,   11.6,   15.2,    6.1,    2.9,   16.3,  999.0,  999.0,  999.0,   17.3,   16.6,   15.5,   15.0,   14.9,   15.9,   13.3,   -0.3,   -1.0,    1.3,    0.2,    0.9,   -1.0,  999.0,   16.8,   19.1,  999.0,  999.0,  999.0,  999.0,  999.0,  999.0,  999.0,  999.0,  999.0,  999.0,  999.0,  999.0,  999.0,  999.0,  999.0,  999.0,   -0.8,  999.0,    2.7,  999.0,  999.0,   -3.0,    0.5,   -0.8,  999.0,   -0.9,  999.0,  999.0,  999.0,  999.0,   -0.3,  999.0,  999.0,  999.0,   -5.2,  999.0,   -5.3,   -0.6,  999.0,    0.6,  999.0,   -2.7,  999.0,    2.2,   -2.5,    2.3,   -4.9,   -1.0,  999.0,  999.0,    2.7,    5.7,  999.0,  999.0,   13.4,    0.2,  999.0,  999.0,   -6.2,   -3.9,  999.0,  999.0,  999.0,    6.4
1992/05/21 18:35,    4.8,    5.0,    5.4,    6.7,    6.4,    7.0,    7.4,    7.2,    6.8,    7.2,    8.0,    9.6,   10.0,    9.1,    9.6,    9.6,    9.5,    9.1,    9.7,   11.0,   12.0,   10.5,    8.5,    5.6,    5.0,    5.1,    4.9,    3.8,    8.9,    8.1,    7.4,    6.4,   11.5,   10.8,   12.2,   16.1,   16.8,   15.6,   15.6,   14.1,   15.2,   15.0,    3.9,    2.8,   11.4,   12.6,    4.4,    3.5,    5.1,    4.6,    3.7,    3.9,    0.4,   10.7,   11.5,   20.2,   25.3,  999.0,   34.3,  999.0,  999.0,  999.0,  999.0,  999.0,  999.0,  999.0,  999.0,  999.0,  999.0,  999.0,  999.0,    4.3,    2.9,    3.0,  999.0,  999.0,  999.0,    0.5,   -1.8,    2.2,  999.0,   -1.4,  999.0,  999.0,   -2.0,  999.0,    3.0,  999.0,  999.0,   -0.7,    3.8,    3.3,    4.0,  999.0,    1.8,    3.3,    4.9,   -1.9,  999.0,    1.1,  999.0,  999.0,  999.0,  999.0,  999.0,    1.3,   -0.0,    0.5,    4.8,    3.5,  999.0,    3.0,  999.0,    3.6,    2.0,    5.2,  999.0,  999.0,  999.0,    1.9
1992/05/21 18:45,    5.5,    5.7,    4.8,    5.1,    5.7,    5.9,    6.2,    5.2,    5.5,    6.0,    6.4,    7.7,    7.8,    8.1,    8.4,    7.8,    8.6,    9.8,   11.3,   12.9,   12.8,    8.2,    9.5,    4.0,    6.3,    3.1,    2.9,    2.4,    9.0,    8.4,   11.2,  999.0,    9.5,    6.0,    8.9,   12.6,   14.3,   14.3,   14.0,   12.0,   13.6,   12.3,   13.1,   13.5,   11.6,    9.0,    5.6,    3.2,    3.5,   -9.2,   -3.5,  999.0,   12.8,   13.1,   16.4,   20.1,   23.7,  999.0,  999.0,   29.2,  999.0,  999.0,  999.0,  999.0,   20.0,  999.0,  999.0,  999.0,  999.0,  999.0,  999.0,  999.0,   -4.5,    3.9,    3.8,   -3.1,  999.0,  999.0,  999.0,    3.7,  999.0,    2.1,    4.5,  999.0,    3.1,  999.0,    4.9,  999.0,    4.3,  999.0,    0.3,    2.7,   -4.4,   -6.7,  999.0,   -0.6,    1.8,    2.5,  999.0,    2.2,  999.0,  999.0,  999.0,  999.0,   -6.0,    2.2,    9.0,    2.9,   -2.4,  999.0,   -5.2,    2.2,    5.6,   -6.1,  999.0,    0.2,    2.2,    7.8,  999.0,    5.1
1992/05/21 18:55,    4.7,    4.9,    3.9,    4.3,    3.8,    4.1,    4.0,    4.6,    5.2,    6.0,    6.7,    6.2,    7.5,   10.0,   10.1,    7.7,    9.2,   11.2,   13.6,   12.5,   12.2,    9.9,    9.1,    8.6,    9.4,   10.0,  999.0,    7.2,    7.8,   11.8,   12.9,  999.0,   11.5,   13.0,   12.1,   13.3,  999.0,  999.0,  999.0,  999.0,  999.0,   12.2,   14.4,   15.1,   15.5,   16.3,  999.0,  999.0,   15.2,   17.0,  999.0,   14.7,   13.6,   13.2,   14.6,   19.7,   22.3,   22.1,   24.8,   28.0,   31.2,   32.1,  999.0,   34.4,  999.0,   34.0,  999.0,   35.8,  999.0,  999.0,  999.0,  999.0,  999.0,  999.0,  999.0,  999.0,  999.0,  999.0,  999.0,  999.0,  999.0,  999.0,  999.0,   35.0,  999.0,  999.0,  999.0,  999.0,  999.0,  999.0,  999.0,  999.0,  999.0,  999.0,  999.0,  999.0,  999.0,  999.0,  999.0,  999.0,  999.0,  999.0,   23.3,  999.0,  999.0,  999.0,  999.0,  999.0,  999.0,  999.0,  999.0,  999.0,  999.0,  999.0,   11.1,  999.0,  999.0,  999.0,  999.0,   11.3
1992/05/21 19:05,  999.0,  999.0,  999.0,  999.0,  999.0,  999.0,  999.0,  999.0,  999.0,  999.0,  999.0,  999.0,  999.0,  999.0,  999.0,  999.0,  999.0,  999.0,  999.0,  999.0,  999.0,  999.0,  999.0,  999.0,  999.0,  999.0,  999.0,  999.0,  999.0,  999.0,  999.0,  999.0,  999.0,  999.0,  999.0,  999.0,  999.0,  999.0,  999.0,  999.0,  999.0,  999.0,  999.0,  999.0,  999.0,  999.0,  999.0,  999.0,  999.0,  999.0,  999.0,  999.0,  999.0,  999.0,  999.0,  999.0,  999.0,  999.0,  999.0,  999.0,  999.0,  999.0,  999.0,  999.0,  999.0,  999.0,  999.0,  999.0,  999.0,  999.0,  999.0,  999.0,  999.0,  999.0,  999.0,  999.0,  999.0,  999.0,  999.0,  999.0,  999.0,  999.0,  999.0,  999.0,  999.0,  999.0,  999.0,  999.0,  999.0,  999.0,  999.0,  999.0,  999.0,  999.0,  999.0,  999.0,  999.0,  999.0,  999.0,  999.0,  999.0,  999.0,  999.0,  999.0,  999.0,  999.0,  999.0,  999.0,  999.0,  999.0,  999.0,  999.0,  999.0,  999.0,  999.0,  999.0,  999.0,  999.0,  999.0,  999.0
1992/05/21 19:15,    5.1,    4.9,    5.4,    4.2,  999.0,    5.5,    3.9,  999.0,    5.7,    7.1,    7.6,    7.1,    8.4,    9.6,   10.0,    9.8,  999.0,    7.5,    8.0,    9.1,   10.4,  999.0,   11.8,   13.3,  999.0,  999.0,  999.0,  999.0,  999.0,  999.0,  999.0,   14.4,  999.0,  999.0,  999.0,  999.0,  999.0,   15.2,  999.0,  999.0,  999.0,   13.5,  999.0,  999.0,  999.0,  999.0,  999.0,    8.8,  999.0,  999.0,  999.0,  999.0,  999.0,  999.0,   13.9,   18.6,   23.7,  999.0,  999.0,  999.0,  999.0,  999.0,  999.0,  999.0,  999.0,  999.0,  999.0,  999.0,  999.0,  999.0,  999.0,  999.0,  999.0,  999.0,  999.0,  999.0,  999.0,  999.0,  999.0,  999.0,  999.0,  999.0,  999.0,  999.0,  999.0,  999.0,  999.0,  999.0,  999.0,  999.0,  999.0,  999.0,  999.0,  999.0,  999.0,  999.0,  999.0,  999.0,  999.0,  999.0,  999.0,  999.0,  999.0,  999.0,  999.0,   -1.2,  999.0,  999.0,  999.0,  999.0,  999.0,  999.0,  999.0,  999.0,  999.0,  999.0,  999.0,  999.0,  999.0,  999.0
1992/05/21 19:25,    5.2,    4.9,    5.1,    4.1,    5.3,    4.8,    4.6,    5.5,    6.5,    6.0,    6.3,    6.7,    7.3,    7.5,    8.1,    7.8,    8.6,    8.6,   10.0,    8.9,   10.2,    9.4,    9.8,   10.0,    9.8,    7.0,    9.9,   10.4,   10.5,   10.4,   11.6,   12.0,   13.1,   13.0,   12.7,   13.2,   13.0,   12.6,   12.8,   12.2,   12.3,   13.2,   12.1,   12.4,   12.4,   10.8,    9.8,    8.5,    8.9,   10.0,   11.4,   12.8,   12.8,   12.6,   14.5,   19.7,   23.8,   24.3,   25.5,   27.8,   31.3,   34.7,   35.4,   32.7,   34.4,   34.5,   35.7,   37.9,   39.6,  999.0,   34.9,   33.6,   34.1,   36.8,   35.8,   36.3,   36.7,   39.2,   38.7,  999.0,   35.8,   35.6,   35.9,   37.7,  999.0,   34.2,   37.6,   37.1,   35.7,   37.9,   36.7,  999.0,   36.0,   34.7,   35.3,   34.3,  999.0,  999.0,   27.8,   29.4,   29.7,   25.7,   29.1,   26.7,   23.7,   21.5,   21.8,   17.6,  999.0,  999.0,   17.6,   18.2,   18.1,   17.0,   17.3,   14.1,   13.8,    7.7,    9.6,    9.4
1992/05/21 19:35,    4.2,    4.5,    5.2,  999.0,  999.0,    5.9,    5.7,    5.7,    5.9,    5.5,    6.1,    6.2,    7.0,    7.3,    8.6,    9.5,   10.0,   10.1,   12.7,   12.5,   11.4,   11.6,   10.6,   10.8,   10.3,    9.4,   10.8,    9.8,   11.8,   10.1,   10.6,   11.0,   12.6,   11.9,   12.6,   12.7,   12.1,   11.6,   11.4,   11.2,   11.7,   11.8,   11.5,   11.1,   11.6,   12.6,   10.9,   10.3,   12.0,   12.7,   12.7,   14.5,   13.1,   14.3,   19.6,   25.1,   28.0,   26.5,   28.4,   29.8,   34.4,   36.9,   38.0,   36.2,   37.1,   37.7,   37.9,   39.5,   41.8,   34.8,   35.4,   36.1,   35.8,   36.9,   37.6,   37.6,   40.2,   39.1,   38.8,   34.5,   38.6,   34.2,   35.1,   34.3,   35.9,   35.4,   37.6,   36.9,   34.4,  999.0,   38.6,  999.0,   34.1,   35.9,   35.5,   35.5,  999.0,  999.0,  999.0,  999.0,   28.5,   25.6,   25.3,   26.0,   22.5,   19.9,   20.9,   15.0,  999.0,   16.3,  999.0,   17.4,   17.2,   12.9,   13.0,   10.1,   10.9,  999.0,    9.1,    8.2
1992/05/21 19:45,    6.1,    5.0,    5.2,    5.4,    6.7,  999.0,    4.1,    5.0,    4.6,    4.0,    4.7,    5.2,    6.8,    7.5,    7.6,    7.5,    6.6,    8.4,   10.5,    9.9,    8.5,    8.4,    9.4,    9.3,    8.0,   10.4,   10.5,    9.8,    8.8,   10.1,   10.5,    7.6,   12.6,   12.0,   12.4,   12.4,   11.6,   10.4,   10.3,   10.2,   11.5,   12.1,   11.1,   10.2,   11.1,   12.1,   12.5,   12.2,   12.8,   14.0,   14.8,   11.8,   12.8,   16.5,   21.2,   26.1,   26.2,   25.0,   27.6,   29.3,   34.4,   37.1,   36.8,   38.1,   37.8,   35.2,   38.3,   41.6,   38.9,   38.4,   37.8,   35.4,   37.7,   36.9,   37.8,   39.3,   39.3,   40.6,   37.8,   38.6,   39.2,   34.8,   35.9,   36.0,   38.3,   35.6,   38.7,   37.4,   36.4,   38.1,   37.5,   37.8,   37.1,   36.6,   35.6,   34.2,   31.7,   28.2,   28.3,   29.0,   28.5,   24.6,  999.0,   23.7,   21.1,   18.7,   19.2,   15.9,   13.3,   13.6,  999.0,  999.0,  999.0,   15.0,  999.0,  999.0,  999.0,    8.6,    6.4,    8.4
1992/05/21 19:55,    5.7,    5.2,    5.4,  999.0,  999.0,    5.5,    4.8,    3.7,    3.0,    2.7,    2.5,    1.4,    3.5,    3.5,    4.7,    4.2,    4.7,    4.2,    4.7,    6.7,    7.1,    7.3,    7.8,    6.7,    6.8,    7.2,    7.3,    8.2,    8.3,    9.0,    7.6,    8.2,    9.1,    9.2,    9.2,   10.0,    8.1,    6.5,    7.6,    8.6,    9.2,    9.4,    9.9,   10.5,   10.9,   11.5,   12.1,   11.5,   13.1,   14.2,   13.5,   13.1,   15.5,   19.1,   23.6,   26.7,   25.3,   26.4,   28.5,   29.7,   34.4,   37.9,   38.2,   38.8,   39.6,   37.5,   38.6,   42.2,   38.5,   37.4,   38.2,   36.8,   38.2,   40.5,   39.4,  999.0,  999.0,   40.6,   37.1,   39.1,   39.8,   37.7,   38.9,   39.8,  999.0,   39.0,  999.0,  999.0,   41.4,   42.3,  999.0,  999.0,   35.2,   40.4,  999.0,   32.9,  999.0,  999.0,  999.0,   27.7,  999.0,   23.3,   21.3,   22.9,   20.4,   16.5,    9.7,  999.0,   15.5,  999.0,  999.0,  999.0,   18.9,   15.5,  999.0,    9.2,   10.0,    5.7,    5.9,    5.7
1992/05/21 20:05,    5.2,    5.4,    5.5,    6.1,    6.4,    6.6,    6.0,    6.2,    5.7,    4.9,    6.5,    7.7,    8.8,   10.6,    8.5,    7.8,    8.1,    9.1,    9.1,    9.0,    9.1,    8.6,    8.1,    7.5,    7.6,    8.1,    9.0,    8.7,    8.7,    9.1,   10.4,   10.8,   10.9,   11.1,   10.8,    9.1,    7.2,    8.0,    8.3,    9.2,   10.2,   10.7,   11.1,   11.6,   12.0,   12.3,   12.5,   13.0,   13.9,   14.9,   14.8,   15.6,   19.8,   24.3,   25.7,   28.3,   25.8,   28.0,   28.9,   31.4,   36.7,   38.1,   38.9,   38.3,   40.6,   39.7,   39.0,   42.4,   40.7,   41.8,   39.0,   39.9,   39.2,   40.8,   41.6,   45.6,   44.5,  999.0,   41.6,   41.8,   44.1,   39.1,   39.0,   39.0,  999.0,   38.5,   42.1,   40.0,   39.8,   41.3,  999.0,   37.6,   35.0,   37.4,  999.0,   30.4,   27.6,  999.0,   25.0,   27.4,   22.8,  999.0,   22.6,   23.7,  999.0,   20.3,   16.9,   17.2,   16.9,   17.4,   21.9,   22.2,   19.5,  999.0,  999.0,  999.0,   11.1,    8.9,    6.9,    6.1
1992/05/21 20:15,    5.9,    5.1,    5.6,    6.1,    6.0,    6.1,    5.4,    4.7,    4.4,    4.6,    6.5,    8.0,    9.8,    9.8,    9.1,    8.7,    9.0,    9.7,    8.7,    8.0,    7.5,    7.7,    8.1,    7.3,    7.2,    5.9,    5.5,    7.4,    9.4,   10.4,   11.4,   11.9,   11.4,   11.7,   10.5,    9.9,    8.8,    9.2,    9.0,   10.0,   11.7,   13.0,   13.5,   13.2,   14.0,   14.2,   15.4,   16.0,   17.0,   16.2,   16.2,   19.7,   24.7,   29.7,   26.7,   29.9,   26.0,   28.5,   28.5,   32.2,   36.6,   40.3,   41.3,   38.1,   38.6,   41.2,   39.1,   42.7,   44.0,   43.7,   40.5,   39.2,   41.1,   41.0,   41.5,   45.5,   47.0,   41.8,   43.0,   42.5,   45.5,   41.6,   38.4,   38.5,   40.0,   40.3,   42.7,   38.6,   40.6,   41.4,   36.3,   37.7,   37.8,   38.6,   30.1,   28.1,   28.7,   24.6,   25.4,   27.0,   21.0,   21.9,   22.1,   22.2,   20.8,   18.0,   14.4,   16.6,  999.0,  999.0,  999.0,  999.0,   17.2,  999.0,  999.0,  999.0,   10.2,   10.7,    7.5,    7.6
1992/05/21 20:25,    6.5,    6.0,    5.6,    4.4,    4.9,    5.1,    4.8,    4.6,    4.1,    5.1,    5.7,    9.4,   10.6,    9.2,    7.9,    7.6,    7.3,    7.4,    9.2,    5.6,    7.6,    8.4,    9.4,    9.0,    8.8,    8.8,    9.8,    9.4,    9.5,    9.9,    9.5,   10.3,   10.8,   11.7,   12.3,   12.3,   11.9,   10.5,   10.6,   11.3,   11.5,   12.0,   12.9,   13.3,   12.8,   13.1,   14.2,   14.8,   15.7,   16.0,   15.4,   17.8,   22.3,   26.5,   25.4,   27.6,   24.7,   27.1,   28.3,   32.1,   35.9,   37.6,   35.5,   35.5,   36.6,   39.0,   35.7,   39.3,   41.3,   37.6,   39.3,   38.1,   36.3,   39.5,   39.0,   40.1,   40.7,   43.1,  999.0,   38.0,   42.1,   40.8,   38.1,   36.3,   38.4,   38.1,   41.1,   36.7,   38.5,   39.3,   36.9,   36.9,   38.6,   34.0,   28.6,   31.7,   28.8,   27.5,   25.1,   24.2,   20.7,   20.3,   20.4,   18.1,   16.8,   14.2,   13.6,   14.3,   15.2,   13.8,   16.0,   18.8,   16.7,   14.2,   13.3,   10.5,   10.3,    8.9,  999.0,    6.0
1992/05/21 20:35,    8.1,    7.6,    6.2,    5.3,    5.1,    4.3,    5.5,    3.9,    3.6,    5.6,    7.6,    9.0,    8.9,    7.8,    8.1,    8.8,    8.8,    7.9,    7.6,    8.6,    8.5,    8.7,    8.2,    8.8,    9.2,    8.5,    8.8,    9.1,    9.7,    8.0,    8.1,   11.1,    9.8,   10.8,   11.8,   11.6,   12.5,   12.8,   13.0,   13.4,   13.7,   13.8,   12.9,   13.8,   14.2,   14.3,   14.6,   15.3,   16.2,   16.2,   14.7,   16.6,   19.8,   24.3,   25.3,   26.4,   24.9,   26.4,   28.4,   32.4,   35.8,   38.0,   33.7,   36.2,   37.3,   39.0,   36.2,   38.9,   40.9,   36.6,   37.0,   38.4,   35.9,   38.8,   38.5,   39.5,   40.9,   41.0,   38.6,   38.0,   38.7,   40.7,   36.4,   34.4,   36.7,   37.1,   38.4,   34.4,   36.5,   39.3,   33.9,   35.8,   37.7,   31.7,   29.0,   30.7,   30.4,   32.1,   24.5,   25.1,   25.2,   23.1,   23.1,   20.1,   19.0,  999.0,   15.1,   16.1,   18.2,   19.2,   19.0,   23.6,   21.8,   16.4,   16.4,  999.0,   10.3,   10.7,   11.7,    7.4
1992/05/21 20:45,    9.0,    8.7,    6.8,    6.4,    6.4,    5.9,    5.5,    5.8,    5.4,    7.4,   10.4,   10.1,    9.4,    8.4,    9.3,    8.3,    7.7,    7.5,    6.5,    5.3,    7.5,    9.5,    8.9,    8.9,    7.8,    8.3,    8.8,    9.7,    8.8,    8.7,    9.2,   10.7,   12.5,   13.2,   13.9,   14.0,   14.0,   15.0,   14.0,   15.4,   15.4,   15.7,   15.5,   15.5,   15.7,   15.0,   16.6,   18.7,   18.0,   17.3,   17.3,   19.9,   24.5,   28.7,   27.5,   28.5,   26.2,   28.6,   31.0,   34.9,   37.8,   39.9,   37.4,   38.3,   38.5,   41.4,   38.8,   38.3,   41.9,   38.8,   37.6,   37.1,   39.0,   39.7,   38.0,   39.0,   42.0,   38.8,   36.9,   40.0,   37.1,   36.8,   33.9,   35.0,   36.1,   36.7,   37.3,   35.8,   36.3,   36.7,   33.8,   36.2,   38.6,   34.9,   27.7,   29.6,   30.9,   31.0,   23.9,   23.5,   22.8,   21.4,   23.0,   16.7,   18.0,   12.2,   14.4,   17.1,   17.4,   18.6,   18.1,   21.0,   19.8,   13.7,   12.2,   14.7,   13.9,   11.7,   10.1,    9.4
1992/05/21 20:55,    8.1,    7.6,    7.5,    6.9,    6.6,    6.8,    6.6,    7.4,    7.8,    7.9,   10.1,   11.4,   12.6,   10.3,    9.4,    8.9,    9.4,    9.2,    6.5,    8.1,    8.2,   11.6,   11.4,   10.1,    9.6,    9.8,   10.2,   10.8,   10.1,   11.0,   11.0,   11.8,   12.0,   12.9,   13.4,   13.6,   14.4,   14.8,   15.2,   15.8,   15.2,   15.6,   15.6,   14.9,   15.0,   16.2,   17.1,   18.3,   18.3,   18.6,   17.8,   20.8,   24.9,   28.4,   25.9,   27.5,   26.5,   28.2,   30.8,   35.1,   38.8,   41.3,   37.3,   37.7,   40.7,   42.2,   41.1,   40.3,   42.0,   36.7,   39.1,   39.9,   40.1,   40.6,   38.5,   40.0,   44.8,   40.0,   38.5,   39.3,   41.0,  999.0,   36.6,   34.1,   36.9,   37.3,   37.1,   37.0,   38.9,   35.2,   35.4,   38.6,   40.3,  999.0,   29.1,   28.1,   29.6,   30.3,   27.7,   22.8,   23.2,   21.1,   22.4,   19.8,   16.5,   15.0,   14.3,   17.0,   17.0,   18.4,   17.5,   21.3,  999.0,   13.7,  999.0,   12.4,   10.5,    8.9,    9.5,    7.6
1992/05/21 21:05,    8.6,   10.8,    8.7,    6.0,    6.1,    6.0,    5.3,    5.9,    6.5,    7.7,    7.7,    8.1,    8.0,    7.9,    7.0,    8.0,    8.4,    8.1,    8.5,    8.6,    9.8,   10.4,   12.0,   10.8,   10.5,   10.5,   10.7,   11.6,   12.5,   13.1,   13.2,   13.6,   13.6,   13.9,   14.1,   14.3,   14.2,   15.0,   15.5,   15.8,   15.1,   15.6,   16.7,   15.0,   16.0,   18.4,   20.0,   20.4,   21.8,   23.6,   21.0,   23.5,   27.3,   30.2,   29.5,   25.6,   27.9,   30.7,   33.8,   37.1,   41.4,   44.3,   38.9,   40.7,   41.9,   45.5,   44.9,   43.4,   41.9,   37.6,   41.3,   40.7,   41.4,   41.8,   40.5,   42.1,   41.2,   41.0,   39.1,   41.5,   38.7,   37.4,   37.4,   35.7,   38.5,   40.7,   39.5,   37.3,   39.2,   37.4,   36.6,   39.4,  999.0,   31.6,   30.9,   29.5,   29.7,   30.3,   31.7,   21.6,   22.7,   22.1,   21.5,   23.2,   15.3,   14.7,   13.8,   15.7,   15.2,   15.4,   16.4,   17.3,   17.2,   13.7,   13.0,   12.3,    9.1,    7.6,    8.5,    8.1
1992/05/21 21:15,    9.3,    9.4,    8.9,   10.6,    9.2,    6.9,    6.9,    6.9,    7.2,    7.5,    7.6,    8.2,    7.9,    7.3,    7.2,    7.1,    7.3,    7.6,    8.3,    9.3,   10.8,   10.7,   11.0,   11.2,   10.2,   10.8,   10.9,   11.8,   13.5,   15.0,   14.7,   14.8,   15.1,   15.3,   14.4,   15.0,   15.9,   16.6,   15.4,   16.4,   16.6,   16.7,   15.8,   16.2,   18.2,   20.0,   19.2,   21.0,   21.3,   22.1,   22.2,   23.6,   27.9,   29.2,   29.7,   28.8,   28.1,   30.0,   34.7,   37.2,   41.1,   41.6,   40.5,   42.2,   43.2,   46.6,   45.2,   42.4,   43.3,   43.0,   43.5,   40.1,   44.0,  999.0,   40.0,   43.0,   42.4,   42.4,   41.3,   43.5,   37.1,   38.1,   38.0,   38.1,   39.3,   40.8,   37.2,   38.1,   37.4,   36.1,   36.2,   37.7,   38.5,   35.5,   32.0,   29.9,   31.0,   30.2,   30.2,  999.0,   22.3,   23.1,   22.6,   25.3,   17.1,   16.2,   17.4,   19.2,   19.8,   20.2,   21.4,   22.5,   22.2,   16.4,   16.3,   13.7,   10.4,    7.6,    7.7,    6.7
1992/05/21 21:25,    8.6,    7.8,    7.3,    6.5,    7.4,    5.6,    3.2,    5.8,    6.5,    7.2,    6.8,    7.3,    6.9,    6.7,    7.0,    8.4,    8.6,    8.4,    7.8,    9.7,   10.6,   10.7,   10.6,   10.7,   10.6,    9.9,   10.3,   11.0,   12.0,   12.9,   13.4,   12.9,   13.1,   12.7,   11.2,   11.7,   12.8,   12.9,   13.3,   14.3,   15.2,   14.6,   15.1,   17.3,   18.5,   20.3,  999.0,  999.0,   19.2,   20.7,   20.1,   23.8,   26.5,   26.9,   27.5,   25.0,   26.7,   28.4,   32.2,   34.3,   38.0,   37.7,   37.3,   40.1,   39.0,   41.5,   42.7,   40.7,   38.2,   39.7,   37.9,   39.6,   39.7,   40.7,   40.2,   38.5,   41.8,   37.9,   39.2,   37.8,   38.3,   34.6,   32.5,   35.5,   34.6,   37.1,   39.5,   35.3,   35.5,   36.6,   33.1,   37.3,   36.4,   36.3,   29.3,   30.1,   30.9,   30.1,   30.0,   27.5,   21.8,   22.8,   24.5,   25.7,   16.0,   16.4,   16.8,   18.2,   19.1,   20.5,   22.1,   21.7,   21.1,   17.1,   14.4,   14.4,   10.0,    7.1,    7.3,    7.1
1992/05/21 21:35,    8.8,   11.0,    9.0,    8.8,    8.9,    9.4,    8.6,    8.6,    8.4,    9.2,    8.9,    9.1,    8.2,    8.9,   10.6,   10.2,   10.2,    8.9,    8.4,    8.3,    9.0,    8.8,    9.2,   10.1,   10.7,   10.5,   11.4,   12.3,   13.5,   13.4,   13.4,   13.8,   14.6,   15.5,   16.3,   14.7,   13.8,   14.2,   15.0,   15.3,   13.8,   14.8,   16.4,   17.8,   19.1,   20.1,  999.0,  999.0,   20.4,   20.3,   20.1,   24.0,   26.7,   25.9,   27.7,   25.0,   25.9,   27.4,   30.7,   32.0,   35.2,   36.6,   36.8,   37.5,   37.2,   40.2,   40.8,   38.4,   36.3,   38.0,   37.6,   37.5,   37.8,   39.5,   38.5,   37.6,   40.6,   40.0,   38.1,   36.8,   39.4,   35.1,   35.6,   36.6,   35.6,   37.7,   38.2,   36.2,   36.0,   38.4,   33.8,   32.7,   36.2,   36.3,   31.6,   30.2,   31.5,   30.3,   31.0,   25.5,   20.5,   22.2,   23.2,   17.2,   13.7,   13.9,   13.9,   15.3,   15.9,   17.8,   17.3,   17.4,   19.8,   13.3,   12.7,   11.7,    9.8,    6.8,    7.0,    5.9
1992/05/21 21:45,    8.3,    7.6,    8.7,    9.5,    8.6,    8.8,    8.3,    8.6,    8.2,    8.1,    8.7,   10.1,    9.6,    9.0,    7.9,    8.2,    8.6,    8.5,    6.1,    5.8,    6.8,    6.4,    6.9,    7.3,    7.8,    8.1,    9.0,    9.5,   10.1,   11.0,   11.6,   11.8,   13.0,   13.3,   12.7,   12.8,   13.9,   14.5,   14.1,   13.3,   13.8,   14.4,   16.6,   18.2,   18.8,   19.8,   20.6,   20.7,   20.1,   19.9,   20.0,   23.3,   26.2,   25.7,   27.1,   25.6,   28.0,   29.5,   31.7,   33.8,   36.4,   39.8,   40.1,   37.5,   40.3,   42.7,   44.4,   39.2,   39.4,   40.8,   38.5,   40.1,   39.2,   40.3,   39.7,   40.1,   43.6,   39.6,   40.5,   40.2,   38.3,   36.5,   35.5,   37.8,   35.6,   38.6,   36.8,   36.3,   37.0,   38.4,   38.9,   34.4,   37.2,   36.3,   31.3,   30.0,   31.1,   30.1,   32.9,   23.9,   20.0,   21.2,   22.2,   16.8,   13.3,   12.8,   12.5,   13.5,   13.7,   15.6,   16.0,   15.6,   16.7,   15.6,   16.3,   12.2,   10.1,    7.8,    9.0,    7.4
1992/05/21 21:55,   11.0,   10.4,   10.6,    9.5,    8.7,    8.2,    8.2,    8.5,    8.6,    9.3,   10.0,   11.2,   10.1,    8.9,    8.5,    6.9,    6.9,    6.7,    5.5,    5.3,    4.7,    5.3,    6.2,    6.7,    6.9,    7.7,    8.4,    9.7,    9.8,   10.1,    9.9,    9.4,    9.6,    9.2,    8.5,    7.2,  999.0,  999.0,   10.6,   10.8,   11.3,   12.9,   14.7,   16.6,   17.7,   18.9,   19.1,   20.0,   21.0,   19.9,   19.9,   23.5,   27.3,   25.6,   26.4,   25.8,   27.8,   29.6,   33.1,   35.9,   39.3,   40.7,   40.4,   39.6,   43.2,   43.8,   44.3,   40.0,   40.8,   41.5,   39.5,   41.5,   40.6,   42.7,   39.7,   40.7,   46.2,   40.0,  999.0,  999.0,   39.4,   40.1,   37.0,   40.0,  999.0,   40.3,   36.9,   38.4,   37.2,   39.6,   38.8,   36.3,   37.5,   37.9,   31.2,   31.7,   31.8,   31.3,   31.0,   23.9,   21.8,   23.5,   20.1,   15.9,   14.2,   13.7,   14.4,   15.3,   15.1,   15.1,   17.3,   16.7,   20.6,   16.0,   15.4,   12.8,    9.3,    6.1,    6.3,    7.3
1992/05/21 22:05,   10.2,    9.4,    9.3,    9.0,    8.7,    8.8,    8.9,    7.9,    7.5,    7.9,    8.2,    7.4,    7.2,    7.0,    6.9,    6.0,    5.4,    6.0,    4.9,    7.0,    7.4,    6.2,    6.6,    7.4,    7.9,    8.4,    8.9,   10.3,   10.9,   11.7,   11.4,   12.8,   13.6,   14.4,   14.2,   13.3,   12.5,   15.6,   11.3,   12.6,   14.3,   15.9,   17.3,   18.9,   19.9,   19.9,   20.7,   20.6,   20.6,   20.0,   22.3,   24.1,   27.3,   26.7,   25.6,   26.1,   28.3,   29.9,   33.1,   36.3,   37.6,   40.0,   40.6,   40.4,   44.0,   44.1,   43.7,   43.0,   39.7,   42.2,   40.6,   39.7,   40.7,   41.5,   38.3,   42.4,   44.2,   39.9,   40.5,   39.4,   36.5,   38.3,   36.9,   40.0,   38.1,   40.5,   37.5,   38.1,   37.4,   39.1,   40.4,   35.6,   36.6,   35.2,   31.6,   32.0,   32.2,   32.1,   29.6,   22.0,   22.0,   24.5,   21.1,   17.2,   15.1,   14.6,   16.8,   18.6,   17.5,   17.3,   19.2,   18.2,   19.4,   17.2,   16.1,   14.9,   10.9,    7.6,    7.8,    7.6
1992/05/21 22:15,   11.0,   10.4,    9.9,    9.1,    9.3,    8.4,    8.8,    8.8,    9.5,    8.3,    7.7,    7.7,    5.9,    6.1,    5.6,    6.5,    5.2,    5.8,    6.2,    6.5,    5.8,    6.6,    7.2,    8.0,    9.5,   11.0,   12.6,   13.7,   14.2,   14.9,   14.8,   12.7,   12.8,   13.9,   14.0,   13.1,   13.5,   14.7,   13.9,   14.4,   14.9,   16.8,   17.5,   19.3,   19.7,   20.1,   19.9,   20.2,   19.8,   20.8,   21.9,   23.4,   26.0,   26.3,   25.5,   26.7,   29.2,   31.2,   35.0,   37.3,   38.1,   41.0,   39.3,   41.6,   45.8,   44.9,   43.8,   42.5,   42.1,   41.7,   39.4,   42.0,   42.1,   43.0,   39.6,   42.2,   40.9,   41.7,  999.0,   40.2,   39.2,   37.7,   39.2,   39.2,   39.1,   41.8,   35.4,   36.6,   37.5,   39.6,   45.7,   35.1,   37.3,   35.6,   30.7,   31.8,   32.3,   31.4,   28.4,   23.5,   22.7,   23.7,   22.0,   18.3,   15.9,   16.2,   17.8,   19.0,   19.1,   18.1,   18.9,   18.6,   19.6,   17.7,   16.8,   16.0,   12.0,    8.2,    7.4,    5.4
1992/05/21 22:25,   11.6,   10.9,   10.3,   10.1,    9.6,    8.6,    8.7,    7.8,    6.9,    6.7,    8.5,    7.8,    7.0,    7.4,    7.5,    7.8,    7.9,    6.2,    6.9,    7.4,    6.2,    6.4,    7.8,    9.0,    9.9,   10.9,   11.5,   12.5,   13.1,   13.5,   13.9,   14.6,   13.7,   14.4,   13.9,   15.2,   12.8,   14.3,   14.4,   15.3,   16.6,   18.3,   19.8,   20.3,   20.7,   22.3,   21.8,   20.7,   20.7,   20.8,   21.8,   25.4,   26.6,   27.3,   26.5,   27.6,   29.5,   32.9,   35.3,   37.0,   38.2,   39.9,   40.1,   41.5,   45.4,   43.3,   42.9,   40.5,   41.4,   41.8,   39.4,   40.8,   40.3,   42.5,   39.5,   40.8,   38.7,   35.4,   37.5,   39.3,   39.2,   36.2,   38.5,   36.9,   38.2,   38.6,   36.5,   35.8,   38.1,   39.5,   42.8,   34.3,   35.2,   37.0,   34.2,   33.2,   33.4,   34.6,   26.1,   25.0,   21.9,   22.5,   22.6,   14.2,   15.7,   13.9,   15.2,   14.7,   15.4,   14.6,   16.9,   17.6,   18.3,   16.1,   15.9,   16.7,   11.6,    8.8,    7.3,    6.1
1992/05/21 22:35,   11.1,   10.9,   10.4,    9.8,    8.8,    8.0,    7.9,    7.6,    7.2,    7.7,    7.9,    7.5,    7.9,    7.0,    7.7,    7.4,    5.9,    5.7,    7.4,    6.0,    6.5,    7.3,    8.6,    9.9,   10.8,   11.5,   11.2,   11.6,   12.4,   13.1,   13.9,   14.8,   15.2,   14.4,   14.0,   15.6,   15.7,   15.3,   14.8,   14.8,   17.4,   18.6,   20.0,   20.7,   21.1,   22.5,   22.7,   21.2,   19.8,   19.8,   21.2,   24.3,   26.9,   26.5,   25.4,   27.2,   28.8,   32.5,   34.2,   35.4,   37.9,   38.4,   39.3,   42.1,   44.4,   41.7,   40.8,   37.5,   39.9,   41.1,   36.9,   39.9,   37.5,   40.1,   37.5,   38.9,   41.1,   34.5,   39.2,   37.7,   36.2,   38.7,   35.8,   36.8,   35.8,   37.6,   33.4,   34.7,   36.5,   37.6,   38.6,   36.3,   33.8,   37.3,   31.9,   32.3,   31.7,   30.6,   27.6,   22.6,   21.1,   21.7,   21.1,   16.7,   16.3,   13.9,   14.8,   15.4,   15.1,   15.9,   16.3,   16.7,   17.6,   15.5,   16.5,   16.2,    9.8,    7.0,    7.3,    7.5
1992/05/21 22:45,   11.5,   10.6,   10.5,    9.3,    9.3,    8.7,    8.5,    8.4,    7.4,    8.4,    7.6,    7.4,    6.8,    6.3,    6.6,    6.2,    5.9,    6.6,    7.5,    7.0,    6.1,    7.1,    8.1,    9.3,   10.1,   10.4,   10.8,   11.4,   12.0,   12.1,   11.8,   12.5,   13.5,   13.6,   13.8,   13.7,   13.0,   10.9,   13.6,   14.5,   15.5,   17.4,   17.9,   19.1,   20.0,   21.7,   20.7,   20.4,   20.3,   19.1,   21.2,   23.6,   26.6,   26.6,   25.0,   27.7,   28.9,   33.2,   33.7,   36.1,   38.3,   39.5,   39.6,   41.3,   43.7,   42.8,   37.5,   37.3,   40.5,   42.8,   37.4,   40.8,   37.6,   41.5,   40.5,   38.6,   42.1,  999.0,   37.8,   38.2,   38.4,   36.8,   39.5,   35.2,   37.8,   38.7,   40.8,   36.1,   37.0,   38.4,   37.4,   40.4,   33.7,   38.3,   33.4,   31.0,   33.1,   31.5,   27.3,   23.6,   21.5,   20.8,   19.8,   17.4,   15.5,   13.6,   14.7,   16.2,   16.2,   16.1,   16.1,   15.9,   16.1,   16.4,   15.8,   15.3,   10.5,    7.8,    7.6,    5.8
1992/05/21 22:55,   11.6,   10.9,   10.7,   10.1,    9.9,    9.2,    8.4,    8.8,    8.0,    7.5,    6.8,    5.9,    5.9,    5.1,    4.6,    3.5,    3.5,    2.9,    3.3,    3.5,    3.3,    3.6,    6.2,    7.4,    7.8,    9.4,   10.5,   11.4,   11.8,   12.2,   12.5,   13.3,   14.2,   14.0,   12.4,   14.1,   14.5,   13.8,   15.6,   15.0,   15.5,   16.7,   18.7,   20.2,   20.7,   22.5,   20.8,   20.8,   20.3,   20.1,   21.8,   25.0,   27.6,   27.4,   25.9,   27.9,   30.1,   33.2,   34.7,   38.2,   39.6,   40.8,   41.4,   41.8,   45.7,   45.3,   37.1,   38.3,   39.6,   41.5,   39.4,   39.4,   39.3,   43.1,   40.6,   41.2,   42.1,   35.8,   38.8,   40.6,   40.8,   39.6,   41.2,  999.0,   39.0,   38.1,   41.8,   35.5,   37.4,   40.0,   38.3,   40.1,   34.5,   37.0,   36.0,   32.2,   34.4,   32.9,   28.1,   24.6,   21.8,   20.6,   20.0,   16.8,   16.9,   13.6,   14.7,   15.0,   16.1,   16.4,   18.0,   18.0,   18.5,   17.0,   18.5,   15.9,   11.6,   10.1,    9.5,    5.0
1992/05/21 23:05,   11.0,   10.8,   10.4,   10.5,   10.1,    9.5,    9.6,    9.2,    9.1,    8.4,    8.0,    7.5,    7.4,    6.0,    5.3,    4.2,    3.4,    3.7,    2.8,    2.1,    2.3,    4.1,    4.4,    5.3,    6.9,    8.0,    9.0,    9.7,    9.8,    9.9,   10.4,   10.9,   12.3,   12.8,   12.5,   13.0,   13.5,   13.9,   14.6,   15.1,   15.4,   17.3,   18.6,   19.6,   21.6,   21.5,   20.9,   20.6,   21.1,   19.9,   21.5,   23.7,   26.0,   26.7,   24.7,   26.4,   29.1,   32.3,   34.9,   38.1,   38.0,   38.4,   42.3,   42.0,   42.8,   44.2,   37.6,   37.2,   39.8,   42.0,   38.2,   40.6,   39.9,   41.3,   41.4,   41.7,   42.8,   36.0,   39.3,   38.4,   41.1,   37.2,   38.0,  999.0,   37.2,   39.4,  999.0,   34.5,   35.7,   37.3,   36.8,   39.1,   34.6,   34.4,   33.2,   31.0,   30.9,   29.2,   27.3,   23.2,   21.3,   19.1,   19.9,   16.2,   16.6,   13.7,   15.1,   14.2,   15.0,   16.1,   17.0,   18.1,   19.1,   17.6,   18.9,   18.1,   10.7,    9.8,    9.7,    7.2
1992/05/21 23:15,   11.5,   11.2,   10.9,   10.5,    9.5,    8.9,    9.2,    9.7,    8.3,    8.0,    7.2,    6.7,    7.0,    5.3,    4.2,    4.4,    3.1,    4.0,    4.4,    4.5,    4.7,    6.0,    8.1,    9.6,   11.2,   11.4,   11.3,   11.4,   11.5,   11.1,   11.7,   12.1,   12.6,   13.8,   13.6,   13.9,   13.8,   13.9,   14.5,   14.5,   14.6,   16.7,   18.1,   19.5,   20.4,   21.2,   21.0,   22.0,   21.0,   20.6,   21.0,   23.5,   24.6,   25.6,   24.9,   24.3,   27.3,   30.5,   33.9,   36.2,   35.5,   38.6,   40.4,   42.9,   42.8,   42.3,   39.9,   36.4,   39.9,   41.3,   38.6,   42.0,   40.5,   39.4,   40.8,   42.3,   40.9,   36.8,   38.1,   38.3,   40.0,   39.6,   39.3,   37.5,   36.4,   38.8,  999.0,   34.3,   36.3,   36.8,   35.9,   38.7,   31.4,   33.0,   30.3,   30.1,   31.9,   28.4,   26.3,   21.3,   17.5,   17.7,   16.9,   14.7,   14.9,   12.9,   14.4,   14.5,   14.9,   16.1,   18.4,   17.7,   18.1,  999.0,  999.0,   19.8,   11.7,    7.8,    8.0,    7.8
1992/05/21 23:25,   10.6,   10.6,   11.2,   10.4,    9.8,    9.3,    9.6,    9.0,    8.4,    8.4,    7.1,    7.5,    8.1,    7.3,    5.6,    5.7,    4.0,    4.6,    5.3,    5.2,    5.8,    6.2,    6.4,    7.5,   10.8,   10.7,   11.5,   10.2,   10.9,   11.3,   11.7,   12.9,   13.5,   14.4,   14.4,   14.1,   13.6,   15.3,   14.3,   15.7,   16.0,   17.6,   19.4,   20.2,   21.3,   22.3,   22.3,   22.6,   21.0,   21.6,   23.6,   26.3,   26.0,   26.9,   24.9,   26.1,   29.3,   33.6,   35.7,   38.3,   37.1,   39.4,   41.3,   43.7,   44.8,   42.3,   40.1,   39.8,   42.4,   43.5,   40.2,   43.1,   41.0,   40.6,   41.0,   42.6,   44.7,   38.0,   38.8,   39.0,   39.2,   40.9,   39.2,  999.0,   36.8,   39.0,   27.5,   33.4,   37.5,   37.6,   37.5,   38.7,   34.7,   34.5,   29.3,   31.3,   29.6,   28.5,   26.5,   22.1,   19.2,   18.1,   18.2,   14.9,   14.6,   14.5,   15.2,   17.2,   18.4,   17.6,   19.3,   18.6,   20.3,   21.2,   18.7,   20.8,   14.9,    9.7,    7.7,    8.8
1992/05/21 23:35,   11.3,   11.4,   10.9,   10.2,    9.2,    9.1,    8.4,    8.5,    7.6,    8.0,    7.8,    8.0,    7.6,    6.9,    4.9,    4.9,    3.4,    3.3,    3.4,    3.0,    1.7,    3.6,    3.9,    5.1,    8.5,    9.7,   10.7,   11.3,   10.5,   10.9,   11.2,   12.5,   12.3,   13.5,   14.3,   13.9,   14.4,   14.6,   15.4,   14.6,   15.8,   17.8,   18.9,   20.1,   21.2,   21.4,   21.8,   21.9,   20.5,   21.3,   23.1,   25.6,   24.5,   25.6,   24.1,   25.0,   29.5,   33.5,   35.4,   37.5,   37.2,   40.6,   40.9,   42.3,   41.4,   43.0,   39.7,   38.3,   41.5,   40.9,   40.0,   41.1,   42.0,   38.7,   40.5,   42.1,   41.2,   36.5,   36.4,   37.9,   39.2,   37.1,   38.9,  999.0,   35.2,   37.3,  999.0,   33.4,   35.8,   37.7,   37.6,   34.8,   33.4,   33.1,   32.1,   31.8,   30.2,   29.5,   27.7,   21.7,   21.1,   20.1,   22.0,   16.3,   17.3,   15.1,   16.3,   17.7,   19.5,   19.9,   19.9,   21.0,   21.7,   21.0,   19.1,   20.4,   16.7,   14.0,    8.3,    9.0
1992/05/21 23:45,   11.1,   11.1,   10.8,   10.1,    9.7,   10.1,    8.5,    8.4,    7.7,    8.2,    8.1,    8.4,    7.3,    6.6,    5.3,    4.7,    4.1,    3.3,  999.0,  999.0,  999.0,  999.0,    5.9,    6.0,    9.0,   10.5,   11.2,   10.9,   11.1,   11.5,   12.0,   12.5,   13.7,   13.7,   14.5,   14.1,   15.0,   16.1,   14.9,   15.3,   16.7,   17.8,   18.6,   20.3,   21.3,   22.1,   22.1,   21.1,   19.7,   21.9,   25.5,   25.8,   26.8,   24.8,   26.0,   26.7,   31.0,   34.4,   35.2,   38.0,   38.5,   40.2,   42.3,   42.0,   42.5,   44.0,   39.3,   39.5,   42.8,   40.1,   39.4,   40.1,   43.9,   37.6,   40.1,   42.9,   41.9,   37.3,   36.3,   39.5,   38.0,   39.3,  999.0,   35.5,   35.2,   37.7,   37.8,   32.9,   34.8,   36.5,   38.8,   36.1,   33.0,   33.1,   30.2,   30.7,   29.9,   31.7,   27.3,  999.0,   17.9,   18.9,   18.9,   15.8,   17.1,   15.7,   14.1,   16.6,   18.0,   18.2,   21.3,   20.7,   23.6,   21.5,  999.0,   19.1,   16.8,   13.2,    8.5,    8.5
1992/05/21 23:55,   11.8,   11.5,   11.1,   10.3,   10.1,   10.4,    9.7,    9.1,    8.9,    9.0,    8.7,    9.2,    8.1,    8.4,    7.6,    5.7,    4.2,    3.7,    5.0,  999.0,    3.1,    4.2,    4.6,    6.0,    8.4,    9.3,   10.6,   11.2,   10.7,   11.3,   11.7,   12.0,   13.8,   13.8,   13.9,   13.8,   14.3,   15.5,   15.1,   16.1,   17.5,   18.1,   18.7,   19.4,   20.0,   20.8,   21.4,   20.7,   20.0,   23.0,   27.1,   25.6,   28.1,   25.3,   25.3,   28.6,   32.5,   34.7,   36.6,   38.4,   41.4,   41.6,   42.0,   43.7,   43.5,   41.5,   38.9,   38.5,   43.3,   40.7,   39.0,   40.6,   45.7,   37.1,   40.5,   41.8,   40.8,   39.3,   38.1,   39.0,   39.1,   40.6,   37.9,  999.0,   35.3,   36.6,  999.0,   33.0,   34.0,   36.2,   39.3,  999.0,   33.4,   34.6,   30.8,   29.4,   31.6,   30.4,   25.6,   24.7,   21.6,   20.4,   18.6,   15.8,   17.3,   14.3,   14.7,   16.3,   17.4,   18.8,   20.6,   21.7,   21.7,   20.5,   19.7,   20.2,   15.7,   13.2,    7.4,    7.6
